ftp/pub/palmer/observations_modified/2019/May/original_files/AR190518_BASE.txt

Download

Sample DateTime	Unit Id	WS Avg 2min	WD Avg 2min	WGS 10min	WGD 10min	Air Temp	Rel Humidity	Dew Point	Pyranometer	Quantum	Air Pressure	Snow Level	Rainfall	PW Current	Visibility	CBase 1	CBase 2	CBase 3	Vert Vis
2019/05/18 00:00:00	BASE	4.60	116	5.14	122	-2.3	100	-2.3	0	0	970.4	NA	0.0000		9999	920	0	0	0
2019/05/18 00:01:00	BASE	4.72	114	5.14	122	-2.3	100	-2.3	0	0	970.4	NA	0.0000		9999	950	0	0	0
2019/05/18 00:02:00	BASE	4.77	115	5.30	117	-2.3	100	-2.3	0	0	970.4	NA	0.0000		9999	890	0	0	0
2019/05/18 00:03:00	BASE	5.02	119	5.30	117	-2.3	100	-2.3	0	0	970.4	NA	0.0000		9999	820	0	0	0
2019/05/18 00:04:00	BASE	4.96	122	5.30	117	-2.3	100	-2.3	0	0	970.3	NA	0.0000		9999	820	0	0	0
2019/05/18 00:05:00	BASE	4.81	121	5.30	117	-2.3	100	-2.3	0	0	970.3	NA	0.0000		9999	660	0	0	0
2019/05/18 00:06:00	BASE	4.72	122	5.30	117	-2.2	100	-2.2	0	0	970.3	NA	0.0000		9999	750	0	0	0
2019/05/18 00:07:00	BASE	4.55	123	5.30	117	-2.2	100	-2.2	0	0	970.3	NA	0.0000		9999	690	0	0	0
2019/05/18 00:08:00	BASE	4.35	119	5.30	117	-2.2	100	-2.2	0	0	970.3	NA	0.0000		9999	720	0	0	0
2019/05/18 00:09:00	BASE	4.28	117	5.30	117	-2.2	100	-2.2	0	0	970.3	NA	0.0000		9999	660	0	0	0
2019/05/18 00:10:00	BASE	4.09	117	5.30	117	-2.2	100	-2.2	0	0	970.3	NA	0.0000		9999	690	0	0	0
2019/05/18 00:11:00	BASE	3.72	119	5.30	117	-2.2	100	-2.2	0	0	970.3	NA	0.0000		9999	690	0	0	0
2019/05/18 00:12:00	BASE	3.61	122	5.25	126	-2.2	100	-2.2	0	0	970.3	NA	0.0000		9999	660	0	0	0
2019/05/18 00:13:00	BASE	3.49	122	5.04	129	-2.2	100	-2.2	0	0	970.3	NA	0.0000		9999	690	0	0	0
2019/05/18 00:14:00	BASE	3.43	124	5.04	129	-2.2	100	-2.2	0	0	970.3	NA	0.0000		9999	660	0	0	0
2019/05/18 00:15:00	BASE	3.85	127	5.04	129	-2.2	100	-2.2	0	0	970.3	NA	0.0000		9999	620	0	0	0
2019/05/18 00:16:00	BASE	4.16	129	4.89	124	-2.2	100	-2.2	0	0	970.3	NA	0.0000		9999	560	0	0	0
2019/05/18 00:17:00	BASE	3.85	130	4.89	124	-2.2	100	-2.2	0	0	970.3	NA	0.0000		9999	690	0	0	0
2019/05/18 00:18:00	BASE	4.01	129	4.89	124	-2.1	100	-2.1	0	0	970.2	NA	0.0000		9999	590	0	0	0
2019/05/18 00:19:00	BASE	5.11	131	6.17	135	-2.1	100	-2.1	0	0	970.2	NA	0.0000		9999	590	0	0	0
2019/05/18 00:20:00	BASE	5.38	131	6.53	139	-2.1	100	-2.1	0	0	970.2	NA	0.0000		9999	490	0	0	0
2019/05/18 00:21:00	BASE	5.41	141	6.79	136	-2.0	100	-2.0	0	0	970.2	NA	0.0000		9999	460	0	0	0
2019/05/18 00:22:00	BASE	5.33	151	6.79	136	-2.0	100	-2.0	0	0	970.2	NA	0.0000		9999	560	0	0	0
2019/05/18 00:23:00	BASE	4.81	148	6.79	136	-2.0	100	-2.0	0	0	970.2	NA	0.0000		9999	620	0	0	0
2019/05/18 00:24:00	BASE	4.53	141	6.79	136	-1.9	100	-1.9	0	0	970.2	NA	0.0000		9999	590	0	0	0
2019/05/18 00:25:00	BASE	4.27	127	6.79	136	-1.9	100	-1.9	0	0	970.2	NA	0.0000		9999	660	0	0	0
2019/05/18 00:26:00	BASE	4.35	118	6.79	136	-2.0	100	-2.0	0	0	970.2	NA	0.0000		9999	490	0	0	0
2019/05/18 00:27:00	BASE	4.21	118	6.79	136	-2.0	100	-2.0	0	0	970.1	NA	0.0000		9999	520	0	0	0
2019/05/18 00:28:00	BASE	4.09	123	6.79	136	-2.0	100	-2.0	0	0	970.1	NA	0.0000		9999	520	0	0	0
2019/05/18 00:29:00	BASE	4.34	125	6.79	136	-2.1	100	-2.1	0	0	970.1	NA	0.0000		9999	520	0	0	0
2019/05/18 00:30:00	BASE	4.29	127	6.79	136	-2.1	100	-2.1	0	0	970.1	NA	0.0000		9999	560	0	0	0
2019/05/18 00:31:00	BASE	4.02	131	5.61	145	-2.1	100	-2.1	0	0	970.1	NA	0.0000		9999	490	0	0	0
2019/05/18 00:32:00	BASE	4.05	130	5.61	145	-2.0	100	-2.0	0	0	970.1	NA	0.0000		9999	590	0	0	0
2019/05/18 00:33:00	BASE	4.13	126	5.25	120	-2.0	100	-2.0	0	0	970.1	NA	0.0000		9999	520	0	0	0
2019/05/18 00:34:00	BASE	4.04	125	5.25	120	-2.0	100	-2.0	0	0	970.1	NA	0.0000		9999	490	0	0	0
2019/05/18 00:35:00	BASE	3.93	128	5.25	120	-2.0	100	-2.0	0	0	970.0	NA	0.0000		9999	490	0	0	0
2019/05/18 00:36:00	BASE	4.36	129	5.35	128	-2.0	100	-2.0	0	0	969.9	NA	0.0000		9999	490	0	0	0
2019/05/18 00:37:00	BASE	5.26	128	6.58	124	-2.0	100	-2.0	0	0	969.9	NA	0.0000		9999	520	0	0	0
2019/05/18 00:38:00	BASE	5.33	128	6.58	124	-2.0	100	-2.0	0	0	969.9	NA	0.0000		9999	520	0	0	0
2019/05/18 00:39:00	BASE	5.00	130	6.58	124	-2.0	100	-2.0	0	0	969.9	NA	0.0000		9999	590	0	0	0
2019/05/18 00:40:00	BASE	5.09	133	6.58	124	-2.0	100	-2.0	0	0	969.9	NA	0.0000		9999	590	0	0	0
2019/05/18 00:41:00	BASE	5.17	133	6.58	124	-2.0	100	-2.0	0	0	969.9	NA	0.0000		9999	490	0	0	0
2019/05/18 00:42:00	BASE	4.93	130	6.58	124	-2.0	100	-2.0	0	0	969.8	NA	0.0000		9999	560	0	0	0
2019/05/18 00:43:00	BASE	4.95	129	6.58	124	-2.0	100	-2.0	0	0	969.8	NA	0.0000		9999	520	0	0	0
2019/05/18 00:44:00	BASE	5.03	134	6.58	124	-2.0	100	-2.0	0	0	969.8	NA	0.0000		9999	520	0	0	0
2019/05/18 00:45:00	BASE	4.67	135	6.58	124	-2.0	100	-2.0	0	0	969.8	NA	0.0000		9999	560	0	0	0
2019/05/18 00:46:00	BASE	4.51	132	6.58	124	-2.0	100	-2.0	0	0	969.8	NA	0.0000		9999	620	0	0	0
2019/05/18 00:47:00	BASE	4.53	128	5.81	140	-2.0	100	-2.0	0	0	969.8	NA	0.0000		9999	690	0	0	0
2019/05/18 00:48:00	BASE	4.74	130	5.81	140	-2.0	100	-2.0	0	0	969.8	NA	0.0000		9999	590	0	0	0
2019/05/18 00:49:00	BASE	4.87	131	5.81	140	-2.0	100	-2.0	0	0	969.8	NA	0.0000		9999	520	0	0	0
2019/05/18 00:50:00	BASE	4.90	128	5.71	126	-2.0	100	-2.0	0	0	969.8	NA	0.0000		9999	560	0	0	0
2019/05/18 00:51:00	BASE	4.66	129	5.71	126	-2.0	100	-2.0	0	0	969.8	NA	0.0000		9999	590	0	0	0
2019/05/18 00:52:00	BASE	3.81	129	5.71	126	-2.1	100	-2.1	0	0	969.8	NA	0.0000		9999	560	0	0	0
2019/05/18 00:53:00	BASE	3.78	127	6.12	121	-2.1	100	-2.1	0	0	969.8	NA	0.0000		9999	620	0	0	0
2019/05/18 00:54:00	BASE	4.44	129	6.12	121	-2.1	100	-2.1	0	0	969.7	NA	0.0000		9999	620	0	0	0
2019/05/18 00:55:00	BASE	4.26	132	6.12	121	-2.1	100	-2.1	0	0	969.7	NA	0.0000		9999	720	0	0	0
2019/05/18 00:56:00	BASE	4.14	135	6.12	121	-2.1	100	-2.1	0	0	969.7	NA	0.0000		9999	720	0	0	0
2019/05/18 00:57:00	BASE	4.33	141	6.12	121	-2.1	100	-2.1	0	0	969.6	NA	0.0000		9999	720	5910	0	0
2019/05/18 00:58:00	BASE	3.91	141	6.12	121	-2.0	100	-2.0	0	0	969.6	NA	0.0000		9999	750	0	0	0
2019/05/18 00:59:00	BASE	4.31	138	6.12	121	-2.0	100	-2.0	0	0	969.6	NA	0.0000		9999	720	0	0	0
2019/05/18 01:00:00	BASE	5.17	140	6.38	142	-2.0	100	-2.0	0	0	969.6	NA	0.0000		9999	790	0	0	0
2019/05/18 01:01:00	BASE	5.85	143	6.94	139	-2.0	100	-2.0	0	0	969.5	NA	0.0000		9999	750	0	0	0
2019/05/18 01:02:00	BASE	6.48	145	7.15	151	-2.0	100	-2.0	0	0	969.5	NA	0.0000		9999	720	0	0	0
2019/05/18 01:03:00	BASE	5.61	144	7.15	151	-2.0	100	-2.0	0	0	969.5	NA	0.0000		9999	690	0	0	0
2019/05/18 01:04:00	BASE	4.87	145	7.15	151	-2.0	100	-2.0	0	0	969.4	NA	0.0000		9999	660	0	0	0
2019/05/18 01:05:00	BASE	5.87	142	7.82	143	-2.0	100	-2.0	0	0	969.5	NA	0.0000		9999	660	0	0	0
2019/05/18 01:06:00	BASE	6.84	141	7.82	143	-2.0	100	-2.0	0	0	969.4	NA	0.0000		9999	690	0	0	0
2019/05/18 01:07:00	BASE	6.94	143	7.82	143	-2.0	100	-2.0	0	0	969.3	NA	0.0000		9999	590	6430	0	0
2019/05/18 01:08:00	BASE	6.56	149	7.82	143	-2.0	100	-2.0	0	0	969.3	NA	0.0000		9999	560	8660	0	0
2019/05/18 01:09:00	BASE	5.58	152	7.82	143	-2.0	100	-2.0	0	0	969.3	NA	0.0000		9999	560	7120	0	0
2019/05/18 01:10:00	BASE	4.76	146	7.82	143	-2.0	100	-2.0	0	0	969.3	NA	0.0000		9999	590	8630	0	0
2019/05/18 01:11:00	BASE	4.98	143	7.82	143	-2.0	100	-2.0	0	0	969.3	NA	0.0000		9999	520	0	0	0
2019/05/18 01:12:00	BASE	5.42	142	7.82	143	-2.0	100	-2.0	0	0	969.3	NA	0.0000		9999	660	7350	0	0
2019/05/18 01:13:00	BASE	5.18	141	7.82	143	-2.0	100	-2.0	0	0	969.3	NA	0.0000		9999	490	0	0	0
2019/05/18 01:14:00	BASE	4.25	143	7.82	143	-2.0	100	-2.0	0	0	969.3	NA	0.0000		9999	490	0	0	0
2019/05/18 01:15:00	BASE	3.39	136	7.56	142	-2.0	100	-2.0	0	0	969.4	NA	0.0000		9999	520	0	0	0
2019/05/18 01:16:00	BASE	2.62	124	7.51	156	-2.0	100	-2.0	0	0	969.4	NA	0.0000		9999	520	0	0	0
2019/05/18 01:17:00	BASE	1.91	118	7.51	156	-2.0	100	-2.0	0	0	969.4	NA	0.0000		9999	490	0	0	0
2019/05/18 01:18:00	BASE	1.66	107	6.02	152	-2.0	100	-2.0	0	0	969.4	NA	0.0000		9999	490	0	0	0
2019/05/18 01:19:00	BASE	1.32	74	6.02	152	-2.0	100	-2.0	0	0	969.4	NA	0.0000		9999	560	0	0	0
2019/05/18 01:20:01	BASE	1.20	38	6.02	152	-2.0	100	-2.0	0	0	969.3	NA	0.0000		9999	560	0	0	0
2019/05/18 01:21:01	BASE	1.47	31	6.02	152	-2.0	100	-2.0	0	0	969.3	NA	0.0000		9999	560	0	0	0
2019/05/18 01:22:01	BASE	1.09	35	5.61	142	-2.1	100	-2.1	0	0	969.3	NA	0.0000		9999	490	0	0	0
2019/05/18 01:23:01	BASE	0.67	36	4.17	142	-2.1	100	-2.1	0	0	969.3	NA	0.0000		9999	490	0	0	0
2019/05/18 01:24:01	BASE	0.94	41	3.60	129	-2.1	100	-2.1	0	0	969.2	NA	0.0000		9999	460	0	0	0
2019/05/18 01:25:01	BASE	1.18	48	2.42	120	-2.1	100	-2.1	0	0	969.2	NA	0.0000		9999	490	0	0	0
2019/05/18 01:26:01	BASE	0.96	55	2.21	124	-2.1	100	-2.1	0	0	969.2	NA	0.0000		9999	490	6170	0	0
2019/05/18 01:27:01	BASE	0.96	60	1.95	86	-2.1	100	-2.1	0	0	969.2	NA	0.0000		9999	6070	0	0	0
2019/05/18 01:28:01	BASE	1.54	59	2.37	50	-2.1	100	-2.1	0	0	969.2	NA	0.0000		9999	6000	7610	8200	0
2019/05/18 01:29:01	BASE	1.97	53	2.37	50	-2.1	100	-2.1	0	0	969.1	NA	0.0000		9999	5970	7220	8010	0
2019/05/18 01:30:01	BASE	1.85	48	2.37	50	-2.1	100	-2.1	0	0	969.1	NA	0.0000		9999	5970	8170	0	0
2019/05/18 01:31:01	BASE	1.75	42	2.37	50	-2.1	100	-2.1	0	0	969.1	NA	0.0000		9999	5940	7020	0	0
2019/05/18 01:32:01	BASE	1.83	33	2.37	50	-2.1	100	-2.1	0	0	969.1	NA	0.0000		9999	5910	0	0	0
2019/05/18 01:33:01	BASE	1.74	22	2.37	50	-2.2	100	-2.2	0	0	969.2	NA	0.0000		9999	8170	0	0	0
2019/05/18 01:34:01	BASE	1.80	0	2.37	50	-2.2	100	-2.2	0	0	969.2	NA	0.0000		9999	8100	0	0	0
2019/05/18 01:35:01	BASE	2.43	344	3.24	345	-2.2	100	-2.2	0	0	969.2	NA	0.0000		9999	6000	0	0	0
2019/05/18 01:36:01	BASE	3.15	344	3.65	350	-2.2	100	-2.2	0	0	969.2	NA	0.0000		9999	8070	0	0	0
2019/05/18 01:37:01	BASE	3.36	345	3.76	337	-2.2	100	-2.2	0	0	969.2	NA	0.0000		9999	590	0	0	0
2019/05/18 01:38:00	BASE	3.41	340	3.76	334	-2.2	100	-2.2	0	0	969.2	NA	0.0000		9999	560	0	0	0
2019/05/18 01:39:00	BASE	3.34	334	3.76	334	-2.2	100	-2.2	0	0	969.2	NA	0.0000		9999	590	0	0	0
2019/05/18 01:40:00	BASE	3.28	333	3.76	334	-2.2	100	-2.2	0	0	969.2	NA	0.0000		9999	560	0	0	0
2019/05/18 01:41:00	BASE	3.36	334	3.76	335	-2.2	100	-2.2	0	0	969.1	NA	0.0000		9999	560	0	0	0
2019/05/18 01:42:00	BASE	3.37	336	3.76	341	-2.2	100	-2.2	0	0	969.2	NA	0.0000		9999	560	5810	0	0
2019/05/18 01:43:00	BASE	3.33	344	3.76	344	-2.2	100	-2.2	0	0	969.2	NA	0.0000		9999	520	5810	0	0
2019/05/18 01:44:00	BASE	3.17	350	3.76	344	-2.2	100	-2.2	0	0	969.2	NA	0.0000		9999	560	5810	0	0
2019/05/18 01:45:00	BASE	3.08	351	3.76	344	-2.2	100	-2.2	0	0	969.1	NA	0.0000		9999	5810	0	0	0
2019/05/18 01:46:00	BASE	3.05	357	3.76	344	-2.2	100	-2.2	0	0	969.1	NA	0.0000		9999	0	0	0	490
2019/05/18 01:47:00	BASE	3.37	5	4.32	3	-2.2	100	-2.2	0	0	969.1	NA	0.0000		9999	0	0	0	430
2019/05/18 01:48:00	BASE	4.05	7	4.58	9	-2.2	100	-2.2	0	0	969.0	NA	0.0000		9999	590	0	0	0
2019/05/18 01:49:00	BASE	4.56	3	5.14	7	-2.2	100	-2.2	0	0	969.0	NA	0.0000		9999	520	0	0	0
2019/05/18 01:50:00	BASE	4.70	360	5.25	360	-2.2	100	-2.3	0	0	969.1	NA	0.0000		9999	5840	0	0	0
2019/05/18 01:51:00	BASE	5.00	8	6.28	22	-2.3	100	-2.3	0	0	969.0	NA	0.0000		9999	7480	0	0	0
2019/05/18 01:52:00	BASE	5.51	16	6.28	22	-2.4	100	-2.4	0	0	969.1	NA	0.0000		9999	7350	0	0	0
2019/05/18 01:53:00	BASE	5.63	12	6.28	22	-2.4	100	-2.4	0	0	969.1	NA	0.0000		9999	7020	0	0	0
2019/05/18 01:54:00	BASE	5.24	11	6.28	22	-2.4	100	-2.4	0	0	969.1	NA	0.0000		9999	7020	0	0	0
2019/05/18 01:55:00	BASE	4.75	10	6.28	22	-2.5	100	-2.5	0	0	969.1	NA	0.0000		9999	6960	0	0	0
2019/05/18 01:56:00	BASE	4.23	3	6.28	22	-2.4	100	-2.4	0	0	969.1	NA	0.0000		9999	6990	0	0	0
2019/05/18 01:57:00	BASE	3.63	360	6.28	22	-2.4	100	-2.4	0	0	969.1	NA	0.0000		9999	6960	0	0	0
2019/05/18 01:58:00	BASE	3.78	354	6.28	22	-2.4	100	-2.4	0	0	969.1	NA	0.0000		9999	7150	0	0	0
2019/05/18 01:59:00	BASE	4.21	354	6.28	22	-2.4	100	-2.4	0	0	969.1	NA	0.0000		9999	6890	0	0	0
2019/05/18 02:00:00	BASE	4.35	359	6.28	22	-2.4	100	-2.4	0	0	969.1	NA	0.0000		9999	6590	0	0	0
2019/05/18 02:01:00	BASE	4.30	2	6.17	18	-2.3	100	-2.3	0	0	969.1	NA	0.0000		9999	6460	0	0	0
2019/05/18 02:02:00	BASE	3.89	4	6.17	18	-2.3	100	-2.3	0	0	969.1	NA	0.0000		9999	6500	0	0	0
2019/05/18 02:03:00	BASE	3.39	351	5.66	19	-2.3	100	-2.3	0	0	969.1	NA	0.0000		9999	6170	0	0	0
2019/05/18 02:04:00	BASE	3.09	347	5.09	3	-2.3	100	-2.3	0	0	969.1	NA	0.0000		9999	6040	0	0	0
2019/05/18 02:05:00	BASE	2.86	348	4.89	360	-2.3	100	-2.3	0	0	969.1	NA	0.0000		9999	5940	0	0	0
2019/05/18 02:06:00	BASE	3.01	345	4.89	360	-2.3	100	-2.3	0	0	969.0	NA	0.0000		9999	5870	0	0	0
2019/05/18 02:07:00	BASE	3.21	346	4.89	360	-2.3	100	-2.3	0	0	969.0	NA	0.0000		9999	5710	0	0	0
2019/05/18 02:08:00	BASE	3.15	348	4.89	360	-2.3	100	-2.3	0	0	969.1	NA	0.0000		9999	5710	0	0	0
2019/05/18 02:09:00	BASE	3.25	352	4.89	360	-2.3	100	-2.3	0	0	969.0	NA	0.0000		9999	5610	0	0	0
2019/05/18 02:10:00	BASE	3.29	354	4.53	16	-2.3	100	-2.3	0	0	969.0	NA	0.0000		9999	5180	0	0	0
2019/05/18 02:11:00	BASE	3.39	353	4.53	16	-2.3	100	-2.3	0	0	969.0	NA	0.0000		9999	5280	0	0	0
2019/05/18 02:12:00	BASE	3.18	354	3.91	348	-2.3	100	-2.3	0	0	969.0	NA	0.0000		9999	5120	0	0	0
2019/05/18 02:13:00	BASE	2.90	359	3.91	348	-2.3	100	-2.3	0	0	969.0	NA	0.0000		9999	4820	0	0	0
2019/05/18 02:14:00	BASE	2.80	5	3.91	348	-2.2	100	-2.2	0	0	969.0	NA	0.0000		9999	4920	0	0	0
2019/05/18 02:15:00	BASE	2.59	10	3.91	348	-2.3	100	-2.3	0	0	969.0	NA	0.0000		9999	4860	0	0	0
2019/05/18 02:16:00	BASE	2.46	5	3.91	348	-2.3	100	-2.3	0	0	968.9	NA	0.0000		9999	4690	0	0	0
2019/05/18 02:17:00	BASE	2.69	353	3.91	348	-2.3	100	-2.3	0	0	968.9	NA	0.0000		9999	4590	0	0	0
2019/05/18 02:18:00	BASE	2.65	341	3.91	348	-2.3	100	-2.3	0	0	968.9	NA	0.0000		9999	4630	0	0	0
2019/05/18 02:19:00	BASE	2.59	346	3.91	348	-2.3	100	-2.3	0	0	968.9	NA	0.0000		9999	4460	0	0	0
2019/05/18 02:20:00	BASE	2.93	355	3.91	348	-2.3	100	-2.3	0	0	968.9	NA	0.0000		9999	4360	0	0	0
2019/05/18 02:21:00	BASE	3.09	347	3.45	350	-2.3	100	-2.3	0	0	968.9	NA	0.0000		9999	4230	0	0	0
2019/05/18 02:22:00	BASE	3.07	350	3.45	360	-2.3	100	-2.3	0	0	968.9	NA	0.0000		9999	4170	0	0	0
2019/05/18 02:23:00	BASE	3.11	0	3.45	5	-2.3	100	-2.3	0	0	968.9	NA	0.0000		9999	4100	0	0	0
2019/05/18 02:24:00	BASE	3.36	2	4.27	5	-2.3	100	-2.3	0	0	968.9	NA	0.0000		9999	3870	0	0	0
2019/05/18 02:25:01	BASE	3.78	4	4.78	11	-2.3	100	-2.3	0	0	968.9	NA	0.0000		9999	3640	0	0	0
2019/05/18 02:26:01	BASE	4.78	3	5.97	350	-2.2	100	-2.2	0	0	968.8	NA	0.0000		9999	3450	0	0	0
2019/05/18 02:27:01	BASE	5.85	2	6.58	360	-2.2	100	-2.2	0	0	968.7	NA	0.0000		9999	3220	0	0	0
2019/05/18 02:28:00	BASE	5.96	5	6.58	360	-2.2	100	-2.2	0	0	968.7	NA	0.0000		9999	3180	0	0	0
2019/05/18 02:29:01	BASE	5.95	1	6.58	360	-2.2	100	-2.2	0	0	968.7	NA	0.0000		9999	2990	0	0	0
2019/05/18 02:30:01	BASE	6.03	359	6.58	360	-2.1	100	-2.1	0	0	968.7	NA	0.0000		9999	0	0	0	3480
2019/05/18 02:31:01	BASE	6.19	1	6.84	360	-2.1	100	-2.1	0	0	968.7	NA	0.0000		9999	0	0	0	3310
2019/05/18 02:32:01	BASE	6.52	359	6.89	360	-2.1	100	-2.1	0	0	968.7	NA	0.0000		9999	0	0	0	3180
2019/05/18 02:33:01	BASE	6.54	359	6.94	3	-2.1	100	-2.1	0	0	968.7	NA	0.0000		9999	0	0	0	2950
2019/05/18 02:34:01	BASE	6.46	2	6.94	3	-2.1	100	-2.1	0	0	968.7	NA	0.0000		9999	0	0	0	3120
2019/05/18 02:35:01	BASE	6.29	0	6.94	3	-2.1	100	-2.1	0	0	968.7	NA	0.0000		9999	0	0	0	3150
2019/05/18 02:36:01	BASE	6.01	2	6.94	3	-2.1	100	-2.1	0	0	968.7	NA	0.0000		9999	0	0	0	3120
2019/05/18 02:37:01	BASE	5.59	3	6.94	3	-2.1	100	-2.1	0	0	968.6	NA	0.0000		9999	0	0	0	3020
2019/05/18 02:38:01	BASE	5.18	357	6.94	3	-2.1	100	-2.1	0	0	968.6	NA	0.0000		9999	0	0	0	2920
2019/05/18 02:39:01	BASE	4.92	353	6.94	3	-2.2	100	-2.2	0	0	968.6	NA	0.0000	UP	8000	0	0	0	2820
2019/05/18 02:40:01	BASE	4.87	359	6.94	3	-2.2	100	-2.2	0	0	968.6	NA	0.0000	UP	8000	0	0	0	2890
2019/05/18 02:41:01	BASE	4.96	2	6.94	3	-2.2	100	-2.2	0	0	968.6	NA	0.0000	UP	9999	0	0	0	2850
2019/05/18 02:42:01	BASE	5.13	2	6.94	3	-2.2	100	-2.2	0	0	968.6	NA	0.0000	UP	9999	0	0	0	2890
2019/05/18 02:43:01	BASE	5.47	357	6.64	4	-2.2	100	-2.2	0	0	968.6	NA	0.0000	UP	9999	0	0	0	2820
2019/05/18 02:44:01	BASE	5.70	352	6.43	1	-2.2	100	-2.2	0	0	968.5	NA	0.0000	UP	9999	0	0	0	2620
2019/05/18 02:45:01	BASE	5.57	353	6.28	5	-2.2	100	-2.2	0	0	968.5	NA	0.0000	UP	9999	0	0	0	2620
2019/05/18 02:46:01	BASE	5.63	353	6.17	354	-2.2	100	-2.2	0	0	968.5	NA	0.0000	UP	9999	0	0	0	2790
2019/05/18 02:47:01	BASE	5.78	351	6.17	354	-2.2	100	-2.2	0	0	968.5	NA	0.0000	UP	9999	0	0	0	2950
2019/05/18 02:48:01	BASE	5.45	351	6.17	354	-2.2	100	-2.2	0	0	968.5	NA	0.0000	UP	9999	0	0	0	2990
2019/05/18 02:49:01	BASE	5.42	349	6.22	346	-2.2	100	-2.2	0	0	968.5	NA	0.0000	UP	9999	0	0	0	2950
2019/05/18 02:50:01	BASE	5.72	347	6.22	346	-2.2	100	-2.2	0	0	968.5	NA	0.0000	UP	9999	0	0	0	4000
2019/05/18 02:51:01	BASE	5.95	345	6.64	351	-2.1	100	-2.1	0	0	968.5	NA	0.0000	UP	9999	0	0	0	4040
2019/05/18 02:52:01	BASE	6.20	348	6.64	351	-2.1	100	-2.1	0	0	968.5	NA	0.0000	UP	9999	0	0	0	3900
2019/05/18 02:53:01	BASE	6.06	352	6.64	351	-2.1	100	-2.1	0	0	968.5	NA	0.0000	UP	9999	0	0	0	3810
2019/05/18 02:54:01	BASE	5.89	353	6.64	351	-2.1	100	-2.1	0	0	968.5	NA	0.0000	UP	9999	0	0	0	3770
2019/05/18 02:55:01	BASE	5.86	353	6.64	351	-2.1	100	-2.1	0	0	968.5	NA	0.0000	UP	9999	0	0	0	3770
2019/05/18 02:56:01	BASE	5.92	351	6.64	351	-2.1	100	-2.1	0	0	968.5	NA	0.0000	UP	9999	0	0	0	3740
2019/05/18 02:57:01	BASE	5.87	351	6.64	351	-2.2	100	-2.2	0	0	968.5	NA	0.0000	UP	9999	0	0	0	3940
2019/05/18 02:58:01	BASE	5.73	351	6.64	351	-2.2	100	-2.2	0	0	968.5	NA	0.0000	UP	9999	0	0	0	4200
2019/05/18 02:59:01	BASE	5.93	350	6.64	351	-2.2	100	-2.2	0	0	968.5	NA	0.0000	UP	9999	0	0	0	4300
2019/05/18 03:00:01	BASE	6.11	352	6.64	351	-2.1	100	-2.1	0	0	968.5	NA	0.0000	UP	9999	0	0	0	4330
2019/05/18 03:01:01	BASE	6.01	353	6.58	349	-2.1	100	-2.1	0	0	968.5	NA	0.0000	UP	9999	0	0	0	4430
2019/05/18 03:02:01	BASE	5.75	353	6.53	350	-2.1	100	-2.1	0	0	968.5	NA	0.0000	UP	9999	0	0	0	1120
2019/05/18 03:03:01	BASE	5.42	355	6.53	350	-2.1	100	-2.1	0	0	968.5	NA	0.0000	UP	9999	0	0	0	1080
2019/05/18 03:04:01	BASE	5.09	2	6.53	350	-2.1	100	-2.1	0	0	968.5	NA	0.0000	UP	9000	0	0	0	1050
2019/05/18 03:05:01	BASE	4.94	3	6.53	350	-2.1	100	-2.1	0	0	968.5	NA	0.0000	UP	8000	0	0	0	950
2019/05/18 03:06:01	BASE	5.14	2	6.53	350	-2.1	100	-2.1	0	0	968.5	NA	0.0000	UP	9000	0	0	0	920
2019/05/18 03:07:01	BASE	5.22	360	6.53	350	-2.1	100	-2.1	0	0	968.4	NA	0.0000	UP	9000	0	0	0	1080
2019/05/18 03:08:01	BASE	5.17	357	6.53	350	-2.2	100	-2.2	0	0	968.4	NA	0.0000	UP	9999	360	0	0	0
2019/05/18 03:09:01	BASE	5.25	356	6.48	348	-2.2	100	-2.2	0	0	968.4	NA	0.0000	UP	9999	360	0	0	0
2019/05/18 03:10:01	BASE	5.24	354	6.28	350	-2.2	100	-2.2	0	0	968.4	NA	0.0000	UP	9999	0	0	0	820
2019/05/18 03:11:01	BASE	5.30	348	5.92	355	-2.2	100	-2.2	0	0	968.4	NA	0.0000	UP	9999	0	0	0	690
2019/05/18 03:12:01	BASE	5.35	345	5.92	344	-2.2	100	-2.2	0	0	968.4	NA	0.0000	UP	9999	0	0	0	620
2019/05/18 03:13:01	BASE	5.45	345	5.92	344	-2.2	100	-2.2	0	0	968.4	NA	0.0000	UP	9999	0	0	0	620
2019/05/18 03:14:01	BASE	5.47	344	6.02	346	-2.2	100	-2.2	0	0	968.4	NA	0.0000	UP	9999	0	0	0	590
2019/05/18 03:15:01	BASE	4.96	350	6.02	346	-2.2	100	-2.2	0	0	968.4	NA	0.0000	UP	9999	0	0	0	620
2019/05/18 03:16:01	BASE	4.48	354	6.02	346	-2.2	100	-2.2	0	0	968.4	NA	0.0000	UP	9999	0	0	0	750
2019/05/18 03:17:01	BASE	4.20	353	6.02	346	-2.2	100	-2.2	0	0	968.4	NA	0.0000	UP	9999	0	0	0	4170
2019/05/18 03:18:01	BASE	4.12	355	6.02	346	-2.2	100	-2.2	0	0	968.4	NA	0.0000	UP	9999	0	0	0	4070
2019/05/18 03:19:01	BASE	4.25	355	6.02	346	-2.2	100	-2.2	0	0	968.4	NA	0.0000	UP	9999	0	0	0	4100
2019/05/18 03:20:01	BASE	4.12	357	6.02	346	-2.2	100	-2.2	0	0	968.4	NA	0.0000	UP	9999	0	0	0	3770
2019/05/18 03:21:01	BASE	4.14	3	6.02	346	-2.2	100	-2.2	0	0	968.4	NA	0.0000	UP	9999	0	0	0	3610
2019/05/18 03:22:01	BASE	4.67	4	6.02	346	-2.2	100	-2.2	0	0	968.4	NA	0.0000	UP	6000	0	0	0	3480
2019/05/18 03:23:01	BASE	5.04	3	6.02	346	-2.2	100	-2.2	0	0	968.4	NA	0.0000	-SN	7000	0	0	0	3350
2019/05/18 03:24:01	BASE	4.87	355	5.45	354	-2.2	100	-2.2	0	0	968.4	NA	0.0000	-SN	9999	0	0	0	3350
2019/05/18 03:25:01	BASE	4.69	354	5.45	354	-2.2	100	-2.2	0	0	968.4	NA	0.0000	-SN BR	9000	0	0	0	3310
2019/05/18 03:26:01	BASE	4.72	357	5.45	354	-2.2	100	-2.2	0	0	968.4	NA	0.0000	-SN BR	9999	330	0	0	0
2019/05/18 03:27:01	BASE	4.68	350	5.45	354	-2.2	100	-2.2	0	0	968.3	NA	0.0000	-SN BR	6000	300	0	0	0
2019/05/18 03:28:01	BASE	4.56	345	5.45	354	-2.1	100	-2.1	0	0	968.4	NA	0.0000	-SN BR	6000	260	0	0	0
2019/05/18 03:29:01	BASE	4.30	343	5.45	354	-2.1	100	-2.1	0	0	968.4	NA	0.0000	-SN BR	8000	260	0	0	0
2019/05/18 03:30:01	BASE	4.10	345	5.45	354	-2.1	100	-2.1	0	0	968.4	NA	0.0000	-SN BR	7000	300	0	0	0
2019/05/18 03:31:01	BASE	4.06	351	5.45	354	-2.0	100	-2.0	0	0	968.3	NA	0.0000	-SN BR	7000	330	0	0	0
2019/05/18 03:32:01	BASE	4.33	355	5.45	354	-2.0	100	-2.0	0	0	968.3	NA	0.0000	-SN BR	7000	330	0	0	0
2019/05/18 03:33:01	BASE	4.63	352	5.25	355	-2.0	100	-2.0	0	0	968.3	NA	0.0000	-SN BR	6000	0	0	0	3020
2019/05/18 03:34:01	BASE	4.74	350	5.45	348	-2.1	100	-2.1	0	0	968.3	NA	0.0000	-SN BR	8000	0	0	0	3020
2019/05/18 03:35:01	BASE	4.59	351	5.45	348	-2.1	100	-2.1	0	0	968.3	NA	0.0000	-SN BR	6000	0	0	0	2890
2019/05/18 03:36:01	BASE	4.21	353	5.45	348	-2.1	100	-2.1	0	0	968.3	NA	0.0000	-SN BR	5000	0	0	0	2790
2019/05/18 03:37:01	BASE	4.06	351	5.45	348	-2.1	100	-2.1	0	0	968.3	NA	0.0000	-SN BR	7000	0	0	0	2820
2019/05/18 03:38:01	BASE	3.98	345	5.45	348	-2.1	100	-2.1	0	0	968.3	NA	0.0000	-SN BR	7000	0	0	0	2790
2019/05/18 03:39:01	BASE	3.93	344	5.45	348	-2.1	100	-2.1	0	0	968.3	NA	0.0000	-SN BR	7000	0	0	0	2760
2019/05/18 03:40:01	BASE	4.08	346	5.45	348	-2.0	100	-2.0	0	0	968.3	NA	0.0000	-SN BR	5000	0	0	0	2820
2019/05/18 03:41:01	BASE	4.24	343	5.45	348	-2.0	100	-2.0	0	0	968.2	NA	0.0000	-SN BR	4700	0	0	0	2820
2019/05/18 03:42:01	BASE	4.53	339	5.45	348	-2.0	100	-2.0	0	0	968.2	NA	0.0000	-SN BR	6000	0	0	0	2690
2019/05/18 03:43:01	BASE	4.51	340	5.45	348	-2.0	100	-2.0	0	0	968.2	NA	0.0000	-SN BR	5000	0	0	0	2690
2019/05/18 03:44:01	BASE	4.10	338	5.35	336	-2.0	100	-2.0	0	0	968.2	NA	0.0000	-SN BR	4700	0	0	0	2760
2019/05/18 03:45:01	BASE	3.96	335	5.35	336	-2.0	100	-2.0	0	0	968.2	NA	0.0000	-SN BR	5000	0	0	0	3380
2019/05/18 03:46:01	BASE	4.02	337	5.35	336	-2.1	100	-2.1	0	0	968.2	NA	0.0000	-SN BR	9000	0	0	0	3510
2019/05/18 03:47:01	BASE	3.87	338	5.35	336	-2.1	100	-2.1	0	0	968.2	NA	0.0000	-SN BR	6000	0	0	0	3410
2019/05/18 03:48:01	BASE	3.71	337	5.35	336	-2.1	100	-2.1	0	0	968.2	NA	0.0000	-SN BR	3700	0	0	0	2620
2019/05/18 03:49:01	BASE	3.82	336	5.35	336	-2.1	100	-2.1	0	0	968.2	NA	0.0000	-SN BR	4300	0	0	0	3410
2019/05/18 03:50:01	BASE	4.02	335	5.35	336	-2.1	100	-2.1	0	0	968.2	NA	0.0000	-SN BR	8000	0	0	0	3410
2019/05/18 03:51:01	BASE	4.23	336	5.35	336	-2.0	100	-2.0	0	0	968.2	NA	0.0000	-SN BR	9999	0	0	0	3410
2019/05/18 03:52:01	BASE	4.09	338	4.68	347	-2.0	100	-2.0	0	0	968.2	NA	0.0000	-SN BR	9999	0	0	0	3480
2019/05/18 03:53:01	BASE	3.73	339	4.63	334	-2.0	100	-2.0	0	0	968.2	NA	0.0000	-SN BR	9999	0	0	0	3640
2019/05/18 03:54:01	BASE	3.69	340	4.63	334	-2.0	100	-2.0	0	0	968.2	NA	0.0000	-SN BR	9999	0	0	0	3580
2019/05/18 03:55:01	BASE	4.12	338	4.73	334	-2.0	100	-2.0	0	0	968.2	NA	0.0000	-SN BR	9999	0	0	0	3480
2019/05/18 03:56:01	BASE	4.17	336	4.73	334	-2.0	100	-2.0	0	0	968.2	NA	0.0000	-SN BR	9999	0	0	0	3310
2019/05/18 03:57:01	BASE	3.79	335	4.73	334	-2.0	100	-2.0	0	0	968.2	NA	0.0000	-SN BR	9999	0	0	0	3350
2019/05/18 03:58:01	BASE	3.79	333	4.73	334	-2.0	100	-2.0	0	0	968.2	NA	0.0000	-SN	9999	0	0	0	3610
2019/05/18 03:59:01	BASE	4.06	335	4.78	340	-2.0	100	-2.0	0	0	968.2	NA	0.0000	-SN	9999	0	0	0	3670
2019/05/18 04:00:01	BASE	4.39	339	5.04	339	-2.0	100	-2.0	0	0	968.2	NA	0.0000	-SN	9999	0	0	0	3610
2019/05/18 04:01:01	BASE	4.69	341	5.20	340	-2.0	100	-2.0	0	0	968.2	NA	0.0000	-SN	9999	0	0	0	3540
2019/05/18 04:02:01	BASE	4.62	342	5.20	340	-2.0	100	-2.0	0	0	968.1	NA	0.0000	-SN	9999	0	0	0	3610
2019/05/18 04:03:01	BASE	4.43	344	5.20	340	-2.0	100	-2.0	0	0	968.1	NA	0.0000	-SN	9999	0	0	0	3580
2019/05/18 04:04:01	BASE	4.37	345	5.20	340	-2.0	100	-2.0	0	0	968.1	NA	0.0000	-SN	9999	0	0	0	3740
2019/05/18 04:06:00	BASE	4.22	343	5.20	340	-2.0	100	-2.0	0	0	968.1	NA	0.0000	-SN	9999	0	0	0	3970
2019/05/18 04:07:00	BASE	4.08	341	5.20	340	-2.0	100	-2.0	0	0	968.0	NA	0.0000	-SN	6000	0	0	0	4000
2019/05/18 04:08:00	BASE	4.21	339	5.20	340	-2.0	100	-2.0	0	0	968.0	NA	0.0000	-SN	5000	0	0	0	3970
2019/05/18 04:09:00	BASE	4.13	342	5.20	340	-2.0	100	-2.0	0	0	968.0	NA	0.0000	-SN BR	5000	0	0	0	3970
2019/05/18 04:10:00	BASE	4.09	346	5.20	340	-2.0	100	-2.0	0	0	968.0	NA	0.0000	-SN BR	8000	0	0	0	3940
2019/05/18 04:11:00	BASE	4.07	349	5.04	342	-2.0	100	-2.0	0	0	967.9	NA	0.0000	-SN BR	9999	0	0	0	3840
2019/05/18 04:12:00	BASE	4.00	346	5.04	342	-2.0	100	-2.0	0	0	967.9	NA	0.0000	-SN BR	7000	0	0	0	3710
2019/05/18 04:13:00	BASE	3.97	348	5.04	342	-2.0	100	-2.0	0	0	967.9	NA	0.0000	-SN BR	8000	0	0	0	3510
2019/05/18 04:14:00	BASE	4.00	358	5.04	342	-2.0	100	-2.0	0	0	967.9	NA	0.0000	-SN BR	9000	0	0	0	3380
2019/05/18 04:15:00	BASE	4.11	2	4.68	336	-2.0	100	-2.0	0	0	967.9	NA	0.0000	-SN BR	7000	0	0	0	3020
2019/05/18 04:16:00	BASE	4.19	358	4.68	336	-2.1	100	-2.1	0	0	967.9	NA	0.0000	-SN BR	9999	0	0	0	2760
2019/05/18 04:17:00	BASE	4.27	353	4.68	295	-2.1	100	-2.1	0	0	967.9	NA	0.0000	-SN BR	5000	0	0	0	2620
2019/05/18 04:18:00	BASE	4.56	352	5.09	348	-2.1	100	-2.1	0	0	967.9	NA	0.0000	-SN BR	6000	260	0	0	0
2019/05/18 04:19:00	BASE	4.77	349	5.09	348	-2.1	100	-2.1	0	0	967.9	NA	0.0000	-SN BR	9999	260	0	0	0
2019/05/18 04:20:00	BASE	4.69	347	5.09	348	-2.1	100	-2.1	0	0	967.9	NA	0.0000	-SN BR	9999	0	0	0	2490
2019/05/18 04:21:00	BASE	4.60	348	5.09	348	-2.1	100	-2.1	0	0	967.9	NA	0.0000	-SN BR	9999	0	0	0	2560
2019/05/18 04:22:00	BASE	4.47	348	5.09	348	-2.1	100	-2.1	0	0	967.9	NA	0.0000	-SN BR	8000	0	0	0	2590
2019/05/18 04:23:00	BASE	4.16	348	5.09	348	-2.1	100	-2.1	0	0	967.9	NA	0.0000	-SN BR	5000	0	0	0	2620
2019/05/18 04:24:00	BASE	3.82	345	5.09	348	-2.1	100	-2.1	0	0	967.8	NA	0.0000	-SN BR	9999	0	0	0	2690
2019/05/18 04:25:00	BASE	3.47	343	5.09	348	-2.1	100	-2.1	0	0	967.8	NA	0.0000	-SN BR	3500	0	0	0	2720
2019/05/18 04:26:00	BASE	3.24	345	5.09	348	-2.1	100	-2.1	0	0	967.8	NA	0.0000	-SN BR	4500	0	0	0	2850
2019/05/18 04:27:00	BASE	3.02	347	5.09	348	-2.1	100	-2.1	0	0	967.8	NA	0.0000	-SN BR	3700	0	0	0	3050
2019/05/18 04:28:00	BASE	2.83	349	5.04	355	-2.1	100	-2.1	0	0	967.8	NA	0.0000	-SN BR	3400	0	0	0	3120
2019/05/18 04:29:00	BASE	2.74	353	5.04	355	-2.1	100	-2.1	0	0	967.8	NA	0.0000	-SN BR	2600	0	0	0	3150
2019/05/18 04:30:00	BASE	2.82	359	4.73	304	-2.1	100	-2.1	0	0	967.8	NA	0.0000	-SN BR	2500	0	0	0	3080
2019/05/18 04:31:00	BASE	3.08	2	4.48	350	-2.1	100	-2.1	0	0	967.8	NA	0.0000	-SN BR	4100	0	0	0	2850
2019/05/18 04:32:00	BASE	3.13	1	4.22	348	-2.1	100	-2.1	0	0	967.8	NA	0.0000	-SN BR	5000	0	0	0	2760
2019/05/18 04:33:00	BASE	2.96	359	3.96	345	-2.1	100	-2.1	0	0	967.8	NA	0.0000	-SN BR	6000	0	0	0	2590
2019/05/18 04:34:00	BASE	2.79	2	3.70	343	-2.1	100	-2.1	0	0	967.8	NA	0.0000	-SN BR	4200	0	0	0	2490
2019/05/18 04:35:00	BASE	2.54	6	3.40	360	-2.1	100	-2.1	0	0	967.8	NA	0.0000	-SN BR	3700	0	0	0	2360
2019/05/18 04:36:00	BASE	2.37	2	3.40	360	-2.1	100	-2.1	0	0	967.8	NA	0.0000	-SN BR	3400	0	0	0	2200
2019/05/18 04:37:00	BASE	2.47	354	3.40	360	-2.1	100	-2.1	0	0	967.8	NA	0.0000	-SN BR	3800	0	0	0	2070
2019/05/18 04:38:00	BASE	2.84	352	3.60	355	-2.1	100	-2.1	0	0	967.7	NA	0.0000	-SN BR	3700	260	0	0	0
2019/05/18 04:39:00	BASE	3.26	352	3.60	355	-2.1	100	-2.1	0	0	967.7	NA	0.0000	-SN BR	3700	0	0	0	2000
2019/05/18 04:40:00	BASE	3.23	350	3.60	355	-2.1	100	-2.1	0	0	967.7	NA	0.0000	-SN BR	3100	0	0	0	1970
2019/05/18 04:41:00	BASE	2.77	347	3.60	355	-2.1	100	-2.1	0	0	967.7	NA	0.0000	-SN BR	3100	0	0	0	2070
2019/05/18 04:42:00	BASE	2.43	346	3.60	355	-2.1	100	-2.1	0	0	967.7	NA	0.0000	-SN BR	2900	0	0	0	2260
2019/05/18 04:43:00	BASE	2.13	355	3.60	355	-2.1	100	-2.1	0	0	967.7	NA	0.0000	-SN BR	2600	0	0	0	2360
2019/05/18 04:44:00	BASE	1.70	1	3.60	355	-2.1	100	-2.1	0	0	967.7	NA	0.0000	-SN BR	3200	0	0	0	2490
2019/05/18 04:45:00	BASE	1.42	6	3.60	355	-2.1	100	-2.1	0	0	967.7	NA	0.0000	-SN BR	3000	0	0	0	2490
2019/05/18 04:46:00	BASE	2.00	13	3.60	355	-2.1	100	-2.1	0	0	967.7	NA	0.0000	-SN BR	2100	0	0	0	2530
2019/05/18 04:47:00	BASE	2.95	9	3.60	355	-2.1	100	-2.1	0	0	967.7	NA	0.0000	-SN BR	2800	0	0	0	2560
2019/05/18 04:48:00	BASE	3.01	3	3.55	354	-2.0	100	-2.0	0	0	967.7	NA	0.0000	-SN BR	3800	0	0	0	2530
2019/05/18 04:49:00	BASE	2.92	354	3.50	3	-2.0	100	-2.0	0	0	967.7	NA	0.0000	-SN BR	3600	0	0	0	2490
2019/05/18 04:50:00	BASE	2.92	349	3.50	3	-2.0	100	-2.0	0	0	967.7	NA	0.0000	-SN BR	4500	0	0	0	2490
2019/05/18 04:51:00	BASE	2.81	349	3.50	3	-2.0	100	-2.0	0	0	967.7	NA	0.0000	-SN BR	3400	0	0	0	2490
2019/05/18 04:52:00	BASE	2.56	348	3.50	3	-2.0	100	-2.0	0	0	967.7	NA	0.0000	-SN BR	4600	0	0	0	2490
2019/05/18 04:53:00	BASE	2.16	345	3.50	3	-2.0	100	-2.0	0	0	967.7	NA	0.0000	-SN BR	3800	0	0	0	2460
2019/05/18 04:54:00	BASE	2.04	344	3.50	3	-2.0	100	-2.0	0	0	967.8	NA	0.0000	-SN BR	3700	0	0	0	2330
2019/05/18 04:55:00	BASE	2.18	348	3.50	3	-2.0	100	-2.0	0	0	967.8	NA	0.0000	-SN BR	3800	0	0	0	2230
2019/05/18 04:56:00	BASE	2.39	350	3.50	3	-2.0	100	-2.0	0	0	967.7	NA	0.0000	-SN BR	4600	0	0	0	2300
2019/05/18 04:57:00	BASE	2.28	347	3.29	3	-2.0	100	-2.0	0	0	967.7	NA	0.0000	-SN BR	3500	0	0	0	2260
2019/05/18 04:58:00	BASE	2.24	347	3.19	352	-1.9	100	-1.9	0	0	967.7	NA	0.0000	-SN BR	3700	0	0	0	2170
2019/05/18 04:59:00	BASE	2.51	350	3.09	6	-1.9	100	-1.9	0	0	967.7	NA	0.0000	-SN BR	3800	0	0	0	2130
2019/05/18 05:00:00	BASE	2.58	350	3.09	6	-1.9	100	-1.9	0	0	967.7	NA	0.0000	-SN BR	3800	0	0	0	2100
2019/05/18 05:01:00	BASE	2.57	345	2.78	345	-1.9	100	-1.9	0	0	967.7	NA	0.0000	-SN BR	3800	0	0	0	2030
2019/05/18 05:02:00	BASE	2.40	342	2.78	345	-1.9	100	-1.9	0	0	967.7	NA	0.0000	-SN BR	3100	0	0	0	1970
2019/05/18 05:03:00	BASE	2.19	341	2.78	345	-1.9	100	-1.9	0	0	967.7	NA	0.0000	-SN BR	3100	0	0	0	1940
2019/05/18 05:04:00	BASE	2.27	343	2.78	345	-1.9	100	-1.9	0	0	967.7	NA	0.0000	-SN BR	3000	0	0	0	1940
2019/05/18 05:05:00	BASE	2.16	344	2.78	345	-1.9	100	-1.9	0	0	967.7	NA	0.0000	-SN BR	2600	0	0	0	2030
2019/05/18 05:06:00	BASE	1.92	341	2.78	345	-1.9	100	-1.9	0	0	967.7	NA	0.0000	-SN BR	2200	0	0	0	2030
2019/05/18 05:07:00	BASE	1.70	342	2.78	345	-1.9	100	-1.9	0	0	967.7	NA	0.0000	-SN BR	2900	0	0	0	2100
2019/05/18 05:08:00	BASE	1.14	351	2.78	345	-1.9	100	-1.9	0	0	967.7	NA	0.0000	-SN BR	3400	0	0	0	2130
2019/05/18 05:09:00	BASE	0.39	342	2.73	346	-1.9	100	-1.9	0	0	967.7	NA	0.0000	-SN BR	2800	0	0	0	2170
2019/05/18 05:10:00	BASE	0.13	334	2.73	346	-2.0	100	-2.0	0	0	967.7	NA	0.0000	-SN BR	3400	0	0	0	2200
2019/05/18 05:11:00	BASE	0.58	337	2.62	348	-2.0	100	-2.0	0	0	967.7	NA	0.0000	-SN BR	2900	0	0	0	2200
2019/05/18 05:12:00	BASE	0.87	339	2.62	348	-2.0	100	-2.0	0	0	967.7	NA	0.0000	-SN BR	4000	0	0	0	2170
2019/05/18 05:13:00	BASE	1.13	345	2.62	348	-2.0	100	-2.0	0	0	967.7	NA	0.0000	-SN BR	3500	0	0	0	2130
2019/05/18 05:14:00	BASE	1.41	353	2.21	350	-2.0	100	-2.0	0	0	967.6	NA	0.0000	-SN BR	2700	0	0	0	2070
2019/05/18 05:15:00	BASE	1.39	355	2.06	341	-2.0	100	-2.0	0	0	967.5	NA	0.0000	-SN BR	3400	0	0	0	2000
2019/05/18 05:16:00	BASE	1.32	352	1.85	343	-2.0	100	-2.0	0	0	967.5	NA	0.0000	-SN BR	4000	0	0	0	2070
2019/05/18 05:17:00	BASE	1.15	352	1.59	354	-2.0	100	-2.0	0	0	967.5	NA	0.0000	-SN BR	2700	0	0	0	2130
2019/05/18 05:18:00	BASE	0.85	350	1.59	354	-2.0	100	-2.0	0	0	967.5	NA	0.0000	-SN BR	3300	0	0	0	2130
2019/05/18 05:19:00	BASE	0.95	348	1.59	354	-2.0	100	-2.0	0	0	967.5	NA	0.0000	-SN BR	2500	0	0	0	2200
2019/05/18 05:20:00	BASE	1.22	348	1.59	354	-2.0	100	-2.0	0	0	967.5	NA	0.0000	-SN BR	2900	0	0	0	2230
2019/05/18 05:21:00	BASE	1.23	349	1.59	354	-2.0	100	-2.0	0	0	967.5	NA	0.0000	-SN BR	3600	0	0	0	2260
2019/05/18 05:22:00	BASE	1.31	349	1.59	354	-2.0	100	-2.0	0	0	967.5	NA	0.0000	-SN BR	3600	0	0	0	2330
2019/05/18 05:23:00	BASE	1.50	350	1.80	360	-2.0	100	-2.0	0	0	967.5	NA	0.0000	-SN BR	3600	0	0	0	2330
2019/05/18 05:24:00	BASE	1.74	351	2.01	350	-2.0	100	-2.0	0	0	967.5	NA	0.0000	-SN BR	2800	0	0	0	2430
2019/05/18 05:25:00	BASE	1.87	350	2.01	350	-2.0	100	-2.0	0	0	967.5	NA	0.0000	-SN BR	3400	0	0	0	2560
2019/05/18 05:26:00	BASE	1.82	349	2.01	350	-2.0	100	-2.0	0	0	967.5	NA	0.0000	-SN BR	3700	0	0	0	2590
2019/05/18 05:27:00	BASE	1.71	346	2.01	350	-2.0	100	-2.0	0	0	967.5	NA	0.0000	-SN BR	5000	0	0	0	3710
2019/05/18 05:28:00	BASE	1.48	344	2.01	350	-2.0	100	-2.0	0	0	967.5	NA	0.0000	-SN BR	3500	0	0	0	3580
2019/05/18 05:29:00	BASE	1.30	344	2.01	350	-2.0	100	-2.0	0	0	967.5	NA	0.0000	-SN BR	3500	0	0	0	3480
2019/05/18 05:30:00	BASE	1.35	344	2.01	350	-2.0	100	-2.0	0	0	967.5	NA	0.0000	-SN BR	4200	0	0	0	3350
2019/05/18 05:31:00	BASE	1.49	344	2.01	350	-2.0	100	-2.0	0	0	967.5	NA	0.0000	-SN BR	3200	0	0	0	3180
2019/05/18 05:32:00	BASE	1.46	340	2.01	350	-2.0	100	-2.0	0	0	967.5	NA	0.0000	-SN BR	3700	0	0	0	2890
2019/05/18 05:33:00	BASE	1.40	338	2.01	350	-2.0	100	-2.0	0	0	967.5	NA	0.0000	-SN BR	3800	0	0	0	2660
2019/05/18 05:34:00	BASE	1.41	338	1.95	349	-2.0	100	-2.0	0	0	967.5	NA	0.0000	-SN BR	3800	1310	0	0	0
2019/05/18 05:35:00	BASE	1.33	334	1.95	349	-2.0	100	-2.0	0	0	967.5	NA	0.0000	-SN BR	3500	1840	0	0	0
2019/05/18 05:36:00	BASE	1.17	330	1.85	343	-2.0	100	-2.0	0	0	967.5	NA	0.0000	-SN BR	4800	720	0	0	0
2019/05/18 05:37:00	BASE	0.75	328	1.65	343	-2.0	100	-2.0	0	0	967.5	NA	0.0000	-SN BR	3400	390	0	0	0
2019/05/18 05:38:00	BASE	0.22	325	1.65	343	-2.0	100	-2.0	0	0	967.5	NA	0.0000	-SN BR	5000	330	0	0	0
2019/05/18 05:39:00	BASE	0.18	319	1.65	343	-2.0	100	-2.0	0	0	967.5	NA	0.0000	-SN BR	4400	230	0	0	0
2019/05/18 05:40:00	BASE	0.78	315	1.65	343	-2.0	100	-2.0	0	0	967.5	NA	0.0000	-SN BR	3600	0	0	0	1570
2019/05/18 05:41:00	BASE	1.18	316	1.54	334	-2.0	100	-2.0	0	0	967.5	NA	0.0000	-SN BR	2800	0	0	0	1540
2019/05/18 05:42:00	BASE	1.17	319	1.54	334	-2.0	100	-2.0	0	0	967.5	NA	0.0000	-SN BR	3600	0	0	0	1540
2019/05/18 05:43:00	BASE	0.90	321	1.54	334	-2.0	100	-2.0	0	0	967.5	NA	0.0000	-SN BR	3600	0	0	0	1670
2019/05/18 05:44:00	BASE	0.32	318	1.54	334	-2.0	100	-2.0	0	0	967.5	NA	0.0000	-SN BR	2800	0	0	0	1870
2019/05/18 05:45:00	BASE	0.00	315	1.34	316	-2.0	100	-2.0	0	0	967.5	NA	0.0000	-SN BR	3400	0	0	0	2300
2019/05/18 05:46:00	BASE	0.04	317	1.34	316	-2.0	100	-2.0	0	0	967.5	NA	0.0000	-SN BR	3300	0	0	0	2820
2019/05/18 05:47:00	BASE	0.04	319	1.34	316	-2.0	100	-2.0	0	0	967.4	NA	0.0000	-SN BR	3600	0	0	0	2790
2019/05/18 05:48:00	BASE	0.00	319	1.34	316	-2.0	100	-2.0	0	0	967.4	NA	0.0000	-SN BR	4000	0	0	0	2690
2019/05/18 05:49:00	BASE	0.00	317	1.34	316	-2.0	100	-2.0	0	0	967.4	NA	0.0000	-SN BR	4600	0	0	0	2530
2019/05/18 05:50:00	BASE	0.00	314	1.29	316	-2.0	100	-2.0	0	0	967.4	NA	0.0000	-SN BR	5000	0	0	0	2330
2019/05/18 05:51:00	BASE	0.00	310	1.18	321	-2.0	100	-2.0	0	0	967.4	NA	0.0000	-SN BR	5000	0	0	0	2200
2019/05/18 05:52:00	BASE	0.00	288	1.13	321	-2.0	100	-2.0	0	0	967.3	NA	0.0000	-SN BR	3900	0	0	0	2130
2019/05/18 05:53:00	BASE	0.00	256	1.03	319	-2.0	100	-2.0	0	0	967.4	NA	0.0000	-SN BR	3400	0	0	0	2030
2019/05/18 05:54:00	BASE	0.00	243	1.03	319	-2.0	100	-2.0	0	0	967.4	NA	0.0000	-SN BR	3800	0	0	0	1900
2019/05/18 05:55:00	BASE	0.00	239	1.03	319	-2.0	100	-2.0	0	0	967.4	NA	0.0000	-SN BR	3300	0	0	0	1840
2019/05/18 05:56:00	BASE	0.00	237	M	M	-2.0	100	-2.0	0	0	967.4	NA	0.0000	-SN BR	3300	0	0	0	1740
2019/05/18 05:57:00	BASE	0.00	237	M	M	-2.1	100	-2.1	0	0	967.4	NA	0.0000	-SN BR	3400	0	0	0	1640
2019/05/18 05:58:00	BASE	0.00	240	M	M	-2.1	100	-2.1	0	0	967.4	NA	0.0000	-SN BR	3500	260	0	0	0
2019/05/18 05:59:00	BASE	0.00	247	M	M	-2.1	100	-2.1	0	0	967.4	NA	0.0000	-SN BR	3200	0	0	0	1510
2019/05/18 06:00:00	BASE	0.00	258	M	M	-2.1	100	-2.1	0	0	967.3	NA	0.0000	-SN BR	3000	0	0	0	1440
2019/05/18 06:01:00	BASE	0.05	271	1.08	279	-2.1	100	-2.1	0	0	967.3	NA	0.0000	-SN BR	2900	0	0	0	1510
2019/05/18 06:02:00	BASE	0.09	278	1.08	279	-2.1	100	-2.1	0	0	967.3	NA	0.0000	-SN BR	2700	0	0	0	1510
2019/05/18 06:03:00	BASE	0.04	279	1.08	279	-2.1	100	-2.1	0	0	967.3	NA	0.0000	-SN BR	2700	0	0	0	1640
2019/05/18 06:04:00	BASE	0.00	281	1.08	279	-2.1	100	-2.1	0	0	967.3	NA	0.0000	-SN BR	2200	0	0	0	1710
2019/05/18 06:05:00	BASE	0.09	294	1.08	305	-2.0	100	-2.0	0	0	967.3	NA	0.0000	-SN BR	2800	0	0	0	2100
2019/05/18 06:06:00	BASE	0.13	308	1.08	314	-2.0	100	-2.0	0	0	967.3	NA	0.0000	-SN BR	3300	0	0	0	2100
2019/05/18 06:07:00	BASE	0.05	313	1.08	314	-2.0	100	-2.0	0	0	967.3	NA	0.0000	-SN BR	2900	0	0	0	2360
2019/05/18 06:08:00	BASE	0.13	314	1.08	314	-2.0	100	-2.0	0	0	967.3	NA	0.0000	-SN BR	2600	0	0	0	2430
2019/05/18 06:09:00	BASE	0.40	314	1.13	314	-2.0	100	-2.0	0	0	967.3	NA	0.0000	-SN BR	3400	0	0	0	2430
2019/05/18 06:10:00	BASE	0.81	315	1.34	321	-2.0	100	-2.0	0	0	967.3	NA	0.0000	-SN BR	2900	0	0	0	2360
2019/05/18 06:11:00	BASE	1.29	324	1.75	339	-2.0	100	-2.0	0	0	967.3	NA	0.0000	-SN BR	3400	0	0	0	2360
2019/05/18 06:12:00	BASE	1.63	339	2.01	349	-2.0	100	-2.0	0	0	967.3	NA	0.0000	-SN BR	3800	0	0	0	2260
2019/05/18 06:13:00	BASE	1.94	349	2.21	351	-2.0	100	-2.0	0	0	967.3	NA	0.0000	-SN BR	3800	0	0	0	2300
2019/05/18 06:14:00	BASE	2.19	352	2.42	350	-2.0	100	-2.0	0	0	967.3	NA	0.0000	-SN BR	4200	0	0	0	2230
2019/05/18 06:15:00	BASE	2.20	350	2.42	350	-2.0	100	-2.0	0	0	967.3	NA	0.0000	-SN BR	3200	0	0	0	2100
2019/05/18 06:16:00	BASE	2.14	344	2.42	350	-2.0	100	-2.0	0	0	967.3	NA	0.0000	-SN BR	2100	0	0	0	2030
2019/05/18 06:17:00	BASE	2.17	340	2.42	350	-2.0	100	-2.0	0	0	967.3	NA	0.0000	-SN BR	2700	0	0	0	2000
2019/05/18 06:18:00	BASE	2.34	341	2.62	342	-2.0	100	-2.0	0	0	967.3	NA	0.0000	-SN BR	3200	0	0	0	2000
2019/05/18 06:19:00	BASE	2.56	344	2.78	344	-2.1	100	-2.1	0	0	967.3	NA	0.0000	-SN BR	3800	0	0	0	1940
2019/05/18 06:20:00	BASE	2.62	346	2.78	344	-2.1	100	-2.1	0	0	967.3	NA	0.0000	-SN BR	2200	0	0	0	1940
2019/05/18 06:21:00	BASE	2.47	345	2.78	344	-2.1	100	-2.1	0	0	967.3	NA	0.0000	-SN BR	2800	0	0	0	1940
2019/05/18 06:22:00	BASE	2.08	339	2.78	344	-2.1	100	-2.1	0	0	967.3	NA	0.0000	-SN BR	2900	0	0	0	2130
2019/05/18 06:23:00	BASE	1.72	335	2.78	344	-2.1	100	-2.1	0	0	967.3	NA	0.2540	-SN BR	2100	0	0	0	2690
2019/05/18 06:24:00	BASE	1.63	332	2.78	344	-2.1	100	-2.1	0	0	967.3	NA	0.0000	-SN BR	3600	0	0	0	2400
2019/05/18 06:25:00	BASE	1.51	328	2.78	344	-2.1	100	-2.1	0	0	967.3	NA	0.0000	-SN BR	2000	0	0	0	2530
2019/05/18 06:26:00	BASE	1.28	322	2.78	344	-2.1	100	-2.1	0	0	967.3	NA	0.0000	-SN BR	2300	0	0	0	2660
2019/05/18 06:27:00	BASE	1.15	313	2.78	344	-2.1	100	-2.1	0	0	967.3	NA	0.0000	-SN BR	1500	0	0	0	2430
2019/05/18 06:28:00	BASE	1.10	309	2.78	344	-2.1	100	-2.1	0	0	967.3	NA	0.0000	-SN BR	3200	0	0	0	2030
2019/05/18 06:29:00	BASE	0.90	308	2.78	344	-2.1	100	-2.1	0	0	967.3	NA	0.0000	-SN BR	3800	0	0	0	2400
2019/05/18 06:30:00	BASE	0.79	309	2.52	344	-2.1	100	-2.1	0	0	967.3	NA	0.0000	-SN BR	3100	0	0	0	1940
2019/05/18 06:31:00	BASE	1.00	311	2.06	334	-2.1	100	-2.1	0	0	967.3	NA	0.0000	-SN BR	2500	0	0	0	1840
2019/05/18 06:32:00	BASE	1.24	317	1.80	333	-2.1	100	-2.1	0	0	967.2	NA	0.0000	-SN BR	2500	0	0	0	1840
2019/05/18 06:33:00	BASE	1.39	323	1.75	327	-2.1	100	-2.1	0	0	967.2	NA	0.0000	-SN BR	2500	0	0	0	1840
2019/05/18 06:34:00	BASE	1.54	326	1.70	330	-2.1	100	-2.1	0	0	967.2	NA	0.0000	-SN BR	2400	0	0	0	1740
2019/05/18 06:35:00	BASE	1.73	327	2.06	324	-2.1	100	-2.1	0	0	967.2	NA	0.0000	-SN BR	2400	0	0	0	1570
2019/05/18 06:36:00	BASE	1.91	327	2.11	326	-2.1	100	-2.1	0	0	967.2	NA	0.0000	-SN BR	2600	0	0	0	1640
2019/05/18 06:37:00	BASE	1.93	329	2.11	326	-2.1	100	-2.1	0	0	967.2	NA	0.0000	-SN BR	2400	0	0	0	1770
2019/05/18 06:38:00	BASE	1.84	331	2.11	326	-2.1	100	-2.1	0	0	967.2	NA	0.0000	-SN BR	1800	0	0	0	1670
2019/05/18 06:39:00	BASE	1.69	334	2.11	326	-2.1	100	-2.1	0	0	967.2	NA	0.0000	-SN BR	2200	0	0	0	1840
2019/05/18 06:40:00	BASE	1.66	341	2.11	326	-2.1	100	-2.1	0	0	967.2	NA	0.0000	-SN BR	1300	0	0	0	2490
2019/05/18 06:41:00	BASE	1.84	344	2.21	341	-2.1	100	-2.1	0	0	967.2	NA	0.0000	-SN BR	2400	0	0	0	2760
2019/05/18 06:42:00	BASE	2.11	341	2.37	337	-2.1	100	-2.1	0	0	967.2	NA	0.0000	-SN BR	2700	0	0	0	2790
2019/05/18 06:43:00	BASE	2.24	338	2.37	337	-2.1	100	-2.1	0	0	967.2	NA	0.0000	-SN BR	2900	0	0	0	2760
2019/05/18 06:44:00	BASE	2.05	336	2.37	337	-2.1	100	-2.1	0	0	967.2	NA	0.0000	-SN BR	3800	0	0	0	2790
2019/05/18 06:45:00	BASE	1.65	337	2.37	337	-2.1	100	-2.1	0	0	967.2	NA	0.0000	-SN BR	3800	0	0	0	2790
2019/05/18 06:46:00	BASE	1.38	341	2.37	337	-2.1	100	-2.1	0	0	967.2	NA	0.0000	-SN BR	2500	390	0	0	0
2019/05/18 06:47:00	BASE	1.30	341	2.37	337	-2.1	100	-2.1	0	0	967.2	NA	0.0000	-SN BR	3500	0	0	0	2530
2019/05/18 06:48:00	BASE	1.32	341	2.37	337	-2.1	100	-2.1	0	0	967.2	NA	0.0000	-SN BR	2700	0	0	0	2620
2019/05/18 06:49:00	BASE	1.41	338	2.37	337	-2.1	100	-2.1	0	0	967.2	NA	0.0000	-SN BR	3800	0	0	0	2530
2019/05/18 06:50:00	BASE	1.55	333	2.37	337	-2.1	100	-2.1	0	0	967.1	NA	0.0000	-SN BR	3500	0	0	0	2620
2019/05/18 06:51:00	BASE	1.72	332	2.37	337	-2.1	100	-2.1	0	0	967.1	NA	0.0000	-SN BR	3500	0	0	0	2590
2019/05/18 06:52:00	BASE	1.77	334	2.31	334	-2.1	100	-2.1	0	0	967.1	NA	0.0000	-SN BR	2900	0	0	0	2590
2019/05/18 06:53:00	BASE	1.68	336	2.11	335	-2.2	100	-2.2	0	0	967.1	NA	0.0000	-SN BR	3100	0	0	0	2790
2019/05/18 06:54:00	BASE	1.63	334	1.95	332	-2.2	100	-2.2	0	0	967.1	NA	0.0000	-SN BR	2600	0	0	0	2820
2019/05/18 06:55:00	BASE	1.64	332	1.95	332	-2.2	100	-2.2	0	0	967.1	NA	0.0000	-SN BR	3100	0	0	0	2720
2019/05/18 06:56:00	BASE	1.67	336	1.95	332	-2.2	100	-2.2	0	0	967.1	NA	0.0000	-SN BR	3400	0	0	0	2720
2019/05/18 06:57:00	BASE	1.69	343	1.95	332	-2.2	100	-2.2	0	0	967.1	NA	0.0000	-SN BR	3200	0	0	0	2690
2019/05/18 06:58:00	BASE	1.58	350	1.95	332	-2.2	100	-2.2	0	0	967.1	NA	0.0000	-SN BR	3800	0	0	0	2850
2019/05/18 06:59:01	BASE	1.40	359	1.95	332	-2.2	100	-2.2	0	0	967.1	NA	0.0000	-SN BR	2900	0	0	0	2890
2019/05/18 07:00:00	BASE	1.34	3	1.95	332	-2.2	100	-2.2	0	0	967.1	NA	0.0000	-SN BR	2500	0	0	0	2920
2019/05/18 07:01:00	BASE	1.41	1	1.90	332	-2.2	100	-2.2	0	0	967.1	NA	0.0000	-SN BR	2500	0	0	0	2790
2019/05/18 07:02:00	BASE	1.57	360	1.85	354	-2.2	100	-2.2	0	0	967.1	NA	0.0000	-SN BR	2500	0	0	0	2760
2019/05/18 07:03:00	BASE	1.76	357	1.95	355	-2.2	100	-2.2	0	0	967.0	NA	0.0000	-SN BR	3200	0	0	0	2790
2019/05/18 07:04:00	BASE	2.01	355	2.31	351	-2.2	100	-2.2	0	0	967.0	NA	0.0000	-SN BR	3400	0	0	0	2690
2019/05/18 07:05:00	BASE	2.32	352	2.62	350	-2.2	100	-2.2	0	0	967.0	NA	0.0000	-SN BR	2700	0	0	0	2590
2019/05/18 07:06:00	BASE	2.62	350	2.98	350	-2.2	100	-2.2	0	0	967.0	NA	0.0000	-SN BR	2900	0	0	0	2460
2019/05/18 07:07:00	BASE	2.84	350	2.98	352	-2.1	100	-2.1	0	0	967.0	NA	0.0000	-SN BR	3700	0	0	0	2530
2019/05/18 07:08:00	BASE	2.82	355	2.98	352	-2.1	100	-2.1	0	0	967.0	NA	0.0000	-SN BR	4100	0	0	0	2430
2019/05/18 07:09:00	BASE	2.47	0	2.98	352	-2.1	100	-2.1	0	0	967.0	NA	0.0000	-SN BR	3300	0	0	0	2530
2019/05/18 07:10:00	BASE	2.03	5	2.98	352	-2.1	100	-2.1	0	0	967.0	NA	0.0000	-SN BR	2700	0	0	0	2560
2019/05/18 07:11:00	BASE	1.72	9	2.98	352	-2.1	100	-2.1	0	0	967.0	NA	0.0000	-SN BR	3100	0	0	0	2400
2019/05/18 07:12:00	BASE	1.68	9	2.98	352	-2.1	100	-2.1	0	0	967.0	NA	0.0000	-SN BR	2700	0	0	0	2460
2019/05/18 07:13:00	BASE	1.84	8	2.98	352	-2.1	100	-2.1	0	0	967.0	NA	0.0000	-SN BR	2500	0	0	0	2430
2019/05/18 07:14:00	BASE	2.06	9	2.98	352	-2.1	100	-2.1	0	0	967.0	NA	0.0000	-SN BR	2400	0	0	0	2690
2019/05/18 07:15:00	BASE	2.20	9	2.98	352	-2.1	100	-2.1	0	0	966.9	NA	0.0000	-SN BR	2700	0	0	0	2690
2019/05/18 07:16:00	BASE	2.18	6	2.98	352	-2.1	100	-2.1	0	0	966.9	NA	0.0000	-SN BR	3000	0	0	0	2850
2019/05/18 07:17:00	BASE	2.26	359	2.88	354	-2.1	100	-2.1	0	0	966.8	NA	0.0000	-SN BR	3100	0	0	0	2850
2019/05/18 07:18:00	BASE	2.51	349	2.78	346	-2.1	100	-2.1	0	0	966.8	NA	0.0000	-SN BR	3600	0	0	0	2820
2019/05/18 07:19:00	BASE	2.69	344	2.98	343	-2.1	100	-2.1	0	0	966.8	NA	0.0000	-SN BR	3700	0	0	0	2790
2019/05/18 07:20:00	BASE	2.82	342	3.09	343	-2.1	100	-2.1	0	0	966.8	NA	0.0000	-SN BR	3500	0	0	0	2720
2019/05/18 07:21:00	BASE	2.96	343	3.19	346	-2.1	100	-2.1	0	0	966.8	NA	0.0000	-SN BR	3900	0	0	0	2690
2019/05/18 07:22:00	BASE	3.08	348	3.24	346	-2.1	100	-2.1	0	0	966.8	NA	0.0000	-SN BR	4900	0	0	0	2620
2019/05/18 07:23:00	BASE	3.13	358	3.24	4	-2.1	100	-2.1	0	0	966.8	NA	0.0000	-SN BR	5000	0	0	0	2560
2019/05/18 07:24:00	BASE	3.18	4	3.34	4	-2.1	100	-2.1	0	0	966.8	NA	0.0000	-SN BR	5000	0	0	0	2360
2019/05/18 07:25:00	BASE	3.08	7	3.34	4	-2.1	100	-2.1	0	0	966.8	NA	0.0000	-SN BR	5000	0	0	0	2360
2019/05/18 07:26:00	BASE	2.61	7	3.34	4	-2.1	100	-2.1	0	0	966.8	NA	0.0000	-SN BR	4400	0	0	0	2330
2019/05/18 07:27:00	BASE	2.10	9	3.34	4	-2.1	100	-2.1	0	0	966.8	NA	0.0000	-SN BR	4100	0	0	0	2360
2019/05/18 07:28:00	BASE	2.13	10	3.34	4	-2.1	100	-2.1	0	0	966.8	NA	0.0000	-SN BR	3900	0	0	0	2200
2019/05/18 07:29:00	BASE	2.46	5	3.34	4	-2.1	100	-2.1	0	0	966.8	NA	0.0000	-SN BR	3800	0	0	0	2330
2019/05/18 07:30:00	BASE	2.54	355	3.34	4	-2.1	100	-2.1	0	0	966.8	NA	0.0000	-SN BR	4200	0	0	0	2330
2019/05/18 07:31:00	BASE	2.57	348	3.34	4	-2.1	100	-2.1	0	0	966.8	NA	0.0000	-SN BR	4500	0	0	0	2460
2019/05/18 07:32:00	BASE	2.78	354	3.34	4	-2.1	100	-2.1	0	0	966.8	NA	0.0000	-SN BR	5000	0	0	0	2720
2019/05/18 07:33:00	BASE	2.72	353	3.34	4	-2.1	100	-2.1	0	0	966.8	NA	0.0000	-SN BR	5000	0	0	0	2660
2019/05/18 07:34:00	BASE	2.61	348	3.24	354	-2.1	100	-2.1	0	0	966.8	NA	0.0000	-SN BR	6000	0	0	0	2850
2019/05/18 07:35:00	BASE	2.55	347	3.24	354	-2.1	100	-2.1	0	0	966.8	NA	0.0000	-SN BR	6000	0	0	0	2890
2019/05/18 07:36:00	BASE	2.27	344	3.24	354	-2.1	100	-2.1	0	0	966.8	NA	0.0000	-SN BR	6000	0	0	0	3120
2019/05/18 07:37:00	BASE	1.90	344	3.24	354	-2.1	100	-2.1	0	0	966.9	NA	0.2540	-SN BR	6000	0	0	0	3450
2019/05/18 07:38:01	BASE	1.22	346	3.24	354	-2.1	100	-2.1	0	0	966.9	NA	0.0000	-SN BR	6000	0	0	0	3410
2019/05/18 07:39:00	BASE	0.78	339	3.24	354	-2.1	100	-2.1	0	0	966.9	NA	0.0000	-SN BR	7000	0	0	0	3540
2019/05/18 07:40:00	BASE	1.06	332	3.24	354	-2.1	100	-2.1	0	0	967.0	NA	0.0000	-SN BR	9000	0	0	0	3710
2019/05/18 07:41:00	BASE	1.43	335	3.24	354	-2.1	100	-2.1	0	0	967.0	NA	0.0000	-SN BR	9000	0	0	0	3810
2019/05/18 07:42:01	BASE	1.41	337	2.83	344	-2.1	100	-2.1	0	0	967.0	NA	0.0000	-SN BR	8000	0	0	0	3870
2019/05/18 07:43:00	BASE	1.36	345	2.83	344	-2.1	100	-2.1	0	0	967.0	NA	0.0000	-SN BR	9999	0	0	0	3770
2019/05/18 07:44:00	BASE	1.63	351	2.62	349	-2.1	100	-2.1	0	0	967.0	NA	0.0000	-SN BR	9999	0	0	0	3640
2019/05/18 07:45:00	BASE	1.81	344	2.26	344	-2.1	100	-2.1	0	0	967.0	NA	0.0000	-SN BR	9999	0	0	0	3510
2019/05/18 07:46:00	BASE	1.95	330	2.37	314	-2.1	100	-2.1	0	0	967.0	NA	0.0000	-SN BR	9999	0	0	0	3380
2019/05/18 07:47:00	BASE	2.35	315	3.09	302	-2.1	100	-2.1	0	0	967.0	NA	0.0000	-SN BR	9999	0	0	0	3020
2019/05/18 07:48:00	BASE	2.93	305	3.34	303	-2.1	100	-2.1	0	0	967.0	NA	0.0000	-SN BR	9999	0	0	0	2820
2019/05/18 07:49:00	BASE	3.09	302	3.34	303	-2.1	100	-2.1	0	0	967.0	NA	0.0000	-SN	9999	0	0	0	2850
2019/05/18 07:50:00	BASE	2.71	307	3.34	303	-2.1	100	-2.1	0	0	967.0	NA	0.0000	-SN	9999	0	0	0	2690
2019/05/18 07:51:00	BASE	2.12	316	3.34	303	-2.1	100	-2.1	0	0	967.0	NA	0.0000	-SN	9999	0	0	0	2690
2019/05/18 07:52:00	BASE	1.34	327	3.34	303	-2.1	100	-2.1	0	0	967.0	NA	0.0000	-SN	6000	0	0	0	2530
2019/05/18 07:53:01	BASE	1.22	333	3.34	303	-2.1	100	-2.1	0	0	967.1	NA	0.0000	-SN BR	5000	0	0	0	2460
2019/05/18 07:54:00	BASE	1.70	329	3.34	303	-2.1	100	-2.1	0	0	967.1	NA	0.0000	-SN BR	4400	0	0	0	2360
2019/05/18 07:55:00	BASE	2.11	316	3.34	303	-2.1	100	-2.1	0	0	967.1	NA	0.0000	-SN BR	3900	0	0	0	2430
2019/05/18 07:56:00	BASE	2.48	302	3.34	303	-2.1	100	-2.1	0	0	967.1	NA	0.0000	-SN BR	5000	0	0	0	2330
2019/05/18 07:57:00	BASE	2.41	295	3.34	303	-2.1	100	-2.1	0	0	967.1	NA	0.0000	-SN BR	7000	0	0	0	2170
2019/05/18 07:58:00	BASE	2.01	295	3.29	302	-2.1	100	-2.1	0	0	967.1	NA	0.0000	-SN BR	6000	0	0	0	2230
2019/05/18 07:59:00	BASE	1.43	268	3.19	288	-2.1	100	-2.1	0	0	967.1	NA	0.0000	-SN BR	4300	0	0	0	2170
2019/05/18 08:00:00	BASE	0.51	242	3.19	288	-2.1	100	-2.1	0	0	967.1	NA	0.0000	-SN BR	4600	0	0	0	2100
2019/05/18 08:01:00	BASE	0.13	264	3.19	288	-2.1	100	-2.1	0	0	967.1	NA	0.0000	-SN BR	5000	0	0	0	2170
2019/05/18 08:02:00	BASE	1.05	288	3.19	288	-2.0	100	-2.0	0	0	967.1	NA	0.0000	-SN BR	6000	0	0	0	2100
2019/05/18 08:03:01	BASE	1.74	291	3.19	288	-2.0	100	-2.0	0	0	967.1	NA	0.0000	-SN BR	7000	0	0	0	2130
2019/05/18 08:04:01	BASE	1.71	283	3.19	288	-2.0	100	-2.0	0	0	967.1	NA	0.0000	-SN BR	7000	0	0	0	2130
2019/05/18 08:05:01	BASE	1.74	277	3.19	288	-2.0	100	-2.0	0	0	967.1	NA	0.0000	-SN BR	6000	0	0	0	2170
2019/05/18 08:06:01	BASE	1.55	266	2.62	306	-2.0	100	-2.0	0	0	967.1	NA	0.0000	-SN BR	5000	0	0	0	2170
2019/05/18 08:07:01	BASE	1.33	254	2.11	305	-2.0	100	-2.0	0	0	967.1	NA	0.0000	-SN BR	5000	0	0	0	2330
2019/05/18 08:08:00	BASE	1.31	249	2.06	286	-2.0	100	-2.0	0	0	967.1	NA	0.0000	-SN BR	5000	0	0	0	2490
2019/05/18 08:09:00	BASE	1.48	249	2.06	286	-2.0	100	-2.0	0	0	967.0	NA	0.0000	-SN BR	6000	0	0	0	2530
2019/05/18 08:10:00	BASE	1.81	247	2.21	247	-2.0	100	-2.0	0	0	967.0	NA	0.0000	-SN BR	6000	0	0	0	2530
2019/05/18 08:11:00	BASE	2.18	246	2.42	248	-2.0	100	-2.0	0	0	967.0	NA	0.0000	-SN BR	5000	0	0	0	2590
2019/05/18 08:12:00	BASE	2.25	251	2.42	248	-2.0	100	-2.0	0	0	967.0	NA	0.0000	-SN BR	6000	0	0	0	3640
2019/05/18 08:13:00	BASE	2.13	255	2.42	248	-2.0	100	-2.0	0	0	967.0	NA	0.0000	-SN BR	8000	0	0	0	3670
2019/05/18 08:14:00	BASE	2.11	256	2.42	248	-2.0	100	-2.0	0	0	967.1	NA	0.2540	-SN BR	9000	0	0	0	3670
2019/05/18 08:15:00	BASE	2.23	257	2.68	259	-2.0	100	-2.0	0	0	967.1	NA	0.0000	-SN BR	9999	0	0	0	3640
2019/05/18 08:16:00	BASE	2.44	258	2.68	259	-2.0	100	-2.0	0	0	967.1	NA	0.0000	-SN BR	9999	0	0	0	3640
2019/05/18 08:17:00	BASE	2.44	260	2.68	259	-2.0	100	-2.0	0	0	967.1	NA	0.0000	-SN BR	9999	0	0	0	3670
2019/05/18 08:18:00	BASE	2.30	265	2.68	259	-2.0	100	-2.0	0	0	967.1	NA	0.0000	-SN BR	9999	0	0	0	3610
2019/05/18 08:19:00	BASE	2.20	270	2.68	259	-2.0	100	-2.0	0	0	967.1	NA	0.0000	-SN BR	9999	0	0	0	3540
2019/05/18 08:20:00	BASE	2.02	280	2.68	259	-2.0	100	-2.0	0	0	967.1	NA	0.0000	-SN BR	9999	0	0	0	3450
2019/05/18 08:21:00	BASE	1.83	292	2.68	259	-2.0	100	-2.0	0	0	967.1	NA	0.0000	-SN	9999	0	0	0	3380
2019/05/18 08:22:00	BASE	1.57	303	2.68	259	-2.0	100	-2.0	0	0	967.1	NA	0.0000	-SN	9999	0	0	0	3410
2019/05/18 08:23:00	BASE	1.48	308	2.68	259	-2.0	100	-2.0	0	0	967.1	NA	0.0000	-SN	9999	0	0	0	3380
2019/05/18 08:24:00	BASE	1.56	312	2.68	259	-2.0	100	-2.0	0	0	967.1	NA	0.0000	-SN	9999	360	0	0	0
2019/05/18 08:25:00	BASE	1.37	320	2.62	260	-2.0	100	-2.0	0	0	967.1	NA	0.0000	-SN	9999	360	0	0	0
2019/05/18 08:26:00	BASE	1.25	320	2.52	262	-2.0	100	-2.0	0	0	967.2	NA	0.0000	-SN	9999	0	0	0	2460
2019/05/18 08:27:00	BASE	1.49	315	2.42	270	-2.0	100	-2.0	0	0	967.1	NA	0.0000	-SN	9999	330	0	0	0
2019/05/18 08:28:00	BASE	1.62	316	2.31	272	-2.0	100	-2.0	0	0	967.1	NA	0.0000	-SN	8000	0	0	0	2300
2019/05/18 08:29:00	BASE	1.46	322	2.11	280	-2.0	100	-2.0	0	0	967.2	NA	0.0000	-SN	6000	1150	0	0	0
2019/05/18 08:30:00	BASE	1.32	329	2.06	293	-2.0	100	-2.0	0	0	967.2	NA	0.0000	-SN BR	5000	0	0	0	2100
2019/05/18 08:31:00	BASE	0.88	330	1.85	320	-2.0	100	-2.0	0	0	967.2	NA	0.0000	-SN BR	5000	0	0	0	2170
2019/05/18 08:32:00	BASE	0.23	331	1.85	320	-2.0	100	-2.0	0	0	967.2	NA	0.0000	-SN BR	4800	0	0	0	2000
2019/05/18 08:33:00	BASE	0.00	332	1.85	320	-2.0	100	-2.0	0	0	967.2	NA	0.0000	-SN BR	4200	0	0	0	1900
2019/05/18 08:34:00	BASE	0.04	332	1.85	320	-2.0	100	-2.0	0	0	967.2	NA	0.0000	-SN BR	3900	0	0	0	1800
2019/05/18 08:35:00	BASE	0.60	332	1.85	320	-2.0	100	-2.0	0	0	967.2	NA	0.0000	-SN BR	3600	0	0	0	1800
2019/05/18 08:36:00	BASE	1.17	331	1.85	320	-2.0	100	-2.0	0	0	967.2	NA	0.0000	-SN BR	3700	0	0	0	1740
2019/05/18 08:37:00	BASE	1.29	324	1.85	320	-2.0	100	-2.0	0	0	967.2	NA	0.0000	-SN BR	4000	0	0	0	1770
2019/05/18 08:38:00	BASE	1.48	316	1.95	315	-2.0	100	-2.0	0	0	967.2	NA	0.0000	-SN BR	4700	0	0	0	1740
2019/05/18 08:39:00	BASE	1.75	315	2.06	315	-2.0	100	-2.0	0	0	967.2	NA	0.0000	-SN BR	5000	0	0	0	1670
2019/05/18 08:40:00	BASE	1.87	311	2.06	295	-2.0	100	-2.0	0	0	967.1	NA	0.0000	-SN BR	5000	0	0	0	1710
2019/05/18 08:41:00	BASE	1.85	303	2.06	295	-2.0	100	-2.0	0	0	967.1	NA	0.0000	-SN BR	4800	0	0	0	1640
2019/05/18 08:42:00	BASE	1.94	309	2.16	323	-2.0	100	-2.0	0	0	967.1	NA	0.0000	-SN BR	5000	0	0	0	1570
2019/05/18 08:43:00	BASE	1.98	323	2.16	324	-2.0	100	-2.0	0	0	967.1	NA	0.0000	-SN BR	4400	0	0	0	1540
2019/05/18 08:44:00	BASE	1.76	332	2.16	324	-2.0	100	-2.0	0	0	967.1	NA	0.0000	-SN BR	3700	0	0	0	1570
2019/05/18 08:45:00	BASE	1.54	346	2.16	324	-2.0	100	-2.0	0	0	967.1	NA	0.0000	-SN BR	3700	0	0	0	1480
2019/05/18 08:46:00	BASE	1.53	359	2.16	324	-2.0	100	-2.0	0	0	967.1	NA	0.0000	-SN BR	3700	0	0	0	1480
2019/05/18 08:47:00	BASE	1.66	354	2.16	324	-2.0	100	-2.0	0	0	967.1	NA	0.0000	-SN BR	3700	0	0	0	1440
2019/05/18 08:48:00	BASE	1.93	341	2.47	332	-2.0	100	-2.0	0	0	967.1	NA	0.0000	-SN BR	3800	0	0	0	1610
2019/05/18 08:49:00	BASE	2.49	333	2.98	335	-2.0	100	-2.0	0	0	967.1	NA	0.0000	-SN BR	4300	0	0	0	1670
2019/05/18 08:50:01	BASE	3.03	332	3.40	332	-2.0	100	-2.0	0	0	967.1	NA	0.0000	-SN BR	4700	0	0	0	2030
2019/05/18 08:51:01	BASE	3.35	332	3.81	334	-2.0	100	-2.0	0	0	967.1	NA	0.0000	-SN BR	5000	0	0	0	2170
2019/05/18 08:52:01	BASE	3.68	332	3.96	332	-2.0	100	-2.0	0	0	967.1	NA	0.0000	-SN BR	5000	0	0	0	1970
2019/05/18 08:53:01	BASE	3.92	333	4.32	335	-2.0	100	-2.0	0	0	967.1	NA	0.0000	-SN BR	5000	0	0	0	2130
2019/05/18 08:54:00	BASE	4.12	334	4.48	332	-2.0	100	-2.0	0	0	967.1	NA	0.0000	-SN BR	6000	0	0	0	2170
2019/05/18 08:55:00	BASE	4.26	332	4.48	330	-2.0	100	-2.0	0	0	967.1	NA	0.0000	-SN BR	7000	0	0	0	2330
2019/05/18 08:56:00	BASE	4.10	332	4.48	330	-2.0	100	-2.0	0	0	967.1	NA	0.0000	-SN BR	8000	0	0	0	2430
2019/05/18 08:57:00	BASE	3.87	332	4.48	330	-2.1	100	-2.1	0	0	967.2	NA	0.0000	-SN BR	8000	0	0	0	2530
2019/05/18 08:58:01	BASE	3.84	332	4.48	330	-2.1	100	-2.1	0	0	967.2	NA	0.0000	-SN BR	8000	0	0	0	2490
2019/05/18 08:59:01	BASE	4.12	335	5.04	338	-2.0	100	-2.0	0	0	967.2	NA	0.0000	-SN BR	8000	0	0	0	2430
2019/05/18 09:00:00	BASE	4.60	338	5.25	341	-2.0	100	-2.0	0	0	967.2	NA	0.0000	-SN BR	8000	0	0	0	1940
2019/05/18 09:01:00	BASE	4.79	341	5.25	344	-2.0	100	-2.0	0	0	967.1	NA	0.0000	-SN BR	9999	0	0	0	1970
2019/05/18 09:02:00	BASE	5.28	344	6.07	344	-2.0	100	-2.0	0	0	967.1	NA	0.0000	-SN BR	9999	0	0	0	2200
2019/05/18 09:03:00	BASE	5.78	344	6.07	344	-2.0	100	-2.0	0	0	967.1	NA	0.0000	-SN BR	9999	0	0	0	2360
2019/05/18 09:04:00	BASE	5.50	345	6.07	344	-2.0	100	-2.0	0	0	967.1	NA	0.0000	-SN BR	9999	0	0	0	2400
2019/05/18 09:05:00	BASE	5.02	345	6.07	344	-2.0	100	-2.0	0	0	967.1	NA	0.0000	-SN BR	9999	0	0	0	2400
2019/05/18 09:06:00	BASE	4.67	345	6.07	344	-2.0	100	-2.0	0	0	967.1	NA	0.0000	-SN BR	8000	0	0	0	2330
2019/05/18 09:07:00	BASE	4.41	346	6.07	344	-2.0	100	-2.0	0	0	967.1	NA	0.0000	-SN BR	5000	0	0	0	2300
2019/05/18 09:08:00	BASE	4.09	346	6.07	344	-2.0	100	-2.0	0	0	967.1	NA	0.0000	-SN BR	4700	0	0	0	2400
2019/05/18 09:09:00	BASE	3.61	346	6.07	344	-2.0	100	-2.0	0	0	967.1	NA	0.0000	-SN BR	4300	0	0	0	2460
2019/05/18 09:10:00	BASE	3.40	347	6.07	344	-2.0	100	-2.0	0	0	967.2	NA	0.0000	-SN BR	4500	0	0	0	2560
2019/05/18 09:11:00	BASE	3.69	348	6.07	344	-2.0	100	-2.0	0	0	967.2	NA	0.0000	-SN BR	5000	0	0	0	2690
2019/05/18 09:12:00	BASE	3.93	348	6.02	343	-2.0	100	-2.0	0	0	967.2	NA	0.0000	-SN BR	6000	0	0	0	2790
2019/05/18 09:13:00	BASE	3.89	348	5.61	347	-2.0	100	-2.0	0	0	967.2	NA	0.0000	-SN BR	6000	0	0	0	2890
2019/05/18 09:14:00	BASE	3.54	347	5.14	345	-1.9	100	-1.9	0	0	967.2	NA	0.0000	-SN BR	7000	0	0	0	3020
2019/05/18 09:15:00	BASE	3.14	348	4.63	347	-1.9	100	-1.9	0	0	967.1	NA	0.0000	-SN BR	7000	0	0	0	3220
2019/05/18 09:16:00	BASE	2.72	351	4.37	348	-1.9	100	-1.9	0	0	967.2	NA	0.0000	-SN BR	7000	0	0	0	3580
2019/05/18 09:17:00	BASE	2.24	353	4.17	341	-1.9	100	-1.9	0	0	967.1	NA	0.0000	-SN BR	7000	0	0	0	4040
2019/05/18 09:18:00	BASE	1.89	354	4.12	349	-1.9	100	-1.9	0	0	967.2	NA	0.0000	-SN BR	8000	0	0	0	4070
2019/05/18 09:19:00	BASE	1.46	357	4.12	349	-1.9	100	-1.9	0	0	967.2	NA	0.0000	-SN BR	9000	0	0	0	4100
2019/05/18 09:20:00	BASE	1.01	11	4.12	349	-1.9	100	-1.9	0	0	967.2	NA	0.0000	-SN BR	8000	0	0	0	4170
2019/05/18 09:21:00	BASE	0.44	47	4.06	348	-1.9	100	-1.9	0	0	967.2	NA	0.0000	-SN BR	7000	0	0	0	4040
2019/05/18 09:22:00	BASE	0.17	82	3.96	348	-2.0	100	-2.0	0	0	967.2	NA	0.0000	-SN BR	6000	0	0	0	3900
2019/05/18 09:23:00	BASE	0.13	83	3.45	344	-2.0	100	-2.0	0	0	967.2	NA	0.0000	-SN BR	5000	0	0	0	3900
2019/05/18 09:24:00	BASE	0.00	74	3.24	346	-2.0	100	-2.0	0	0	967.2	NA	0.0000	-SN BR	5000	0	0	0	4100
2019/05/18 09:25:00	BASE	0.40	100	2.68	349	-2.0	100	-2.0	0	0	967.2	NA	0.0000	-SN BR	5000	0	0	0	4070
2019/05/18 09:26:00	BASE	1.14	126	2.42	354	-2.0	100	-2.0	0	0	967.2	NA	0.0000	-SN BR	6000	0	0	0	4000
2019/05/18 09:27:00	BASE	1.54	134	1.85	355	-2.0	100	-2.0	0	0	967.2	NA	0.0000	-SN BR	6000	0	0	0	3770
2019/05/18 09:28:00	BASE	1.61	135	1.80	133	-2.0	100	-2.0	0	0	967.2	NA	0.0000	-SN BR	6000	0	0	0	3640
2019/05/18 09:29:00	BASE	1.70	132	1.95	132	-2.0	100	-2.0	0	0	967.2	NA	0.0000	-SN BR	5000	0	0	0	3480
2019/05/18 09:30:00	BASE	1.93	131	2.26	134	-2.0	100	-2.0	0	0	967.2	NA	0.0000	-SN BR	5000	0	0	0	3050
2019/05/18 09:31:00	BASE	2.05	128	2.26	134	-2.0	100	-2.0	0	0	967.2	NA	0.0000	-SN BR	4800	0	0	0	2890
2019/05/18 09:32:00	BASE	2.09	124	2.73	119	-2.0	100	-2.0	0	0	967.2	NA	0.0000	-SN BR	4700	0	0	0	2760
2019/05/18 09:33:00	BASE	2.18	119	2.73	119	-2.0	100	-2.0	0	0	967.2	NA	0.0000	-SN BR	4300	0	0	0	2890
2019/05/18 09:34:00	BASE	2.30	119	2.73	119	-2.0	100	-2.0	0	0	967.2	NA	0.0000	-SN BR	4000	0	0	0	2690
2019/05/18 09:35:00	BASE	2.41	117	2.73	119	-1.9	100	-1.9	0	0	967.2	NA	0.0000	-SN BR	3900	0	0	0	2560
2019/05/18 09:36:00	BASE	2.49	113	2.78	109	-1.9	100	-1.9	0	0	967.2	NA	0.0000	-SN BR	3700	0	0	0	2490
2019/05/18 09:37:00	BASE	2.69	112	2.98	112	-1.9	100	-1.9	0	0	967.2	NA	0.0000	-SN BR	3500	260	0	0	0
2019/05/18 09:38:00	BASE	2.74	110	2.98	112	-1.9	100	-1.9	0	0	967.3	NA	0.0000	-SN BR	3300	0	0	0	2330
2019/05/18 09:39:00	BASE	2.51	105	2.98	112	-1.9	100	-1.9	0	0	967.3	NA	0.0000	-SN BR	3300	0	0	0	2260
2019/05/18 09:40:00	BASE	2.41	101	2.98	112	-1.9	100	-1.9	0	0	967.3	NA	0.0000	-SN BR	3400	0	0	0	2130
2019/05/18 09:41:00	BASE	2.52	99	2.98	101	-1.9	100	-1.9	0	0	967.3	NA	0.0000	-SN BR	3600	0	0	0	2030
2019/05/18 09:42:00	BASE	2.59	98	2.98	101	-1.9	100	-1.9	0	0	967.3	NA	0.0000	-SN BR	3700	0	0	0	1940
2019/05/18 09:43:00	BASE	2.74	96	3.09	95	-1.9	100	-1.9	0	0	967.3	NA	0.0000	-SN BR	3900	0	0	0	1870
2019/05/18 09:44:00	BASE	2.77	98	3.09	95	-1.8	100	-1.8	0	0	967.3	NA	0.0000	-SN BR	3900	0	0	0	1940
2019/05/18 09:45:00	BASE	2.73	103	3.09	95	-1.8	100	-1.8	0	0	967.3	NA	0.0000	-SN BR	3500	0	0	0	1870
2019/05/18 09:46:00	BASE	2.75	106	3.09	104	-1.8	100	-1.8	0	0	967.3	NA	0.0000	-SN BR	3500	0	0	0	1900
2019/05/18 09:47:00	BASE	2.73	106	3.09	104	-1.8	100	-1.8	0	0	967.3	NA	0.2540	-SN BR	3700	0	0	0	1900
2019/05/18 09:48:00	BASE	2.73	110	3.09	104	-1.8	100	-1.8	0	0	967.3	NA	0.0000	-SN BR	3600	0	0	0	1900
2019/05/18 09:49:00	BASE	3.06	106	3.86	94	-1.8	100	-1.8	0	0	967.3	NA	0.0000	-SN BR	3400	0	0	0	1870
2019/05/18 09:50:00	BASE	3.55	97	4.17	97	-1.8	100	-1.8	0	0	967.3	NA	0.0000	-SN BR	3400	0	0	0	1940
2019/05/18 09:51:00	BASE	3.99	101	4.48	108	-1.8	100	-1.8	0	0	967.3	NA	0.0000	-SN BR	3500	0	0	0	1870
2019/05/18 09:52:00	BASE	4.18	107	4.48	108	-1.8	100	-1.8	0	0	967.3	NA	0.0000	-SN BR	3600	0	0	0	1770
2019/05/18 09:53:00	BASE	3.97	108	4.48	108	-1.8	100	-1.8	0	0	967.3	NA	0.0000	-SN BR	3800	0	0	0	1670
2019/05/18 09:54:00	BASE	3.61	110	4.48	108	-1.8	100	-1.8	0	0	967.3	NA	0.0000	-SN BR	3700	0	0	0	1640
2019/05/18 09:55:00	BASE	3.45	115	4.48	108	-1.8	100	-1.8	0	0	967.3	NA	0.0000	-SN BR	3500	0	0	0	1640
2019/05/18 09:56:00	BASE	3.48	120	4.48	108	-1.8	100	-1.8	0	0	967.3	NA	0.0000	-SN BR	3500	0	0	0	1710
2019/05/18 09:57:00	BASE	3.68	125	4.48	108	-1.7	100	-1.7	0	0	967.3	NA	0.0000	-SN BR	3600	0	0	0	1710
2019/05/18 09:58:00	BASE	3.66	124	4.48	108	-1.7	100	-1.7	0	0	967.3	NA	0.0000	-SN BR	3500	0	0	0	1610
2019/05/18 09:59:00	BASE	3.84	121	5.45	130	-1.7	100	-1.7	0	0	967.3	NA	0.0000	-SN BR	3300	0	0	0	1540
2019/05/18 10:00:00	BASE	4.61	124	5.45	125	-1.7	100	-1.7	0	0	967.3	NA	0.0000	-SN BR	3300	0	0	0	1540
2019/05/18 10:01:00	BASE	5.04	126	5.81	130	-1.7	100	-1.7	0	0	967.3	NA	0.0000	-SN BR	3400	0	0	0	1410
2019/05/18 10:02:00	BASE	5.21	127	6.17	125	-1.7	100	-1.7	0	0	967.3	NA	0.0000	-SN BR	3400	0	0	0	1280
2019/05/18 10:03:00	BASE	5.94	121	6.94	117	-1.7	100	-1.7	0	0	967.3	NA	0.0000	-SN BR	3300	0	0	0	1350
2019/05/18 10:04:00	BASE	6.55	116	7.31	118	-1.7	100	-1.7	0	0	967.3	NA	0.0000	-SN BR	3300	0	0	0	1280
2019/05/18 10:05:00	BASE	6.89	117	7.67	120	-1.7	100	-1.7	0	0	967.3	NA	0.0000	-SN BR	3200	0	0	0	1310
2019/05/18 10:06:00	BASE	7.22	119	7.92	118	-1.7	100	-1.7	0	0	967.3	NA	0.0000	-SN BR	3100	0	0	0	1350
2019/05/18 10:07:00	BASE	7.23	120	8.08	121	-1.7	100	-1.7	0	0	967.4	NA	0.0000	-SN BR	3000	0	0	0	1350
2019/05/18 10:08:00	BASE	7.27	119	8.08	121	-1.7	100	-1.7	0	0	967.4	NA	0.0000	-SN BR	1800	0	0	0	1380
2019/05/18 10:09:00	BASE	7.25	117	8.08	121	-1.7	100	-1.7	0	0	967.4	NA	0.0000	-SN BR	1800	0	0	0	1410
2019/05/18 10:10:00	BASE	8.11	117	9.57	115	-1.8	100	-1.8	0	0	967.4	NA	0.0000	-SN BR	3100	0	0	0	1410
2019/05/18 10:11:00	BASE	9.03	117	9.57	115	-1.8	100	-1.8	0	0	967.4	NA	0.0000	-SN BR	1700	0	0	0	1540
2019/05/18 10:12:00	BASE	8.96	120	9.57	115	-1.8	100	-1.8	0	0	967.4	NA	0.0000	-SN BR	1700	0	0	0	1510
2019/05/18 10:13:00	BASE	8.70	121	9.57	115	-1.8	100	-1.8	0	0	967.4	NA	0.0000	-SN BR	3000	0	0	0	1540
2019/05/18 10:14:00	BASE	8.69	119	9.67	118	-1.8	100	-1.8	0	0	967.4	NA	0.0000	-SN BR	3100	0	0	0	1610
2019/05/18 10:15:00	BASE	9.12	117	10.49	117	-1.8	100	-1.8	0	0	967.4	NA	0.0000	-SN BR	3100	0	0	0	1610
2019/05/18 10:16:00	BASE	9.63	117	10.55	119	-1.8	100	-1.8	0	0	967.4	NA	0.0000	-SN BR	1400	0	0	0	1540
2019/05/18 10:17:00	BASE	9.55	118	10.55	119	-1.8	100	-1.8	0	0	967.4	NA	0.0000	-SN BR	1000	0	0	0	1510
2019/05/18 10:18:00	BASE	9.53	119	10.55	119	-1.8	100	-1.8	0	0	967.4	NA	0.0000	-SN BR	1700	0	0	0	1480
2019/05/18 10:19:00	BASE	9.85	118	10.55	119	-1.8	100	-1.8	0	0	967.4	NA	0.0000	-SN BR	3100	0	0	0	1410
2019/05/18 10:20:00	BASE	9.92	118	10.80	114	-1.8	100	-1.8	0	0	967.5	NA	0.0000	-SN BR	3000	0	0	0	1380
2019/05/18 10:21:00	BASE	9.83	119	10.80	114	-1.8	100	-1.8	0	0	967.5	NA	0.0000	-SN BR	2900	0	0	0	1410
2019/05/18 10:22:00	BASE	9.78	122	10.80	114	-1.7	100	-1.7	0	0	967.5	NA	0.0000	-SN BR	2700	0	0	0	1380
2019/05/18 10:23:00	BASE	9.73	126	10.80	114	-1.7	100	-1.7	0	0	967.6	NA	0.0000	-SN BR	1600	0	0	0	1280
2019/05/18 10:24:00	BASE	9.53	130	10.80	114	-1.7	100	-1.7	0	0	967.7	NA	0.0000	-SN BR	1100	0	0	0	1180
2019/05/18 10:25:00	BASE	9.33	133	10.80	114	-1.7	100	-1.7	0	0	967.7	NA	0.0000	-SN BR	1400	0	0	0	1150
2019/05/18 10:26:00	BASE	8.58	135	10.80	114	-1.6	100	-1.6	0	0	967.7	NA	0.0000	-SN BR	1100	0	0	0	1080
2019/05/18 10:27:00	BASE	7.76	138	10.80	114	-1.6	100	-1.6	0	0	967.7	NA	0.0000	-SN BR	1100	0	0	0	1050
2019/05/18 10:28:00	BASE	7.60	140	10.80	114	-1.6	100	-1.6	0	0	967.7	NA	0.0000	-SN BR	2200	0	0	0	1120
2019/05/18 10:29:00	BASE	7.31	141	10.80	114	-1.6	100	-1.6	0	0	967.7	NA	0.0000	-SN BR	2300	0	0	0	1180
2019/05/18 10:30:00	BASE	6.65	140	10.55	128	-1.6	100	-1.6	0	0	967.7	NA	0.0000	-SN BR	2500	0	0	0	1180
2019/05/18 10:31:00	BASE	6.07	134	10.55	128	-1.6	100	-1.6	0	0	967.7	NA	0.0000	-SN BR	2400	0	0	0	1150
2019/05/18 10:32:00	BASE	5.91	132	9.98	129	-1.6	100	-1.6	0	0	967.8	NA	0.0000	-SN BR	2400	0	0	0	1180
2019/05/18 10:33:00	BASE	6.03	132	9.83	133	-1.6	100	-1.6	0	0	967.8	NA	0.0000	-SN BR	2400	0	0	0	1180
2019/05/18 10:34:00	BASE	5.76	131	9.62	137	-1.6	100	-1.6	0	0	967.8	NA	0.0000	-SN BR	2500	0	0	0	1120
2019/05/18 10:35:00	BASE	5.36	130	8.69	139	-1.7	100	-1.7	0	0	967.8	NA	0.0000	-SN BR	2600	0	0	0	1080
2019/05/18 10:36:00	BASE	5.24	131	8.33	135	-1.7	100	-1.7	0	0	967.8	NA	0.0000	-SN BR	2500	0	0	0	1120
2019/05/18 10:37:00	BASE	5.34	132	8.33	135	-1.7	100	-1.7	0	0	967.7	NA	0.0000	-SN BR	2400	0	0	0	1120
2019/05/18 10:38:00	BASE	5.21	132	7.67	146	-1.7	100	-1.7	0	0	967.8	NA	0.0000	-SN BR	2400	0	0	0	1150
2019/05/18 10:39:00	BASE	4.72	135	6.74	146	-1.7	100	-1.7	0	0	967.8	NA	0.0000	-SN BR	2300	0	0	0	1180
2019/05/18 10:40:00	BASE	4.55	135	6.43	132	-1.7	100	-1.7	0	0	967.8	NA	0.0000	-SN BR	2300	0	0	0	1180
2019/05/18 10:41:00	BASE	4.76	135	6.43	132	-1.7	100	-1.7	0	0	967.7	NA	0.0000	-SN BR	2400	0	0	0	1180
2019/05/18 10:42:00	BASE	4.73	138	6.43	132	-1.7	100	-1.7	0	0	967.7	NA	0.0000	-SN BR	2400	0	0	0	1180
2019/05/18 10:43:00	BASE	4.77	138	6.22	124	-1.7	100	-1.7	0	0	967.8	NA	0.0000	-SN BR	2300	0	0	0	1120
2019/05/18 10:44:00	BASE	4.74	139	5.86	133	-1.7	100	-1.7	0	0	967.8	NA	0.0000	-SN BR	2100	0	0	0	1120
2019/05/18 10:45:00	BASE	4.65	142	5.86	133	-1.8	100	-1.8	0	0	967.8	NA	0.0000	-SN BR	2000	0	0	0	1080
2019/05/18 10:46:00	BASE	4.72	142	5.86	133	-1.8	100	-1.8	0	0	967.8	NA	0.0000	-SN BR	1900	0	0	0	1050
2019/05/18 10:47:00	BASE	4.61	141	5.61	136	-1.8	100	-1.8	0	0	967.8	NA	0.0000	-SN BR	2000	0	0	0	1080
2019/05/18 10:48:00	BASE	4.48	137	5.61	136	-1.8	100	-1.8	0	0	967.8	NA	0.0000	-SN BR	1900	0	0	0	1150
2019/05/18 10:49:00	BASE	4.33	137	5.61	136	-1.8	100	-1.8	0	0	967.8	NA	0.0000	-SN BR	1900	0	0	0	1250
2019/05/18 10:50:00	BASE	4.18	141	5.61	136	-1.9	100	-1.9	0	0	967.8	NA	0.0000	-SN BR	1900	0	0	0	1380
2019/05/18 10:51:00	BASE	3.92	142	5.45	132	-1.9	100	-1.9	0	0	967.8	NA	0.0000	-SN BR	1800	0	0	0	1410
2019/05/18 10:52:00	BASE	3.88	142	5.45	132	-1.9	100	-1.9	0	0	967.8	NA	0.0000	-SN BR	2000	0	0	0	1410
2019/05/18 10:53:00	BASE	3.89	143	5.35	136	-1.9	100	-1.9	0	0	967.8	NA	0.0000	-SN BR	2000	0	0	0	1440
2019/05/18 10:54:00	BASE	3.63	144	5.35	136	-1.9	100	-1.9	0	0	967.8	NA	0.0000	-SN BR	1800	0	0	0	1480
2019/05/18 10:55:00	BASE	3.28	143	5.35	136	-1.9	100	-1.9	0	0	967.8	NA	0.0000	-SN BR	1500	0	0	0	1480
2019/05/18 10:56:00	BASE	3.10	140	4.99	127	-1.9	100	-1.9	0	0	967.8	NA	0.0000	-SN BR	1500	0	0	0	1480
2019/05/18 10:57:00	BASE	3.27	138	4.99	127	-1.9	100	-1.9	0	0	967.8	NA	0.0000	-SN BR	1700	0	0	0	1440
2019/05/18 10:58:00	BASE	3.29	133	4.68	133	-1.9	100	-1.9	0	0	967.8	NA	0.0000	-SN BR	1800	0	0	0	1410
2019/05/18 10:59:00	BASE	3.09	131	4.68	133	-1.9	100	-1.9	0	0	967.9	NA	0.0000	-SN BR	1800	0	0	0	1380
2019/05/18 11:00:00	BASE	3.00	131	4.37	140	-1.9	100	-1.9	0	0	967.9	NA	0.0000	-SN BR	1800	0	0	0	1350
2019/05/18 11:01:00	BASE	3.00	127	4.37	140	-1.9	100	-1.9	0	0	967.9	NA	0.0000	-SN BR	1900	0	0	0	1310
2019/05/18 11:02:00	BASE	2.94	127	4.22	137	-1.9	100	-1.9	0	0	967.9	NA	0.0000	-SN BR	1700	0	0	0	1280
2019/05/18 11:03:00	BASE	2.99	125	4.01	140	-1.9	100	-1.9	0	0	967.9	NA	0.0000	-SN BR	1500	0	0	0	1280
2019/05/18 11:04:00	BASE	2.90	123	3.91	141	-1.9	100	-1.9	0	0	967.9	NA	0.0000	-SN BR	1700	0	0	0	1250
2019/05/18 11:05:00	BASE	2.69	119	3.91	141	-1.9	100	-1.9	0	0	967.9	NA	0.0000	-SN BR	1600	0	0	0	1250
2019/05/18 11:06:00	BASE	2.56	114	3.91	141	-1.9	100	-1.9	0	0	967.9	NA	0.0000	-SN BR	1600	0	0	0	1210
2019/05/18 11:07:00	BASE	2.39	111	3.60	129	-1.9	100	-1.9	0	0	967.9	NA	0.0000	-SN BR	1700	0	0	0	1210
2019/05/18 11:08:00	BASE	2.55	107	3.60	129	-1.9	100	-1.9	0	0	967.9	NA	0.0000	-SN BR	1800	0	0	0	1210
2019/05/18 11:09:00	BASE	2.60	107	3.40	126	-1.9	100	-1.9	0	0	967.9	NA	0.0000	-SN BR	1600	0	0	0	1280
2019/05/18 11:10:00	BASE	2.46	112	3.40	126	-1.9	100	-1.9	0	0	967.9	NA	0.0000	-SN BR	1600	0	0	0	1380
2019/05/18 11:11:00	BASE	2.41	117	3.40	126	-1.9	100	-1.9	0	0	967.9	NA	0.0000	-SN BR	1900	0	0	0	1480
2019/05/18 11:12:00	BASE	2.46	118	3.40	126	-1.9	100	-1.9	0	0	967.9	NA	0.0000	-SN BR	2100	0	0	0	1540
2019/05/18 11:13:00	BASE	2.36	122	3.34	120	-1.9	100	-1.9	0	0	967.9	NA	0.0000	-SN BR	2200	0	0	0	1540
2019/05/18 11:14:00	BASE	2.13	122	3.19	118	-1.9	100	-1.9	0	0	967.9	NA	0.0000	-SN BR	2400	0	0	0	1570
2019/05/18 11:15:00	BASE	1.99	121	2.88	118	-1.9	100	-1.9	0	0	967.9	NA	0.0000	-SN BR	2600	0	0	0	1640
2019/05/18 11:16:00	BASE	1.87	122	2.88	118	-1.9	100	-1.9	0	0	967.9	NA	0.0000	-SN BR	2700	0	0	0	1710
2019/05/18 11:17:00	BASE	2.21	115	3.24	114	-1.9	100	-1.9	0	0	967.9	NA	0.0000	-SN BR	2900	0	0	0	1770
2019/05/18 11:18:00	BASE	2.82	111	3.60	118	-1.9	100	-1.9	0	0	967.9	NA	0.0000	-SN BR	2800	0	0	0	1770
2019/05/18 11:19:00	BASE	2.98	114	3.60	118	-1.9	100	-1.9	0	0	967.9	NA	0.0000	-SN BR	2700	0	0	0	1840
2019/05/18 11:20:00	BASE	2.86	113	3.60	118	-1.9	100	-1.9	0	0	967.9	NA	0.0000	-SN BR	2900	0	0	0	1870
2019/05/18 11:21:00	BASE	2.83	109	3.60	118	-1.9	100	-1.9	0	0	967.9	NA	0.0000	-SN BR	3000	0	0	0	1900
2019/05/18 11:22:00	BASE	2.66	105	3.60	118	-1.9	100	-1.9	0	0	967.9	NA	0.0000	-SN BR	3000	0	0	0	1940
2019/05/18 11:23:00	BASE	2.42	104	3.60	118	-1.9	100	-1.9	0	0	967.9	NA	0.0000	-SN BR	3000	0	0	0	2000
2019/05/18 11:24:00	BASE	2.23	107	3.60	118	-1.9	100	-1.9	0	0	967.9	NA	0.0000	-SN BR	3000	0	0	0	2030
2019/05/18 11:25:00	BASE	2.29	113	3.60	118	-1.9	100	-1.9	0	0	967.9	NA	0.0000	-SN BR	2800	0	0	0	2170
2019/05/18 11:26:00	BASE	2.79	122	3.60	118	-1.9	100	-1.9	0	0	967.9	NA	0.0000	-SN BR	2800	0	0	0	2130
2019/05/18 11:27:00	BASE	3.22	130	3.60	118	-1.9	100	-1.9	0	0	967.9	NA	0.0000	-SN BR	2900	0	0	0	2620
2019/05/18 11:28:00	BASE	3.30	132	3.65	132	-1.9	100	-1.9	0	0	967.9	NA	0.0000	-SN BR	2900	0	0	0	2620
2019/05/18 11:29:00	BASE	3.18	131	3.65	132	-1.9	100	-1.9	0	0	967.9	NA	0.0000	-SN BR	3000	0	0	0	2660
2019/05/18 11:30:00	BASE	3.31	136	3.81	132	-1.9	100	-1.9	0	0	967.9	NA	0.2540	-SN BR	3100	0	0	0	2720
2019/05/18 11:31:00	BASE	3.52	140	4.27	149	-1.9	100	-1.9	0	0	967.9	NA	0.0000	-SN BR	3300	0	0	0	2760
2019/05/18 11:32:00	BASE	3.52	141	4.27	149	-1.9	100	-1.9	0	0	967.9	NA	0.0000	-SN BR	3600	0	0	0	2820
2019/05/18 11:33:00	BASE	3.53	139	4.27	149	-1.9	100	-1.9	0	0	967.9	NA	0.0000	-SN BR	3600	0	0	0	2690
2019/05/18 11:34:00	BASE	3.53	138	4.27	149	-2.0	100	-2.0	0	0	967.9	NA	0.0000	-SN BR	3500	0	0	0	2590
2019/05/18 11:35:00	BASE	3.41	136	4.27	149	-2.0	100	-2.0	0	0	967.9	NA	0.0000	-SN BR	3600	0	0	0	2530
2019/05/18 11:36:00	BASE	3.39	135	4.27	149	-2.0	100	-2.0	0	0	967.9	NA	0.0000	-SN BR	3600	0	0	0	2260
2019/05/18 11:37:00	BASE	3.36	137	4.27	149	-2.0	100	-2.0	0	0	967.9	NA	0.0000	-SN BR	3500	0	0	0	2660
2019/05/18 11:38:00	BASE	3.41	141	4.27	149	-2.0	100	-2.0	0	0	967.9	NA	0.0000	-SN BR	3600	0	0	0	2620
2019/05/18 11:39:00	BASE	3.53	142	4.27	149	-2.0	100	-2.0	0	0	967.9	NA	0.0000	-SN BR	3600	0	0	0	2590
2019/05/18 11:40:00	BASE	3.61	142	4.27	149	-2.0	100	-2.0	0	0	967.9	NA	0.0000	-SN BR	3400	0	0	0	2790
2019/05/18 11:41:00	BASE	3.69	141	4.22	146	-2.0	100	-2.0	0	0	967.9	NA	0.0000	-SN BR	3400	0	0	0	2920
2019/05/18 11:42:00	BASE	3.46	145	4.22	146	-2.0	100	-2.0	0	0	967.9	NA	0.0000	-SN BR	3500	0	0	0	3150
2019/05/18 11:43:00	BASE	3.07	144	4.22	146	-2.0	100	-2.0	0	0	967.9	NA	0.0000	-SN BR	3400	0	0	0	3310
2019/05/18 11:44:00	BASE	3.02	139	4.22	146	-2.0	100	-2.0	0	0	967.9	NA	0.0000	-SN BR	3600	0	0	0	4430
2019/05/18 11:45:00	BASE	3.07	132	4.22	146	-2.0	100	-2.0	0	0	967.9	NA	0.0000	-SN BR	4100	230	0	0	0
2019/05/18 11:46:00	BASE	3.07	126	4.22	146	-2.0	100	-2.0	0	0	967.9	NA	0.0000	-SN BR	4300	230	0	0	0
2019/05/18 11:47:00	BASE	3.25	124	4.22	146	-2.0	100	-2.0	0	0	967.9	NA	0.2540	-SN BR	4500	230	0	0	0
2019/05/18 11:48:00	BASE	3.53	121	4.48	112	-2.0	100	-2.0	0	0	967.9	NA	0.0000	-SN BR	4700	260	0	0	0
2019/05/18 11:49:00	BASE	4.13	122	4.84	121	-2.0	100	-2.0	0	0	967.9	NA	0.0000	-SN BR	4700	260	0	0	0
2019/05/18 11:50:00	BASE	5.22	124	6.58	131	-2.0	100	-2.0	0	0	967.9	NA	0.0000	-SN BR	4600	260	1640	0	0
2019/05/18 11:51:00	BASE	6.04	125	6.94	119	-2.0	100	-2.0	0	0	967.9	NA	0.0000	-SN BR	4500	300	1570	0	0
2019/05/18 11:52:00	BASE	6.22	123	6.94	119	-2.0	100	-2.0	0	0	967.9	NA	0.0000	-SN BR	4500	260	1510	0	0
2019/05/18 11:53:00	BASE	6.09	124	6.94	119	-2.0	100	-2.0	0	0	967.9	NA	0.0000	-SN BR	4100	260	1440	0	0
2019/05/18 11:54:00	BASE	5.74	124	6.94	119	-2.0	100	-2.0	0	0	967.9	NA	0.0000	-SN BR	4100	260	1380	0	0
2019/05/18 11:55:00	BASE	5.76	123	6.94	119	-2.0	100	-2.0	0	0	967.9	NA	0.0000	-SN BR	4600	260	0	0	0
2019/05/18 11:56:00	BASE	6.32	123	7.41	122	-2.0	100	-2.0	0	0	967.9	NA	0.0000	-SN BR	4500	260	1380	0	0
2019/05/18 11:57:00	BASE	6.58	123	7.41	122	-2.1	100	-2.1	0	0	967.9	NA	0.0000	-SN BR	4200	260	1410	0	0
2019/05/18 11:58:00	BASE	6.10	125	7.41	122	-2.1	100	-2.1	0	0	967.9	NA	0.0000	-SN BR	4100	230	1410	0	0
2019/05/18 11:59:00	BASE	5.56	127	7.41	122	-2.1	100	-2.1	0	0	967.9	NA	0.0000	-SN BR	4500	230	0	0	0
2019/05/18 12:00:00	BASE	5.78	127	7.41	122	-2.1	100	-2.1	0	0	967.9	NA	0.0000	-SN BR	4600	200	0	0	0
2019/05/18 12:01:00	BASE	6.30	129	7.41	122	-2.1	100	-2.1	0	0	967.9	NA	0.0000	-SN BR	4400	200	0	0	0
2019/05/18 12:02:00	BASE	6.47	130	7.41	122	-2.1	100	-2.1	0	0	967.9	NA	0.0000	-SN BR	4500	230	0	0	0
2019/05/18 12:03:00	BASE	6.27	131	7.41	122	-2.1	100	-2.1	0	0	967.9	NA	0.0000	-SN BR	4200	200	0	0	0
2019/05/18 12:04:00	BASE	6.13	133	7.41	122	-2.0	100	-2.0	0	0	968.0	NA	0.0000	-SN BR	4000	200	0	0	0
2019/05/18 12:05:00	BASE	6.31	133	7.41	122	-2.0	100	-2.0	0	0	968.0	NA	0.0000	-SN BR	4100	0	0	0	2200
2019/05/18 12:06:00	BASE	6.13	133	7.36	122	-2.0	100	-2.0	0	0	968.1	NA	0.0000	-SN BR	3900	0	0	0	2590
2019/05/18 12:07:00	BASE	5.80	134	6.89	128	-2.0	100	-2.0	0	0	968.1	NA	0.0000	-SN BR	3900	0	0	0	3150
2019/05/18 12:08:00	BASE	5.36	138	6.89	128	-2.0	100	-2.0	0	0	968.1	NA	0.0000	-SN BR	4000	0	0	0	2200
2019/05/18 12:09:00	BASE	4.62	139	6.89	128	-2.0	100	-2.0	0	0	968.2	NA	0.0000	-SN BR	4000	0	0	0	2000
2019/05/18 12:10:00	BASE	4.28	141	6.89	128	-2.0	100	-2.0	0	0	968.2	NA	0.0000	-SN BR	4100	0	0	0	2030
2019/05/18 12:11:00	BASE	4.31	144	6.89	128	-2.0	100	-2.0	0	0	968.2	NA	0.0000	-SN BR	4300	0	0	0	2260
2019/05/18 12:12:00	BASE	4.04	145	6.69	130	-2.0	100	-2.0	0	0	968.2	NA	0.0000	-SN BR	4600	260	0	0	0
2019/05/18 12:13:00	BASE	3.52	146	6.69	130	-2.0	100	-2.0	0	0	968.2	NA	0.0000	-SN BR	5000	260	0	0	0
2019/05/18 12:14:00	BASE	2.98	141	6.69	130	-2.0	100	-2.0	0	0	968.2	NA	0.0000	-SN BR	5000	260	0	0	0
2019/05/18 12:15:00	BASE	2.75	136	6.38	132	-2.0	100	-2.0	0	0	968.2	NA	0.0000	-SN BR	4800	260	0	0	0
2019/05/18 12:16:00	BASE	2.65	136	6.22	136	-2.0	100	-2.0	0	0	968.2	NA	0.2540	-SN BR	5000	260	0	0	0
2019/05/18 12:17:00	BASE	2.33	142	5.45	139	-2.0	100	-2.0	0	0	968.2	NA	0.0000	-SN BR	5000	260	0	0	0
2019/05/18 12:18:00	BASE	2.01	148	4.73	145	-2.0	100	-2.0	0	0	968.2	NA	0.0000	-SN BR	5000	230	1570	0	0
2019/05/18 12:19:00	BASE	1.72	149	4.63	142	-2.0	100	-2.0	0	0	968.2	NA	0.0000	-SN BR	5000	260	0	0	0
2019/05/18 12:20:00	BASE	1.44	152	4.63	142	-2.0	100	-2.0	0	0	968.2	NA	0.0000	-SN BR	5000	260	0	0	0
2019/05/18 12:21:00	BASE	1.26	152	4.22	147	-2.0	100	-2.0	0	0	968.2	NA	0.0000	-SN BR	5000	260	2170	0	0
2019/05/18 12:22:00	BASE	1.07	150	3.60	147	-2.0	100	-2.0	0	0	968.2	NA	0.0000	-SN BR	6000	260	2170	0	0
2019/05/18 12:23:00	BASE	0.66	150	3.04	143	-2.0	100	-2.0	0	0	968.2	NA	0.0000	-SN BR	6000	260	950	0	0
2019/05/18 12:24:00	BASE	0.96	147	3.04	143	-2.0	100	-2.0	0	0	968.2	NA	0.2540	-SN BR	5000	260	2460	0	0
2019/05/18 12:25:00	BASE	1.65	143	3.04	143	-2.0	100	-2.0	0	0	968.2	NA	0.0000	-SN BR	5000	260	2530	0	0
2019/05/18 12:26:00	BASE	1.90	143	2.47	144	-2.0	100	-2.0	0	0	968.2	NA	0.0000	-SN BR	5000	300	2590	0	0
2019/05/18 12:27:00	BASE	2.29	144	2.62	145	-2.0	100	-2.0	0	0	968.2	NA	0.0000	-SN BR	5000	300	2620	0	0
2019/05/18 12:28:00	BASE	2.50	146	2.62	145	-2.0	100	-2.0	0	0	968.2	NA	0.0000	-SN BR	5000	330	0	0	0
2019/05/18 12:29:00	BASE	2.52	149	2.68	149	-2.1	100	-2.1	0	0	968.2	NA	0.0000	-SN BR	5000	300	2760	0	0
2019/05/18 12:30:00	BASE	2.59	151	2.73	151	-2.1	100	-2.1	0	0	968.3	NA	0.0000	-SN BR	6000	330	0	0	0
2019/05/18 12:31:00	BASE	2.59	154	2.73	156	-2.1	100	-2.1	0	0	968.2	NA	0.0000	-SN BR	6000	300	0	0	0
2019/05/18 12:32:00	BASE	2.51	155	2.73	156	-2.1	100	-2.1	0	0	968.2	NA	0.0000	-SN BR	5000	330	0	0	0
2019/05/18 12:33:00	BASE	2.39	153	2.73	156	-2.1	100	-2.1	0	0	968.2	NA	0.0000	-SN BR	6000	330	0	0	0
2019/05/18 12:34:00	BASE	2.15	149	2.73	156	-2.1	100	-2.1	0	0	968.2	NA	0.0000	-SN BR	7000	330	0	0	0
2019/05/18 12:35:00	BASE	1.79	147	2.73	156	-2.0	100	-2.0	0	0	968.2	NA	0.0000	-SN BR	7000	330	0	0	0
2019/05/18 12:36:00	BASE	1.22	135	2.73	156	-2.0	100	-2.0	0	0	968.2	NA	0.2540	-SN BR	6000	0	0	0	3310
2019/05/18 12:37:00	BASE	0.50	130	2.73	156	-2.0	100	-2.0	0	0	968.2	NA	0.0000	-SN BR	6000	300	0	0	0
2019/05/18 12:38:00	BASE	0.17	138	2.73	156	-2.1	100	-2.1	0	0	968.2	NA	0.0000	-SN BR	7000	330	0	0	0
2019/05/18 12:39:00	BASE	0.17	145	2.73	156	-2.1	100	-2.1	0	0	968.2	NA	0.0000	-SN BR	9999	360	0	0	0
2019/05/18 12:40:00	BASE	0.18	149	2.73	156	-2.1	100	-2.1	0	0	968.2	NA	0.0000	-SN BR	9999	330	0	0	0
2019/05/18 12:41:00	BASE	0.09	145	2.62	154	-2.1	100	-2.1	0	0	968.2	NA	0.0000	-SN BR	9999	300	0	0	0
2019/05/18 12:42:00	BASE	0.00	132	2.62	154	-2.1	100	-2.1	0	0	968.2	NA	0.0000	-SN BR	9000	300	0	0	0
2019/05/18 12:43:00	BASE	0.00	122	2.11	151	-2.1	100	-2.1	0	0	968.2	NA	0.0000	-SN BR	9999	300	0	0	0
2019/05/18 12:44:00	BASE	0.00	121	1.85	147	-2.1	100	-2.1	0	0	968.2	NA	0.0000	-SN BR	9999	300	0	0	0
2019/05/18 12:45:00	BASE	0.00	104	1.23	131	-2.1	100	-2.1	0	0	968.2	NA	0.0000	-SN BR	9999	300	0	0	0
2019/05/18 12:46:00	BASE	0.00	25	1.08	149	-2.1	100	-2.1	0	0	968.2	NA	0.0000	-SN BR	9999	300	0	0	0
2019/05/18 12:47:00	BASE	0.00	352	1.08	149	-2.1	100	-2.1	0	0	968.3	NA	0.0000	-SN BR	9999	260	0	0	0
2019/05/18 12:48:00	BASE	0.00	26	1.08	149	-2.1	100	-2.1	0	0	968.3	NA	0.0000	-SN	9000	260	0	0	0
2019/05/18 12:49:00	BASE	0.00	60	1.08	149	-2.1	100	-2.1	0	0	968.3	NA	0.0000	-SN BR	6000	230	0	0	0
2019/05/18 12:50:00	BASE	0.00	52	M	M	-2.1	100	-2.1	0	0	968.3	NA	0.0000	-SN BR	4300	200	0	0	0
2019/05/18 12:51:00	BASE	0.00	35	M	M	-2.1	100	-2.1	0	0	968.3	NA	0.0000	-SN BR	3500	0	0	0	2100
2019/05/18 12:52:00	BASE	0.00	63	M	M	-2.0	100	-2.0	0	0	968.3	NA	0.0000	-SN BR	3600	200	0	0	0
2019/05/18 12:53:00	BASE	0.00	124	M	M	-2.0	100	-2.0	0	0	968.3	NA	0.0000	-SN BR	3700	260	0	0	0
2019/05/18 12:54:00	BASE	0.00	142	M	M	-2.0	100	-2.0	0	0	968.3	NA	0.0000	-SN BR	3500	260	0	0	0
2019/05/18 12:55:00	BASE	0.00	152	M	M	-2.0	100	-2.0	0	0	968.3	NA	0.0000	-SN BR	3400	260	0	0	0
2019/05/18 12:56:00	BASE	0.00	158	M	M	-2.1	100	-2.1	0	0	968.3	NA	0.0000	-SN BR	3500	260	0	0	0
2019/05/18 12:57:00	BASE	0.00	158	M	M	-2.1	100	-2.1	0	0	968.3	NA	0.0000	-SN BR	3800	230	0	0	0
2019/05/18 12:58:00	BASE	0.00	158	M	M	-2.1	100	-2.1	0	0	968.3	NA	0.0000	-SN BR	3600	230	0	0	0
2019/05/18 12:59:00	BASE	0.00	156	M	M	-2.1	100	-2.1	0	0	968.3	NA	0.0000	-SN BR	3700	260	0	0	0
2019/05/18 13:00:00	BASE	0.00	138	M	M	-2.1	100	-2.1	0	0	968.3	NA	0.0000	-SN BR	4100	260	0	0	0
2019/05/18 13:01:00	BASE	0.00	112	M	M	-2.0	100	-2.0	0	0	968.4	NA	0.0000	-SN BR	4700	260	0	0	0
2019/05/18 13:02:00	BASE	0.00	100	M	M	-2.0	100	-2.0	0	0	968.3	NA	0.0000	-SN BR	5000	260	2400	0	0
2019/05/18 13:03:00	BASE	0.09	99	1.03	107	-2.0	100	-2.0	0	0	968.3	NA	0.0000	-SN BR	6000	300	0	0	0
2019/05/18 13:04:00	BASE	0.72	103	1.65	104	-2.0	100	-2.0	0	0	968.3	NA	0.0000	-SN BR	5000	300	0	0	0
2019/05/18 13:05:00	BASE	1.56	104	1.95	104	-2.0	100	-2.0	0	0	968.3	NA	0.0000	-SN BR	5000	300	0	0	0
2019/05/18 13:06:00	BASE	1.83	102	2.06	104	-2.0	100	-2.0	0	0	968.3	NA	0.0000	-SN BR	6000	0	0	0	3150
2019/05/18 13:07:00	BASE	2.05	102	2.62	99	-2.0	100	-2.0	0	0	968.4	NA	0.2540	-SN BR	6000	330	0	0	0
2019/05/18 13:08:00	BASE	2.24	100	2.62	99	-2.0	100	-2.0	0	0	968.4	NA	0.0000	-SN BR	7000	330	0	0	0
2019/05/18 13:09:00	BASE	2.12	100	2.62	99	-1.9	100	-1.9	0	0	968.4	NA	0.0000	-SN BR	7000	330	0	0	0
2019/05/18 13:10:00	BASE	1.99	103	2.62	99	-1.9	100	-1.9	1	0	968.4	NA	0.0000	-SN BR	7000	330	0	0	0
2019/05/18 13:11:00	BASE	2.08	104	3.09	107	-1.9	100	-1.9	1	0	968.4	NA	0.0000	-SN BR	7000	330	0	0	0
2019/05/18 13:12:00	BASE	2.66	104	3.55	107	-1.9	100	-1.9	1	0	968.3	NA	0.0000	-SN BR	9000	330	0	0	0
2019/05/18 13:13:00	BASE	2.96	109	3.55	107	-2.0	100	-2.0	1	0	968.4	NA	0.0000	-SN BR	8000	330	0	0	0
2019/05/18 13:14:00	BASE	2.81	113	3.55	107	-2.0	100	-2.0	1	0	968.4	NA	0.0000	-SN BR	8000	330	0	0	0
2019/05/18 13:15:00	BASE	2.58	108	3.55	107	-2.0	100	-2.0	1	0	968.4	NA	0.0000	-SN BR	8000	0	0	0	3080
2019/05/18 13:16:00	BASE	2.64	104	3.55	107	-2.0	100	-2.0	1	0	968.4	NA	0.0000	-SN BR	7000	0	0	0	3050
2019/05/18 13:17:00	BASE	2.88	107	3.55	107	-1.9	100	-1.9	1	0	968.4	NA	0.0000	-SN BR	7000	0	0	0	3080
2019/05/18 13:18:00	BASE	2.61	107	3.55	107	-1.9	100	-1.9	1	0	968.4	NA	0.0000	-SN BR	7000	330	0	0	0
2019/05/18 13:19:00	BASE	2.70	108	3.55	104	-1.9	100	-1.9	1	0	968.4	NA	0.0000	-SN BR	7000	330	0	0	0
2019/05/18 13:20:00	BASE	3.19	110	3.70	105	-1.9	100	-1.9	1	0	968.4	NA	0.0000	-SN BR	6000	300	0	0	0
2019/05/18 13:21:00	BASE	3.07	111	4.06	99	-1.9	100	-1.9	1	0	968.4	NA	0.0000	-SN BR	3300	300	0	0	0
2019/05/18 13:22:00	BASE	3.35	106	4.68	105	-1.9	100	-1.9	1	0	968.4	NA	0.0000	-SN BR	3100	300	0	0	0
2019/05/18 13:23:00	BASE	4.32	105	5.25	102	-1.8	100	-1.8	1	0	968.4	NA	0.0000	-SN BR	2900	300	0	0	0
2019/05/18 13:24:00	BASE	4.57	108	5.35	105	-1.8	100	-1.8	1	0	968.4	NA	0.0000	-SN BR	2500	300	1180	0	0
2019/05/18 13:25:00	BASE	4.60	111	6.12	120	-1.8	100	-1.8	1	0	968.4	NA	0.0000	-SN BR	2200	260	1150	0	0
2019/05/18 13:26:00	BASE	5.84	115	7.97	117	-1.8	100	-1.8	1	0	968.4	NA	0.0000	-SN BR	2100	0	0	0	1710
2019/05/18 13:27:00	BASE	6.99	114	7.97	117	-1.8	100	-1.8	1	0	968.4	NA	0.0000	-SN BR	2100	0	0	0	1670
2019/05/18 13:28:00	BASE	6.85	113	7.97	117	-1.8	100	-1.8	1	0	968.4	NA	0.0000	-SN BR	2000	0	0	0	1670
2019/05/18 13:29:00	BASE	6.64	114	7.97	117	-1.9	100	-1.9	1	0	968.4	NA	0.0000	-SN BR	2200	0	0	0	1540
2019/05/18 13:30:00	BASE	7.21	114	8.28	112	-1.9	100	-1.9	1	0	968.4	NA	0.0000	-SN BR	2200	0	0	0	1540
2019/05/18 13:31:00	BASE	7.71	113	8.28	112	-1.9	100	-1.9	1	0	968.4	NA	0.0000	-SN BR	2300	0	0	0	1540
2019/05/18 13:32:00	BASE	7.64	114	8.28	112	-1.9	100	-1.9	1	0	968.4	NA	0.0000	-SN BR	2100	0	0	0	1510
2019/05/18 13:33:00	BASE	7.43	116	8.28	112	-1.9	100	-1.9	1	0	968.4	NA	0.0000	-SN BR	2100	200	0	0	0
2019/05/18 13:34:00	BASE	7.46	118	8.54	118	-2.0	100	-2.0	1	0	968.4	NA	0.0000	-SN BR	2200	0	0	0	1510
2019/05/18 13:35:00	BASE	7.56	119	8.54	118	-2.0	100	-2.0	1	0	968.4	NA	0.0000	-SN BR	2100	0	0	0	1540
2019/05/18 13:36:00	BASE	7.41	120	8.54	118	-2.0	100	-2.0	1	0	968.4	NA	0.0000	-SN BR	2100	0	0	0	1570
2019/05/18 13:37:00	BASE	7.53	122	8.54	118	-2.0	100	-2.0	1	0	968.4	NA	0.0000	-SN BR	2000	0	0	0	1610
2019/05/18 13:38:00	BASE	7.26	124	8.54	118	-2.0	100	-2.0	2	0	968.4	NA	0.0000	-SN BR	1700	0	0	0	1610
2019/05/18 13:39:00	BASE	6.51	124	8.54	118	-2.1	100	-2.1	2	0	968.4	NA	0.2540	-SN BR	1700	0	0	0	1670
2019/05/18 13:40:00	BASE	6.07	126	8.54	118	-2.1	100	-2.1	2	0	968.4	NA	0.0000	-SN BR	1700	0	0	0	1770
2019/05/18 13:41:00	BASE	6.63	129	8.54	118	-2.1	100	-2.1	2	0	968.4	NA	0.0000	-SN BR	1700	0	0	0	1800
2019/05/18 13:42:00	BASE	7.40	128	8.54	118	-2.1	100	-2.1	2	0	968.4	NA	0.0000	-SN BR	1600	0	0	0	1970
2019/05/18 13:43:00	BASE	7.33	128	8.54	118	-2.1	100	-2.1	2	0	968.4	NA	0.0000	-SN BR	1700	0	0	0	2000
2019/05/18 13:44:00	BASE	7.43	124	8.95	113	-2.1	100	-2.1	2	0	968.4	NA	0.0000	-SN BR	1800	200	0	0	0
2019/05/18 13:45:00	BASE	8.06	119	10.34	113	-2.1	100	-2.1	2	0	968.3	NA	0.0000	-SN BR	1800	0	0	0	1970
2019/05/18 13:46:00	BASE	9.21	117	10.91	117	-2.2	100	-2.2	2	0	968.3	NA	0.0000	-SN BR	1600	0	0	0	1940
2019/05/18 13:47:00	BASE	10.32	111	11.21	111	-2.2	100	-2.2	2	0	968.3	NA	0.0000	-SN BR	1600	0	0	0	1970
2019/05/18 13:48:00	BASE	10.77	107	11.78	106	-2.2	100	-2.2	2	0	968.3	NA	0.0000	-SN BR	1600	0	0	0	1900
2019/05/18 13:49:00	BASE	11.08	105	11.78	106	-2.3	100	-2.3	2	0	968.3	NA	0.0000	-SN BR	1700	0	0	0	1870
2019/05/18 13:50:00	BASE	10.40	105	11.78	106	-2.3	100	-2.3	2	0	968.3	NA	0.0000	-SN BR	1700	0	0	0	1870
2019/05/18 13:51:00	BASE	9.21	106	11.78	106	-2.3	100	-2.3	2	0	968.4	NA	0.0000	-SN BR	1600	0	0	0	2030
2019/05/18 13:52:00	BASE	8.41	108	11.78	106	-2.3	100	-2.3	3	0	968.4	NA	0.0000	-SN BR	1400	0	0	0	2200
2019/05/18 13:53:00	BASE	7.94	112	11.78	106	-2.3	100	-2.3	3	0	968.4	NA	0.0000	-SN BR	1400	0	0	0	2260
2019/05/18 13:54:00	BASE	8.07	114	11.78	106	-2.3	100	-2.3	3	0	968.4	NA	0.0000	-SN BR	1300	0	0	0	2130
2019/05/18 13:55:00	BASE	8.58	114	11.78	106	-2.3	100	-2.3	3	0	968.4	NA	0.0000	-SN BR	1200	0	0	0	1970
2019/05/18 13:56:00	BASE	9.01	110	11.78	106	-2.3	100	-2.3	3	0	968.4	NA	0.0000	-SN BR	1100	0	0	0	2000
2019/05/18 13:57:00	BASE	8.75	108	11.78	106	-2.3	100	-2.3	3	0	968.4	NA	0.0000	-SN BR	1200	0	0	0	2070
2019/05/18 13:58:00	BASE	8.38	105	11.57	106	-2.3	100	-2.3	3	0	968.4	NA	0.0000	-SN BR	1400	0	0	0	1940
2019/05/18 13:59:00	BASE	8.20	104	10.75	104	-2.3	100	-2.3	4	0	968.3	NA	0.0000	-SN BR	1400	0	0	0	1800
2019/05/18 14:00:00	BASE	7.91	104	9.83	111	-2.3	100	-2.3	4	0	968.3	NA	0.0000	-SN BR	1600	0	0	0	1710
2019/05/18 14:01:00	BASE	7.75	103	9.83	111	-2.3	100	-2.3	4	0	968.4	NA	0.0000	-SN BR	1500	0	0	0	1670
2019/05/18 14:02:00	BASE	7.25	102	9.83	111	-2.3	100	-2.3	4	0	968.4	NA	0.0000	-SN BR	1400	0	0	0	1570
2019/05/18 14:03:00	BASE	6.76	103	9.83	111	-2.3	100	-2.3	4	0	968.4	NA	0.0000	-SN BR	1400	0	0	0	1540
2019/05/18 14:04:00	BASE	6.50	110	9.83	111	-2.3	100	-2.3	5	0	968.4	NA	0.0000	-SN BR	1400	0	0	0	1570
2019/05/18 14:05:00	BASE	6.67	115	9.83	111	-2.3	100	-2.3	5	0	968.4	NA	0.0000	-SN BR	1400	0	0	0	1640
2019/05/18 14:06:00	BASE	6.79	114	8.95	105	-2.3	100	-2.3	5	0	968.5	NA	0.0000	-SN BR	1400	0	0	0	1770
2019/05/18 14:07:00	BASE	6.44	116	8.75	102	-2.2	100	-2.2	5	0	968.5	NA	0.0000	-SN BR	1600	0	0	0	1840
2019/05/18 14:08:00	BASE	6.45	121	8.69	103	-2.2	100	-2.2	6	0	968.5	NA	0.0000	-SN BR	1700	0	0	0	1840
2019/05/18 14:09:00	BASE	6.30	123	8.69	103	-2.2	100	-2.2	6	0	968.5	NA	0.0000	-SN BR	1900	0	0	0	1800
2019/05/18 14:10:00	BASE	5.98	120	8.49	102	-2.1	100	-2.1	6	0	968.5	NA	0.0000	-SN BR	2200	0	0	0	1800
2019/05/18 14:11:00	BASE	5.47	118	7.72	120	-2.1	100	-2.1	7	0	968.5	NA	0.0000	-SN BR	2200	0	0	0	2100
2019/05/18 14:12:00	BASE	5.04	120	7.72	120	-2.1	100	-2.1	7	0	968.5	NA	0.0000	-SN BR	2400	0	0	0	2130
2019/05/18 14:13:00	BASE	4.81	122	7.72	120	-2.1	100	-2.1	7	0	968.5	NA	0.0000	-SN BR	2900	0	0	0	2400
2019/05/18 14:14:00	BASE	4.68	125	7.72	120	-2.1	100	-2.1	7	0	968.5	NA	0.0000	-SN BR	2900	0	0	0	2360
2019/05/18 14:15:00	BASE	5.02	126	6.94	119	-2.1	100	-2.1	7	0	968.5	NA	0.0000	-SN BR	3100	0	0	0	2260
2019/05/18 14:16:00	BASE	5.30	128	6.84	123	-2.1	100	-2.1	7	0	968.6	NA	0.0000	-SN BR	3200	0	0	0	2230
2019/05/18 14:17:00	BASE	5.14	135	6.84	123	-2.1	100	-2.1	7	0	968.6	NA	0.0000	-SN BR	3000	0	0	0	2170
2019/05/18 14:18:00	BASE	4.78	142	6.48	124	-2.1	100	-2.1	8	0	968.6	NA	0.0000	-SN BR	2500	0	0	0	1940
2019/05/18 14:19:00	BASE	4.23	139	6.28	115	-2.1	100	-2.1	8	0	968.6	NA	0.0000	-SN BR	2400	0	0	0	2000
2019/05/18 14:20:00	BASE	4.57	130	5.81	128	-2.1	100	-2.1	8	0	968.6	NA	0.0000	-SN BR	2600	0	0	0	1970
2019/05/18 14:21:00	BASE	5.10	128	5.81	128	-2.1	100	-2.1	8	0	968.5	NA	0.0000	-SN BR	2200	0	0	0	1940
2019/05/18 14:22:00	BASE	5.23	132	5.81	128	-2.1	100	-2.1	8	0	968.5	NA	0.0000	-SN BR	2000	0	0	0	2100
2019/05/18 14:23:00	BASE	5.15	138	5.81	128	-2.2	100	-2.2	8	0	968.6	NA	0.0000	-SN BR	2100	0	0	0	2000
2019/05/18 14:24:00	BASE	5.18	140	6.28	140	-2.3	100	-2.3	9	0	968.6	NA	0.0000	-SN BR	2100	0	0	0	1900
2019/05/18 14:25:00	BASE	5.50	137	6.28	140	-2.3	100	-2.3	9	0	968.6	NA	0.0000	-SN BR	2200	0	0	0	1870
2019/05/18 14:26:00	BASE	5.27	137	6.28	140	-2.3	100	-2.3	9	0	968.6	NA	0.0000	-SN BR	2000	0	0	0	1840
2019/05/18 14:27:00	BASE	5.07	139	6.28	140	-2.3	100	-2.3	10	0	968.6	NA	0.0000	-SN BR	2000	0	0	0	1970
2019/05/18 14:28:00	BASE	5.29	143	6.28	140	-2.3	100	-2.3	10	0	968.6	NA	0.0000	-SN BR	2100	0	0	0	2170
2019/05/18 14:29:00	BASE	5.65	148	6.28	140	-2.3	100	-2.3	11	0	968.6	NA	0.0000	-SN BR	2200	0	0	0	2170
2019/05/18 14:30:00	BASE	5.38	150	6.28	140	-2.3	100	-2.3	11	0	968.6	NA	0.0000	-SN BR	2100	0	0	0	2330
2019/05/18 14:31:00	BASE	5.02	151	6.28	140	-2.3	100	-2.3	11	0	968.6	NA	0.0000	-SN BR	2200	0	0	0	2230
2019/05/18 14:32:00	BASE	4.97	153	6.28	140	-2.3	100	-2.3	12	0	968.7	NA	0.0000	-SN BR	2200	0	0	0	2170
2019/05/18 14:33:00	BASE	4.84	150	6.28	140	-2.3	100	-2.3	12	0	968.7	NA	0.0000	-SN BR	2100	0	0	0	2130
2019/05/18 14:34:00	BASE	4.91	148	6.17	150	-2.3	100	-2.3	13	0	968.7	NA	0.0000	-SN BR	2200	0	0	0	2200
2019/05/18 14:35:00	BASE	4.66	147	6.17	150	-2.3	100	-2.3	13	0	968.7	NA	0.0000	-SN BR	2300	0	0	0	2170
2019/05/18 14:36:00	BASE	3.83	148	6.17	150	-2.3	100	-2.3	14	0	968.7	NA	0.0000	-SN BR	2300	0	0	0	2170
2019/05/18 14:37:00	BASE	2.71	145	6.17	150	-2.3	100	-2.3	14	0	968.7	NA	0.0000	-SN BR	2200	230	0	0	0
2019/05/18 14:38:00	BASE	2.41	135	6.17	150	-2.3	100	-2.3	14	0	968.7	NA	0.0000	-SN BR	2100	230	0	0	0
2019/05/18 14:39:00	BASE	2.47	126	5.50	150	-2.3	100	-2.3	15	0	968.7	NA	0.0000	-SN BR	2300	260	0	0	0
2019/05/18 14:40:00	BASE	2.70	107	5.50	150	-2.3	100	-2.3	15	0	968.7	NA	0.0000	-SN BR	2600	260	0	0	0
2019/05/18 14:41:00	BASE	3.65	91	5.50	150	-2.3	100	-2.3	15	0	968.7	NA	0.0000	-SN BR	3100	260	0	0	0
2019/05/18 14:42:00	BASE	4.20	88	5.50	150	-2.3	100	-2.3	16	0	968.7	NA	0.0000	-SN BR	3200	260	0	0	0
2019/05/18 14:43:00	BASE	4.52	89	5.35	150	-2.4	100	-2.4	16	0	968.7	NA	0.0000	-SN BR	3000	890	0	0	0
2019/05/18 14:44:00	BASE	4.61	90	4.99	90	-2.4	100	-2.4	16	0	968.7	NA	0.0000	-SN BR	2500	260	0	0	0
2019/05/18 14:45:00	BASE	4.41	92	4.99	90	-2.4	100	-2.4	16	0	968.7	NA	0.0000	-SN BR	2300	0	0	0	2300
2019/05/18 14:46:00	BASE	4.25	96	4.99	90	-2.4	100	-2.4	17	0	968.7	NA	0.0000	-SN BR	2200	0	0	0	2130
2019/05/18 14:47:00	BASE	3.97	99	4.99	90	-2.4	100	-2.4	17	0	968.7	NA	0.0000	-SN BR	2100	0	0	0	2130
2019/05/18 14:48:00	BASE	4.07	100	4.99	94	-2.4	100	-2.4	17	0	968.7	NA	0.0000	-SN BR	2200	0	0	0	2100
2019/05/18 14:49:00	BASE	5.04	103	6.74	103	-2.4	100	-2.4	17	0	968.7	NA	0.0000	-SN BR	2400	0	0	0	2200
2019/05/18 14:50:00	BASE	5.74	104	6.74	103	-2.4	100	-2.4	17	0	968.7	NA	0.0000	-SN BR	2600	0	0	0	2100
2019/05/18 14:51:00	BASE	6.24	101	7.36	97	-2.4	100	-2.4	17	0	968.7	NA	0.0000	-SN BR	2300	300	0	0	0
2019/05/18 14:52:00	BASE	7.10	99	7.82	99	-2.4	100	-2.4	17	0	968.7	NA	0.0000	-SN BR	2200	260	0	0	0
2019/05/18 14:53:00	BASE	7.97	99	9.21	95	-2.4	100	-2.4	17	0	968.7	NA	0.0000	-SN BR	2100	0	0	0	2070
2019/05/18 14:54:00	BASE	9.01	97	10.65	96	-2.4	100	-2.4	17	0	968.7	NA	0.0000	-SN BR	2100	260	0	0	0
2019/05/18 14:55:00	BASE	9.24	93	10.65	96	-2.4	100	-2.4	17	0	968.7	NA	0.0000	-SN BR	2200	230	0	0	0
2019/05/18 14:56:00	BASE	8.62	88	10.65	96	-2.4	100	-2.4	17	0	968.7	NA	0.0000	-SN BR	2100	0	0	0	1940
2019/05/18 14:57:00	BASE	8.29	89	10.65	96	-2.4	100	-2.4	17	0	968.7	NA	0.0000	-SN BR	1800	0	0	0	1940
2019/05/18 14:58:00	BASE	8.21	91	10.65	96	-2.4	100	-2.4	16	0	968.7	NA	0.0000	-SN BR	1700	0	0	0	1870
2019/05/18 14:59:00	BASE	8.07	87	10.65	96	-2.5	100	-2.5	16	0	968.7	NA	0.0000	-SN BR	1700	0	0	0	1770
2019/05/18 15:00:00	BASE	7.62	89	10.65	96	-2.5	100	-2.5	16	0	968.7	NA	0.0000	-SN BR	1900	260	0	0	0
2019/05/18 15:01:00	BASE	6.94	96	10.65	96	-2.5	100	-2.5	16	0	968.7	NA	0.0000	-SN BR	2000	0	0	0	1800
2019/05/18 15:02:00	BASE	6.53	97	10.65	96	-2.5	100	-2.5	17	0	968.7	NA	0.0000	-SN BR	1500	0	0	0	1800
2019/05/18 15:03:00	BASE	7.34	99	10.65	96	-2.5	100	-2.5	17	0	968.7	NA	0.0000	-SN BR	1100	0	0	0	1770
2019/05/18 15:04:00	BASE	8.03	97	9.77	95	-2.5	100	-2.5	18	0	968.7	NA	0.0000	-SN BR	1100	0	0	0	1770
2019/05/18 15:05:00	BASE	9.34	93	12.71	85	-2.5	100	-2.5	19	0	968.6	NA	0.0000	-SN BR	1300	0	0	0	1800
2019/05/18 15:06:01	BASE	10.64	93	12.71	85	-2.5	100	-2.5	20	0	968.6	NA	0.0000	-SN BR	1500	0	0	0	1940
2019/05/18 15:07:00	BASE	11.01	94	12.71	85	-2.5	100	-2.5	22	0	968.6	NA	0.0000	-SN BR	1900	0	0	0	2070
2019/05/18 15:08:00	BASE	10.78	93	12.71	85	-2.5	100	-2.5	24	0	968.6	NA	0.0000	-SN BR	2100	0	0	0	2200
2019/05/18 15:09:00	BASE	10.54	94	12.71	85	-2.5	100	-2.5	26	0	968.6	NA	0.0000	-SN BR	2200	230	0	0	0
2019/05/18 15:10:00	BASE	11.68	92	13.27	92	-2.5	100	-2.5	28	0	968.6	NA	0.0000	-SN BR	2200	0	0	0	3510
2019/05/18 15:11:00	BASE	11.86	92	13.38	90	-2.5	100	-2.5	29	0	968.7	NA	0.0000	-SN BR	2600	0	0	0	4070
2019/05/18 15:12:00	BASE	11.18	94	13.38	90	-2.5	100	-2.5	30	0	968.7	NA	0.0000	-SN BR	2400	0	0	0	4300
2019/05/18 15:13:00	BASE	10.83	96	13.38	90	-2.5	100	-2.5	30	0	968.7	NA	0.0000	-SN BR	2200	230	0	0	0
2019/05/18 15:14:00	BASE	10.62	98	13.38	90	-2.5	100	-2.5	31	0	968.7	NA	0.0000	-SN BR	2200	230	0	0	0
2019/05/18 15:15:00	BASE	9.71	102	13.38	90	-2.5	100	-2.5	32	0	968.7	NA	0.0000	-SN BR	2500	300	0	0	0
2019/05/18 15:16:00	BASE	8.96	104	13.38	90	-2.5	100	-2.5	32	0	968.7	NA	0.0000	-SN BR	2900	0	0	0	3710
2019/05/18 15:17:00	BASE	9.37	101	13.38	90	-2.5	100	-2.5	33	0	968.7	NA	0.0000	-SN BR	3000	0	0	0	3900
2019/05/18 15:18:00	BASE	10.50	97	13.38	90	-2.5	100	-2.5	33	0	968.7	NA	0.0000	-SN BR	2900	0	0	0	3810
2019/05/18 15:19:00	BASE	10.60	95	13.38	90	-2.5	100	-2.5	33	0	968.7	NA	0.0000	-SN BR	3100	0	0	0	3710
2019/05/18 15:20:00	BASE	10.01	97	13.38	90	-2.5	100	-2.5	33	0	968.7	NA	0.0000	-SN BR	3100	0	0	0	3250
2019/05/18 15:21:00	BASE	10.47	98	12.40	97	-2.6	100	-2.6	33	0	968.7	NA	0.0000	-SN BR	3100	0	0	0	2950
2019/05/18 15:22:00	BASE	10.96	96	12.40	97	-2.6	100	-2.6	33	0	968.7	NA	0.0000	-SN BR	2800	0	0	0	2720
2019/05/18 15:23:00	BASE	11.00	95	12.40	97	-2.6	100	-2.6	33	0	968.7	NA	0.0000	-SN BR	2600	0	0	0	2660
2019/05/18 15:24:00	BASE	10.45	97	12.40	97	-2.6	100	-2.6	33	0	968.7	NA	0.0000	-SN BR	2300	0	0	0	2660
2019/05/18 15:25:00	BASE	9.44	99	12.40	97	-2.6	100	-2.6	33	0	968.7	NA	0.0000	-SN BR	2100	0	0	0	2330
2019/05/18 15:26:00	BASE	9.82	97	12.40	89	-2.6	100	-2.6	33	0	968.7	NA	0.0000	-SN BR	1800	0	0	0	2070
2019/05/18 15:27:00	BASE	10.40	97	12.40	89	-2.6	100	-2.6	34	0	968.7	NA	0.0000	-SN BR	1700	0	0	0	1970
2019/05/18 15:28:00	BASE	9.86	99	12.40	89	-2.6	100	-2.6	34	0	968.7	NA	0.0000	-SN BR	1600	0	0	0	1900
2019/05/18 15:29:00	BASE	9.83	101	12.40	89	-2.6	100	-2.6	35	0	968.7	NA	0.0000	-SN BR	1500	0	0	0	1710
2019/05/18 15:30:00	BASE	10.25	102	12.40	89	-2.6	100	-2.6	35	0	968.7	NA	0.0000	-SN BR	1400	0	0	0	1770
2019/05/18 15:31:00	BASE	10.70	103	12.40	89	-2.6	100	-2.6	36	0	968.7	NA	0.0000	-SN BR	1500	0	0	0	1740
2019/05/18 15:32:00	BASE	11.93	102	14.97	93	-2.6	100	-2.6	36	0	968.7	NA	0.0000	-SN BR	1400	0	0	0	1710
2019/05/18 15:33:00	BASE	12.81	108	14.97	93	-2.6	100	-2.6	36	0	968.6	NA	0.0000	-SN BR	1300	0	0	0	1480
2019/05/18 15:34:00	BASE	12.38	113	14.97	93	-2.6	100	-2.6	36	0	968.6	NA	0.0000	-SN BR	1200	0	0	0	1770
2019/05/18 15:35:00	BASE	12.20	116	14.97	93	-2.5	100	-2.5	35	0	968.6	NA	0.0000	-SN BR	1300	0	0	0	1800
2019/05/18 15:36:00	BASE	12.14	115	14.97	93	-2.5	100	-2.5	35	0	968.7	NA	0.0000	-SN BR	1400	0	0	0	1710
2019/05/18 15:37:00	BASE	11.50	112	14.97	93	-2.5	100	-2.5	34	0	968.7	NA	0.0000	-SN BR	1300	0	0	0	1710
2019/05/18 15:38:00	BASE	10.64	118	14.97	93	-2.5	100	-2.5	33	0	968.7	NA	0.0000	-SN BR	1100	0	0	0	1900
2019/05/18 15:39:00	BASE	11.28	119	14.97	110	-2.5	100	-2.5	31	0	968.7	NA	0.0000	-SN BR	1300	0	0	0	1870
2019/05/18 15:40:00	BASE	13.31	111	15.23	109	-2.5	100	-2.5	30	0	968.7	NA	0.0000	-SN BR	1500	0	0	0	1870
2019/05/18 15:41:00	BASE	13.44	111	15.23	109	-2.5	100	-2.5	29	0	968.7	NA	0.0000	-SN BR	1400	0	0	0	1870
2019/05/18 15:42:00	BASE	11.86	111	15.23	109	-2.5	100	-2.5	28	0	968.7	NA	0.0000	-SN BR	1700	0	0	0	1900
2019/05/18 15:43:00	BASE	10.71	109	15.23	109	-2.6	100	-2.6	27	0	968.7	NA	0.0000	-SN BR	1900	0	0	0	1940
2019/05/18 15:44:00	BASE	10.45	110	15.23	109	-2.6	100	-2.6	27	0	968.7	NA	0.0000	-SN BR	1700	0	0	0	1970
2019/05/18 15:45:00	BASE	10.98	107	15.23	109	-2.6	100	-2.6	26	0	968.7	NA	0.0000	-SN BR	1600	0	0	0	2000
2019/05/18 15:46:00	BASE	11.97	106	15.23	109	-2.6	100	-2.6	25	0	968.7	NA	0.0000	-SN BR	1500	0	0	0	1770
2019/05/18 15:47:00	BASE	12.34	105	15.23	109	-2.6	100	-2.6	24	0	968.7	NA	0.0000	-SN BR	1400	0	0	0	1800
2019/05/18 15:48:00	BASE	11.49	103	15.23	109	-2.6	100	-2.6	24	0	968.7	NA	0.0000	-SN BR	1400	0	0	0	1740
2019/05/18 15:49:00	BASE	10.76	103	15.23	109	-2.6	100	-2.6	23	0	968.7	NA	0.0000	-SN BR	1600	0	0	0	2330
2019/05/18 15:50:00	BASE	10.87	102	13.27	109	-2.6	100	-2.6	23	0	968.7	NA	0.0000	-SN BR	1600	0	0	0	2030
2019/05/18 15:51:00	BASE	10.85	102	13.17	107	-2.6	100	-2.6	22	0	968.7	NA	0.0000	-SN BR	1500	0	0	0	1940
2019/05/18 15:52:00	BASE	10.31	102	13.17	107	-2.5	100	-2.5	23	0	968.7	NA	0.0000	-SN BR	1600	0	0	0	2170
2019/05/18 15:53:00	BASE	9.75	104	13.17	107	-2.5	100	-2.5	23	0	968.7	NA	0.0000	-SN BR	1600	0	0	0	2560
2019/05/18 15:54:00	BASE	9.50	108	13.17	107	-2.5	100	-2.5	24	0	968.7	NA	0.0000	-SN BR	1600	0	0	0	2760
2019/05/18 15:55:00	BASE	9.83	113	13.17	107	-2.5	100	-2.5	25	0	968.7	NA	0.0000	-SN BR	1700	0	0	0	3350
2019/05/18 15:56:00	BASE	9.75	113	13.07	105	-2.5	100	-2.5	25	0	968.7	NA	0.0000	-SN BR	1900	0	0	0	4040
2019/05/18 15:57:00	BASE	9.32	112	11.88	109	-2.5	100	-2.5	26	0	968.7	NA	0.0000	-SN BR	2100	0	0	0	5480
2019/05/18 15:58:00	BASE	9.05	113	11.88	109	-2.5	100	-2.5	26	0	968.7	NA	0.0000	-SN BR	2200	0	0	0	5540
2019/05/18 15:59:00	BASE	8.96	114	11.83	103	-2.5	100	-2.5	26	0	968.6	NA	0.0000	-SN BR	2200	0	0	0	5540
2019/05/18 16:00:00	BASE	8.42	114	11.01	113	-2.5	100	-2.5	26	0	968.6	NA	0.0000	-SN BR	2100	0	0	0	5710
2019/05/18 16:01:00	BASE	7.64	118	11.01	113	-2.5	100	-2.5	26	0	968.6	NA	0.0000	-SN BR	2200	200	0	0	0
2019/05/18 16:02:00	BASE	7.02	125	11.01	113	-2.5	100	-2.5	26	0	968.6	NA	0.0000	-SN BR	2500	200	0	0	0
2019/05/18 16:03:00	BASE	6.60	134	11.01	113	-2.5	100	-2.5	27	0	968.6	NA	0.0000	-SN BR	2800	260	0	0	0
2019/05/18 16:04:00	BASE	6.73	138	11.01	113	-2.5	100	-2.5	27	0	968.6	NA	0.0000	-SN BR	3600	330	0	0	0
2019/05/18 16:05:00	BASE	7.14	139	10.44	110	-2.5	100	-2.5	27	0	968.6	NA	0.0000	-SN BR	5000	520	4040	0	0
2019/05/18 16:06:00	BASE	7.61	139	10.44	110	-2.5	100	-2.5	26	0	968.6	NA	0.0000	-SN BR	9999	0	0	0	5740
2019/05/18 16:07:00	BASE	7.45	133	10.19	114	-2.5	100	-2.5	26	0	968.6	NA	0.0000	-SN BR	9999	390	4000	0	0
2019/05/18 16:08:00	BASE	6.73	128	10.19	114	-2.4	100	-2.4	26	0	968.6	NA	0.0000	-SN BR	9999	390	0	0	0
2019/05/18 16:09:00	BASE	7.01	131	8.90	130	-2.4	100	-2.4	25	0	968.6	NA	0.0000	-SN BR	9999	390	0	0	0
2019/05/18 16:10:00	BASE	8.45	134	12.35	142	-2.4	100	-2.4	24	0	968.6	NA	0.0000	-SN BR	9999	390	0	0	0
2019/05/18 16:11:00	BASE	8.82	142	12.35	142	-2.4	100	-2.4	24	0	968.5	NA	0.0000	-SN BR	9999	390	0	0	0
2019/05/18 16:12:00	BASE	9.09	149	12.35	142	-2.4	100	-2.4	24	0	968.5	NA	0.0000	-SN BR	9999	3120	0	0	0
2019/05/18 16:13:00	BASE	8.88	144	12.35	142	-2.4	100	-2.4	24	0	968.5	NA	0.0000	-SN BR	9999	2950	0	0	0
2019/05/18 16:14:00	BASE	9.41	139	13.58	147	-2.4	100	-2.4	24	0	968.5	NA	0.0000	-SN	9999	1940	0	0	0
2019/05/18 16:15:00	BASE	12.61	130	20.73	107	-2.4	100	-2.4	23	0	968.5	NA	0.0000	-SN	9999	1900	0	0	0
2019/05/18 16:16:00	BASE	18.32	112	23.61	106	-2.3	100	-2.3	23	0	968.5	NA	0.0000	-SN SQ	7000	2000	0	0	0
2019/05/18 16:17:00	BASE	21.95	105	24.08	107	-2.3	100	-2.3	22	0	968.5	NA	0.0000	-SN SQ	8000	0	0	0	4760
2019/05/18 16:18:00	BASE	20.69	109	24.08	107	-2.3	100	-2.3	22	0	968.5	NA	0.0000	-SN BR SQ	7000	2720	0	0	0
2019/05/18 16:19:00	BASE	18.78	111	24.08	107	-2.4	100	-2.4	21	0	968.6	NA	0.0000	-SN BR	9999	1540	0	0	0
2019/05/18 16:20:00	BASE	17.91	113	24.08	107	-2.4	100	-2.4	21	0	968.6	NA	0.0000	-SN	9999	1740	0	0	0
2019/05/18 16:21:00	BASE	16.26	116	24.08	107	-2.4	100	-2.4	21	0	968.6	NA	0.0000	-SN	9999	2330	0	0	0
2019/05/18 16:22:00	BASE	14.44	117	24.08	107	-2.3	100	-2.3	20	0	968.6	NA	0.0000	-SN	9999	2490	0	0	0
2019/05/18 16:23:00	BASE	15.12	115	24.08	107	-2.3	100	-2.3	20	0	968.6	NA	0.0000	-SN	9999	2000	0	0	0
2019/05/18 16:24:00	BASE	14.51	113	24.08	107	-2.2	100	-2.2	20	0	968.7	NA	0.0000	-SN	9999	2070	0	0	0
2019/05/18 16:25:00	BASE	12.67	116	24.08	107	-2.2	100	-2.2	19	0	968.7	NA	0.0000	-SN	9999	2430	0	0	0
2019/05/18 16:26:00	BASE	13.68	117	24.08	107	-2.2	100	-2.2	19	0	968.6	NA	0.0000	-SN	9999	1840	0	0	0
2019/05/18 16:27:00	BASE	15.63	119	22.28	114	-2.1	100	-2.1	18	0	968.6	NA	0.0000	-SN	9999	0	0	0	4170
2019/05/18 16:28:00	BASE	16.43	125	20.37	116	-2.1	100	-2.1	17	0	968.6	NA	0.0000	-SN	9999	0	0	0	4430
2019/05/18 16:29:00	BASE	16.44	128	20.37	116	-2.1	100	-2.1	16	0	968.6	NA	0.0000	-SN	9999	0	0	0	4200
2019/05/18 16:30:00	BASE	15.51	128	18.88	128	-2.1	100	-2.1	16	0	968.6	NA	0.0000	-SN	9999	0	0	0	4070
2019/05/18 16:31:00	BASE	15.10	125	18.88	128	-2.1	100	-2.1	16	0	968.6	NA	0.0000	-SN	9999	0	0	0	4040
2019/05/18 16:32:00	BASE	14.99	123	18.88	128	-2.1	100	-2.1	16	0	968.6	NA	0.0000	-SN	9999	0	0	0	4300
2019/05/18 16:33:00	BASE	13.95	127	18.88	128	-2.1	100	-2.1	17	0	968.6	NA	0.0000	-SN	9999	0	0	0	4400
2019/05/18 16:34:00	BASE	12.69	125	18.88	128	-2.1	100	-2.1	17	0	968.6	NA	0.0000		9999	0	0	0	4360
2019/05/18 16:35:00	BASE	13.39	123	18.88	128	-2.1	100	-2.1	18	0	968.6	NA	0.0000		9999	3900	0	0	0
2019/05/18 16:36:00	BASE	14.67	121	18.88	128	-2.0	100	-2.0	19	0	968.5	NA	0.0000		9999	0	0	0	4000
2019/05/18 16:37:00	BASE	16.14	117	19.70	115	-2.0	100	-2.0	21	0	968.5	NA	0.0000		9999	0	0	0	3310
2019/05/18 16:38:00	BASE	17.01	117	19.70	115	-2.0	100	-2.0	22	0	968.5	NA	0.0000		9999	0	0	0	4230
2019/05/18 16:39:00	BASE	16.30	123	19.70	115	-2.0	100	-2.0	24	0	968.5	NA	0.0000		9999	0	0	0	5020
2019/05/18 16:40:00	BASE	15.15	123	19.70	115	-2.0	100	-2.0	25	0	968.6	NA	0.0000		9999	3580	0	0	0
2019/05/18 16:41:00	BASE	14.70	118	19.70	115	-2.0	100	-2.0	26	0	968.5	NA	0.0000		9999	3450	0	0	0
2019/05/18 16:42:00	BASE	15.08	119	19.70	115	-2.0	100	-2.0	28	0	968.5	NA	0.0000		9999	3670	0	0	0
2019/05/18 16:43:00	BASE	15.05	116	19.70	115	-2.0	100	-2.1	29	0	968.5	NA	0.0000		9999	2590	0	0	0
2019/05/18 16:44:00	BASE	14.46	121	19.70	115	-2.0	99	-2.1	29	0	968.5	NA	0.0000		9000	3480	5020	0	0
2019/05/18 16:45:00	BASE	12.69	131	19.70	115	-2.1	99	-2.1	30	0	968.6	NA	0.0000		8000	4300	5090	0	0
2019/05/18 16:46:00	BASE	11.16	126	19.70	115	-2.1	99	-2.1	31	0	968.6	NA	0.0000		9000	4690	0	0	0
2019/05/18 16:47:00	BASE	11.73	117	18.93	116	-2.0	99	-2.1	32	0	968.6	NA	0.0000		9000	2230	4400	5150	0
2019/05/18 16:48:00	BASE	12.01	123	18.16	109	-2.0	99	-2.1	33	0	968.6	NA	0.0000		9999	4130	5350	0	0
2019/05/18 16:49:00	BASE	11.46	137	18.16	109	-2.0	99	-2.1	34	0	968.5	NA	0.0000		9999	2820	0	0	0
2019/05/18 16:50:00	BASE	11.32	139	18.16	109	-2.0	99	-2.1	35	0	968.6	NA	0.0000		9999	2990	0	0	0
2019/05/18 16:51:00	BASE	11.33	129	18.16	109	-2.0	99	-2.1	36	0	968.6	NA	0.0000		9999	4130	0	0	0
2019/05/18 16:52:00	BASE	11.90	127	18.16	109	-1.9	98	-2.2	37	0	968.6	NA	0.0000		9999	2130	0	0	0
2019/05/18 16:53:00	BASE	11.71	133	17.44	115	-1.9	98	-2.2	38	0	968.6	NA	0.0000		9999	3410	0	0	0
2019/05/18 16:54:00	BASE	11.11	135	14.40	115	-1.9	97	-2.3	39	0	968.6	NA	0.0000		9999	2170	4130	0	0
2019/05/18 16:55:00	BASE	10.80	137	14.40	115	-1.9	97	-2.3	40	0	968.6	NA	0.0000		9999	4100	0	0	0
2019/05/18 16:56:00	BASE	10.16	139	14.40	115	-2.0	97	-2.4	41	0	968.5	NA	0.0000		9999	4360	0	0	0
2019/05/18 16:57:00	BASE	10.09	131	13.74	126	-2.0	97	-2.4	42	0	968.5	NA	0.0000		9999	3410	0	0	0
2019/05/18 16:58:00	BASE	11.54	117	15.69	110	-2.0	97	-2.4	42	0	968.5	NA	0.0000		9999	3870	0	0	0
2019/05/18 16:59:00	BASE	14.22	106	18.88	99	-2.1	97	-2.5	43	0	968.5	NA	0.0000		9999	3640	7710	0	0
2019/05/18 17:00:00	BASE	14.16	101	18.88	99	-2.1	97	-2.6	43	0	968.5	NA	0.0000		9999	7480	0	0	0
2019/05/18 17:01:00	BASE	12.54	101	18.88	99	-2.2	97	-2.6	44	0	968.4	NA	0.0000		9000	7680	22470	0	0
2019/05/18 17:02:00	BASE	12.68	98	18.88	99	-2.2	97	-2.7	44	0	968.4	NA	0.0000		9000	7870	0	0	0
2019/05/18 17:03:00	BASE	13.23	94	18.88	99	-2.2	96	-2.7	45	0	968.3	NA	0.0000		9000	7940	0	0	0
2019/05/18 17:04:00	BASE	14.03	91	18.88	99	-2.2	96	-2.7	45	0	968.3	NA	0.0000		9000	7680	0	0	0
2019/05/18 17:05:00	BASE	14.54	94	18.88	99	-2.2	96	-2.7	45	0	968.3	NA	0.0000	BR	8000	7480	0	0	0
2019/05/18 17:06:00	BASE	14.47	99	18.88	99	-2.2	96	-2.7	45	0	968.3	NA	0.0000	BR	8000	7510	0	0	0
2019/05/18 17:07:00	BASE	15.40	92	21.30	86	-2.2	95	-2.8	45	0	968.2	NA	0.0000	BR	7000	4360	7510	0	0
2019/05/18 17:08:00	BASE	18.60	85	22.48	86	-2.2	95	-2.8	45	0	968.1	NA	0.0000	BR	6000	4460	7640	0	0
2019/05/18 17:09:00	BASE	19.75	83	22.48	86	-2.2	95	-2.9	45	0	968.1	NA	0.0000	BR	5000	4430	7610	0	0
2019/05/18 17:10:00	BASE	19.14	81	24.23	79	-2.2	95	-2.9	44	0	968.1	NA	0.0000	-SN BR	4400	4690	7280	0	0
2019/05/18 17:11:00	BASE	19.70	83	24.23	79	-2.2	95	-3.0	44	0	968.1	NA	0.0000	-SN BR	3700	7280	0	0	0
2019/05/18 17:12:00	BASE	19.99	87	24.23	79	-2.2	95	-3.0	43	0	968.1	NA	0.0000	-SN BR	3300	4660	7420	0	0
2019/05/18 17:13:00	BASE	18.54	91	24.23	79	-2.3	95	-3.0	42	0	968.2	NA	0.0000	-SN BR	3700	4630	7350	0	0
2019/05/18 17:14:00	BASE	16.65	95	24.23	79	-2.3	95	-3.1	42	0	968.2	NA	0.0000	-SN BR	4900	4460	7320	0	0
2019/05/18 17:15:00	BASE	16.44	97	24.23	79	-2.4	95	-3.0	41	0	968.1	NA	0.0000	-SN BR	5000	4360	7320	0	0
2019/05/18 17:16:00	BASE	19.95	98	25.67	95	-2.4	95	-3.0	41	0	968.1	NA	0.0000	-SN BR	3600	4130	7220	0	0
2019/05/18 17:17:00	BASE	22.69	96	25.67	95	-2.4	96	-3.0	40	0	968.1	NA	0.0000	-SN BR	3000	7320	0	0	0
2019/05/18 17:18:00	BASE	21.76	94	25.67	95	-2.4	96	-3.0	40	0	968.1	NA	0.0000	-SN BR	3700	7090	0	0	0
2019/05/18 17:19:00	BASE	20.07	92	25.67	95	-2.4	96	-3.0	40	0	968.1	NA	0.0000	-SN BR	4300	6790	0	0	0
2019/05/18 17:20:00	BASE	18.58	90	25.67	95	-2.5	96	-3.0	39	0	968.1	NA	0.0000	-SN BR	4400	7250	0	0	0
2019/05/18 17:21:00	BASE	17.99	84	25.67	95	-2.4	96	-3.0	39	0	968.1	NA	0.0000	-SN BR	4000	7050	0	0	0
2019/05/18 17:22:00	BASE	18.17	83	25.67	95	-2.4	96	-3.0	38	0	968.1	NA	0.0000	-SN BR	3700	6920	0	0	0
2019/05/18 17:23:00	BASE	20.69	83	25.67	95	-2.4	96	-3.0	38	0	968.0	NA	0.0000	-SN BR	3400	6920	0	0	0
2019/05/18 17:24:00	BASE	22.78	81	25.67	95	-2.4	96	-3.0	37	0	967.9	NA	0.0000	-SN BR	2600	6630	0	0	0
2019/05/18 17:25:00	BASE	22.88	80	25.67	95	-2.4	96	-3.0	37	0	968.0	NA	0.0000	-SN BR	2100	6730	0	0	0
2019/05/18 17:26:00	BASE	23.12	81	27.78	79	-2.4	96	-3.0	36	0	968.0	NA	0.0000	-SN BR	2200	6730	0	0	0
2019/05/18 17:27:00	BASE	23.53	86	27.78	79	-2.5	96	-3.0	36	0	967.9	NA	0.0000	-SN BR	2200	6890	0	0	0
2019/05/18 17:28:00	BASE	23.21	86	27.78	79	-2.5	96	-3.1	36	0	967.9	NA	0.0000	-SN BR	2300	6960	0	0	0
2019/05/18 17:29:00	BASE	22.46	84	27.78	79	-2.5	96	-3.1	36	0	967.9	NA	0.0000	-SN BR	2900	7450	0	0	0
2019/05/18 17:30:00	BASE	21.93	83	27.78	79	-2.6	96	-3.1	36	0	967.9	NA	0.0000	-SN BR	2900	7090	0	0	0
2019/05/18 17:31:00	BASE	20.71	84	27.78	79	-2.6	96	-3.1	36	0	967.9	NA	0.0000	-SN BR	2900	6400	7250	0	0
2019/05/18 17:32:00	BASE	20.06	79	27.78	79	-2.5	97	-3.0	36	0	967.9	NA	0.0000	-SN BR	2900	7090	0	0	0
2019/05/18 17:33:00	BASE	20.55	77	27.78	79	-2.5	97	-2.9	36	0	967.8	NA	0.0000	-SN BR	2800	6460	7450	0	0
2019/05/18 17:34:00	BASE	21.08	79	27.78	79	-2.4	97	-2.8	36	0	967.8	NA	0.0000	-SN BR	2700	6730	0	0	0
2019/05/18 17:35:00	BASE	20.78	81	27.78	79	-2.3	97	-2.8	36	0	967.9	NA	0.0000	-SN BR	2600	6560	7280	0	0
2019/05/18 17:36:00	BASE	20.42	83	26.19	86	-2.2	96	-2.8	36	0	967.9	NA	0.0000	-SN BR	2600	6920	0	0	0
2019/05/18 17:37:00	BASE	19.08	88	24.85	88	-2.2	96	-2.8	36	0	968.0	NA	0.0000	-SN BR	2500	6140	0	0	0
2019/05/18 17:38:00	BASE	18.41	89	24.38	79	-2.1	95	-2.8	37	0	967.9	NA	0.0000	-SN BR	2400	6860	0	0	0
2019/05/18 17:39:00	BASE	17.54	86	24.38	79	-2.1	94	-2.9	37	0	967.9	NA	0.0000	-SN BR	2400	7220	0	0	0
2019/05/18 17:40:00	BASE	16.83	88	23.92	76	-2.0	94	-2.9	37	0	968.0	NA	0.0000	-SN BR	2900	7250	0	0	0
2019/05/18 17:41:00	BASE	20.30	89	25.98	88	-2.0	93	-3.0	38	0	967.9	NA	0.0000	-SN BR	3100	7220	0	0	0
2019/05/18 17:42:00	BASE	22.11	88	25.98	88	-2.0	92	-3.1	38	0	968.0	NA	0.0000	-SN BR	2500	6990	0	0	0
2019/05/18 17:43:00	BASE	21.14	86	25.98	88	-2.0	91	-3.3	39	0	968.0	NA	0.0000	-SN BR	2500	7150	0	0	0
2019/05/18 17:44:00	BASE	20.85	84	25.98	88	-2.1	91	-3.4	39	0	968.0	NA	0.0000	-SN BR	2500	5940	7090	22870	0
2019/05/18 17:45:00	BASE	20.74	86	25.98	88	-2.2	90	-3.6	39	0	968.1	NA	0.0000	-SN BR	2500	7150	0	0	0
2019/05/18 17:46:00	BASE	21.43	87	25.98	88	-2.2	90	-3.7	39	0	968.1	NA	0.0000	-SN BR	2500	7190	0	0	0
2019/05/18 17:47:00	BASE	20.51	85	25.98	88	-2.3	90	-3.7	38	0	968.1	NA	0.0000	-SN BR	2400	7050	0	0	0
2019/05/18 17:48:00	BASE	21.34	86	26.65	92	-2.3	90	-3.7	38	0	968.1	NA	0.0000	-SN BR	2400	7120	0	0	0
2019/05/18 17:49:00	BASE	22.17	90	26.65	92	-2.4	91	-3.7	38	0	968.2	NA	0.0000	-SN BR	2300	7090	0	0	0
2019/05/18 17:50:00	BASE	20.13	93	26.65	92	-2.4	91	-3.7	37	0	968.2	NA	0.0000	-SN BR	2300	6890	0	0	0
2019/05/18 17:51:00	BASE	19.20	94	26.65	92	-2.5	91	-3.7	37	0	968.3	NA	0.0000	-SN BR	2300	6920	0	0	0
2019/05/18 17:52:00	BASE	18.29	96	26.65	92	-2.5	91	-3.8	36	0	968.2	NA	0.0000	-SN BR	2300	6330	7020	0	0
2019/05/18 17:53:00	BASE	17.59	96	26.65	92	-2.6	92	-3.7	36	0	968.3	NA	0.0000	-SN BR	2200	6330	0	0	0
2019/05/18 17:54:00	BASE	15.73	98	26.65	92	-2.6	92	-3.7	35	0	968.3	NA	0.0000	-SN BR	2200	6820	0	0	0
2019/05/18 17:55:00	BASE	13.88	103	26.65	92	-2.6	93	-3.6	34	0	968.3	NA	0.0000	-SN BR	2500	6820	0	0	0
2019/05/18 17:56:00	BASE	14.14	105	26.65	92	-2.6	93	-3.6	33	0	968.4	NA	0.0000	-SN BR	3100	6820	0	0	0
2019/05/18 17:57:00	BASE	15.44	107	26.65	92	-2.6	93	-3.6	32	0	968.4	NA	0.0000	-SN BR	3100	6200	0	0	0
2019/05/18 17:58:00	BASE	16.66	110	22.33	90	-2.6	93	-3.6	31	0	968.4	NA	0.0000	BR	3000	6200	0	0	0
2019/05/18 17:59:00	BASE	17.44	112	22.33	90	-2.6	94	-3.5	30	0	968.5	NA	0.0000	BR	3000	6820	0	0	0
2019/05/18 18:00:00	BASE	19.84	117	23.30	122	-2.6	94	-3.5	28	0	968.4	NA	0.0000	BR	3000	6790	0	0	0
2019/05/18 18:01:00	BASE	21.86	122	24.18	115	-2.6	94	-3.5	27	0	968.3	NA	0.0000	BR	2900	6960	0	0	0
2019/05/18 18:02:00	BASE	21.60	119	24.18	115	-2.6	94	-3.5	26	0	968.3	NA	0.0000	BR	2900	6990	0	0	0
2019/05/18 18:03:00	BASE	20.85	116	24.18	115	-2.6	94	-3.5	25	0	968.4	NA	0.0000	-SN BR	2800	6920	0	0	0
2019/05/18 18:04:00	BASE	19.49	119	24.18	115	-2.7	94	-3.5	24	0	968.4	NA	0.0000	-SN BR	2800	6860	0	0	0
2019/05/18 18:05:00	BASE	17.83	120	24.18	115	-2.7	94	-3.5	23	0	968.5	NA	0.0000	-SN BR	2800	6860	0	0	0
2019/05/18 18:06:00	BASE	15.55	120	24.18	115	-2.7	95	-3.5	22	0	968.5	NA	0.0000	-SN BR	2800	6790	0	0	0
2019/05/18 18:07:00	BASE	13.51	121	24.18	115	-2.7	95	-3.4	20	0	968.5	NA	0.0000	-SN BR	2600	6820	0	0	0
2019/05/18 18:08:00	BASE	14.14	115	24.18	115	-2.7	95	-3.4	19	0	968.6	NA	0.0000	-SN BR	2500	6760	0	0	0
2019/05/18 18:09:00	BASE	17.06	112	24.18	115	-2.7	95	-3.3	19	0	968.5	NA	0.0000	-SN BR	2500	6660	0	0	0
2019/05/18 18:10:00	BASE	18.80	113	24.18	115	-2.6	95	-3.3	18	0	968.6	NA	0.0000	-SN BR	2500	6430	0	0	0
2019/05/18 18:11:00	BASE	17.98	113	23.30	119	-2.6	95	-3.3	17	0	968.6	NA	0.0000	BR	2500	6460	0	0	0
2019/05/18 18:12:00	BASE	15.48	114	22.33	116	-2.6	95	-3.3	17	0	968.6	NA	0.0000	BR	2500	6690	0	0	0
2019/05/18 18:13:00	BASE	14.84	116	21.35	110	-2.6	95	-3.3	16	0	968.7	NA	0.0000	BR	2600	6860	0	0	0
2019/05/18 18:14:00	BASE	14.83	118	21.35	110	-2.6	95	-3.3	16	0	968.7	NA	0.0000	BR	2800	6630	0	0	0
2019/05/18 18:15:00	BASE	13.51	116	21.35	110	-2.5	94	-3.3	15	0	968.7	NA	0.0000	BR	2800	6860	0	0	0
2019/05/18 18:16:00	BASE	12.15	106	21.35	110	-2.5	94	-3.3	15	0	968.7	NA	0.0000	BR	2800	6860	0	0	0
2019/05/18 18:17:00	BASE	12.74	98	21.35	110	-2.5	94	-3.3	15	0	968.8	NA	0.0000	BR	2900	6890	0	0	0
2019/05/18 18:18:00	BASE	14.01	99	21.35	110	-2.5	94	-3.3	14	0	968.8	NA	0.0000	BR	2700	6920	0	0	0
2019/05/18 18:19:00	BASE	12.93	106	20.47	113	-2.5	93	-3.4	14	0	968.8	NA	0.0000	BR	2600	6890	0	0	0
2019/05/18 18:20:00	BASE	13.71	112	19.09	117	-2.4	93	-3.4	13	0	968.8	NA	0.0000	BR	2600	6790	0	0	0
2019/05/18 18:21:00	BASE	15.51	107	18.88	110	-2.4	93	-3.5	13	0	968.7	NA	0.0000	BR	2500	6860	0	0	0
2019/05/18 18:22:00	BASE	15.80	102	18.88	110	-2.5	92	-3.6	13	0	968.7	NA	0.0000	BR	2600	6820	0	0	0
2019/05/18 18:23:00	BASE	15.55	101	20.73	94	-2.5	92	-3.6	12	0	968.7	NA	0.0000	BR	2700	6890	0	0	0
2019/05/18 18:24:00	BASE	17.54	100	21.81	99	-2.6	92	-3.6	12	0	968.7	NA	0.0000	BR	2700	6890	0	0	0
2019/05/18 18:25:00	BASE	19.44	102	21.81	99	-2.6	92	-3.7	12	0	968.7	NA	0.0000	BR	2700	6790	0	0	0
2019/05/18 18:26:00	BASE	18.16	105	21.81	99	-2.6	93	-3.7	11	0	968.7	NA	0.0000	-SN BR	2400	6790	0	0	0
2019/05/18 18:27:00	BASE	16.20	107	21.81	99	-2.7	93	-3.7	11	0	968.7	NA	0.0000	-SN BR	2200	6730	0	0	0
2019/05/18 18:28:00	BASE	15.51	105	21.81	99	-2.7	93	-3.6	11	0	968.7	NA	0.0000	-SN BR	2200	6430	0	0	0
2019/05/18 18:29:00	BASE	14.71	107	21.81	99	-2.7	93	-3.6	11	0	968.7	NA	0.0000	-SN BR	2400	6040	6990	0	0
2019/05/18 18:30:00	BASE	13.64	106	21.81	99	-2.7	94	-3.6	11	0	968.7	NA	0.0000	-SN BR	2700	6300	0	0	0
2019/05/18 18:31:00	BASE	15.74	100	21.81	99	-2.8	94	-3.6	10	0	968.7	NA	0.0000	-SN BR	2700	5970	7280	0	0
2019/05/18 18:32:00	BASE	16.70	97	21.81	99	-2.8	94	-3.6	10	0	968.7	NA	0.0000	-SN BR	2700	5840	0	0	0
2019/05/18 18:33:00	BASE	17.62	91	22.28	90	-2.8	95	-3.5	10	0	968.6	NA	0.0000	-SN BR	2700	5770	0	0	0
2019/05/18 18:34:00	BASE	20.77	85	25.57	81	-2.8	95	-3.5	10	0	968.6	NA	0.0000	-SN BR	2700	5680	7610	0	0
2019/05/18 18:35:00	BASE	22.11	84	25.57	81	-2.8	95	-3.5	10	0	968.6	NA	0.0000	-SN BR	1700	5580	7680	0	0
2019/05/18 18:36:00	BASE	22.38	86	25.57	81	-2.8	95	-3.4	10	0	968.6	NA	0.0000	-SN BR	1400	5610	0	0	0
2019/05/18 18:37:00	BASE	21.71	89	25.57	81	-2.7	95	-3.4	9	0	968.7	NA	0.0000	-SN BR	1600	5580	7840	0	0
2019/05/18 18:38:00	BASE	22.37	90	26.49	98	-2.7	95	-3.4	9	0	968.6	NA	0.0000	-SN BR	1400	5680	7190	0	0
2019/05/18 18:39:00	BASE	23.17	92	26.49	98	-2.8	95	-3.4	9	0	968.7	NA	0.0000	-SN BR	1400	5740	7350	0	0
2019/05/18 18:40:00	BASE	22.15	91	26.49	98	-2.8	96	-3.4	9	0	968.7	NA	0.0000	-SN BR	1900	5280	7420	0	0
2019/05/18 18:41:00	BASE	22.28	91	26.49	98	-2.8	96	-3.4	8	0	968.7	NA	0.0000	-SN BR	2100	5640	7380	0	0
2019/05/18 18:42:00	BASE	22.91	93	26.49	98	-2.8	96	-3.3	8	0	968.7	NA	0.0000	-SN BR	2200	5320	0	0	0
2019/05/18 18:43:00	BASE	22.93	90	26.49	98	-2.8	96	-3.3	8	0	968.7	NA	0.0000	-SN BR	2000	5050	0	0	0
2019/05/18 18:44:00	BASE	22.20	83	26.49	98	-2.8	96	-3.3	8	0	968.7	NA	0.0000	-SN BR	2000	5250	0	0	0
2019/05/18 18:45:00	BASE	20.69	83	26.49	98	-2.7	96	-3.2	7	0	968.7	NA	0.0000	-SN BR	2300	5350	0	0	0
2019/05/18 18:46:00	BASE	19.12	87	26.49	98	-2.7	96	-3.2	7	0	968.7	NA	0.0000	-SN BR	2500	4460	0	0	0
2019/05/18 18:47:00	BASE	20.32	91	26.49	98	-2.7	96	-3.2	7	0	968.7	NA	0.0000	-SN BR	2500	5540	0	0	0
2019/05/18 18:48:00	BASE	21.65	92	25.98	84	-2.7	96	-3.3	7	0	968.7	NA	0.0000	-SN BR	2500	5540	0	0	0
2019/05/18 18:49:00	BASE	19.97	92	25.98	84	-2.7	96	-3.3	6	0	968.7	NA	0.0000	-SN BR	2600	5580	0	0	0
2019/05/18 18:50:00	BASE	21.42	90	29.48	89	-2.7	96	-3.3	6	0	968.6	NA	0.0000	-SN BR	2600	5540	0	0	0
2019/05/18 18:51:00	BASE	24.16	83	29.48	89	-2.7	96	-3.3	5	0	968.6	NA	0.0000	-SN BR	1800	5410	0	0	0
2019/05/18 18:52:00	BASE	23.50	81	29.48	89	-2.7	96	-3.3	5	0	968.6	NA	0.0000	-SN BR	1600	4230	0	0	0
2019/05/18 18:53:00	BASE	22.32	87	29.48	89	-2.7	96	-3.3	5	0	968.7	NA	0.0000	-SN BR	1900	6230	0	0	0
2019/05/18 18:54:00	BASE	22.81	89	29.48	89	-2.7	96	-3.3	4	0	968.7	NA	0.0000	-SN BR	1900	5540	0	0	0
2019/05/18 18:55:00	BASE	22.83	86	29.48	89	-2.7	96	-3.3	4	0	968.7	NA	0.0000	-SN BR	1900	6920	0	0	0
2019/05/18 18:56:00	BASE	24.65	86	30.82	91	-2.8	96	-3.4	4	0	968.6	NA	0.0000	-SN BR	1500	6630	0	0	0
2019/05/18 18:57:00	BASE	24.73	89	30.82	91	-2.8	96	-3.4	4	0	968.7	NA	0.0000	-SN BR	1400	6500	0	0	0
2019/05/18 18:58:00	BASE	22.61	90	30.82	91	-2.9	96	-3.5	3	0	968.7	NA	0.0000	-SN BR	1800	6820	0	0	0
2019/05/18 18:59:00	BASE	23.31	89	30.82	91	-2.9	96	-3.5	3	0	968.7	NA	0.0000	-SN BR	1800	3900	0	0	0
2019/05/18 19:00:00	BASE	23.53	86	30.82	91	-3.0	96	-3.5	3	0	968.7	NA	0.0000	-SN BR	1800	4000	0	0	0
2019/05/18 19:01:00	BASE	23.87	83	30.82	91	-3.0	97	-3.5	3	0	968.7	NA	0.0000	-SN BR	1800	3940	0	0	0
2019/05/18 19:02:00	BASE	23.06	85	30.82	91	-3.0	97	-3.4	3	0	968.7	NA	0.0000	-SN BR	1800	3410	0	0	0
2019/05/18 19:03:00	BASE	22.16	87	30.82	91	-3.0	97	-3.4	2	0	968.7	NA	0.0000	-SN BR	1900	3610	0	0	0
2019/05/18 19:04:00	BASE	23.24	85	30.82	91	-2.9	97	-3.4	2	0	968.7	NA	0.0000	-SN BR	2000	3180	6760	0	0
2019/05/18 19:05:00	BASE	24.18	88	30.82	91	-2.9	97	-3.3	2	0	968.8	NA	0.0000	-SN BR	2000	4400	0	0	0
2019/05/18 19:06:00	BASE	23.40	91	28.45	83	-2.9	97	-3.3	2	0	968.8	NA	0.0000	-SN BR	2500	6860	0	0	0
2019/05/18 19:07:00	BASE	24.42	90	31.18	81	-2.9	97	-3.3	2	0	968.7	NA	0.0000	-SN BR	2500	5970	0	0	0
2019/05/18 19:08:00	BASE	25.40	87	31.18	81	-3.0	97	-3.4	2	0	968.7	NA	0.0000	-SN BR	1800	6790	0	0	0
2019/05/18 19:09:00	BASE	24.83	86	31.18	81	-3.0	97	-3.4	2	0	968.7	NA	0.0000	-SN BR	1600	6140	6860	0	0
2019/05/18 19:10:00	BASE	24.25	87	31.18	81	-3.0	97	-3.4	2	0	968.7	NA	0.0000	-SN BR	1900	6000	6860	0	0
2019/05/18 19:11:00	BASE	24.64	85	32.41	77	-3.1	98	-3.4	2	0	968.7	NA	0.0000	-SN BR	1500	5940	6730	0	0
2019/05/18 19:12:00	BASE	25.09	85	32.41	77	-3.1	98	-3.4	2	0	968.7	NA	0.0000	-SN BR	1400	5840	0	0	0
2019/05/18 19:13:00	BASE	22.78	90	32.41	77	-3.1	98	-3.4	1	0	968.8	NA	0.0000	-SN BR	2000	5810	0	0	0
2019/05/18 19:14:00	BASE	21.35	92	32.41	77	-3.1	98	-3.4	1	0	968.8	NA	0.0000	-SN BR	2200	5770	0	0	0
2019/05/18 19:15:00	BASE	22.23	89	32.41	77	-3.1	98	-3.4	1	0	968.8	NA	0.0000	-SN BR	2200	6430	0	0	0
2019/05/18 19:16:00	BASE	22.83	85	32.41	77	-3.1	98	-3.3	1	0	968.8	NA	0.0000	-SN BR	2100	5610	0	0	0
2019/05/18 19:17:00	BASE	21.89	88	32.41	77	-3.1	99	-3.3	1	0	968.8	NA	0.0000	-SN BR	2100	5810	6430	0	0
2019/05/18 19:18:00	BASE	20.82	91	32.41	77	-3.1	99	-3.3	1	0	968.9	NA	0.0000	-SN BR	2100	5450	0	0	0
2019/05/18 19:19:00	BASE	22.54	89	32.41	77	-3.1	99	-3.2	1	0	968.8	NA	0.0000	-SN BR	2100	5740	6330	0	0
2019/05/18 19:20:00	BASE	23.00	90	32.41	77	-3.0	98	-3.2	1	0	968.8	NA	0.0000	-SN BR	2100	5770	0	0	0
2019/05/18 19:21:00	BASE	20.53	90	28.76	80	-3.0	98	-3.3	1	0	968.9	NA	0.0000	-SN BR	2000	5580	6300	0	0
2019/05/18 19:22:00	BASE	19.44	91	28.76	80	-3.0	98	-3.3	1	0	968.9	NA	0.0000	-SN BR	2000	5640	6400	7090	0
2019/05/18 19:23:00	BASE	20.26	97	28.76	80	-3.0	98	-3.3	1	0	968.9	NA	0.0000	-SN BR	2000	5380	7610	0	0
2019/05/18 19:24:00	BASE	20.41	96	28.29	89	-3.0	98	-3.3	1	0	968.9	NA	0.0000	BR	2000	6000	7320	0	0
2019/05/18 19:25:00	BASE	20.97	94	28.29	89	-3.0	97	-3.4	1	0	968.9	NA	0.0000	BR	2000	5740	0	0	0
2019/05/18 19:26:00	BASE	23.39	89	28.29	89	-3.1	97	-3.4	1	0	968.8	NA	0.0000	BR	1900	5540	0	0	0
2019/05/18 19:27:00	BASE	23.16	85	28.29	89	-3.1	97	-3.5	1	0	968.9	NA	0.0000	BR	3200	5540	0	0	0
2019/05/18 19:28:00	BASE	22.64	84	28.29	89	-3.1	97	-3.5	1	0	968.8	NA	0.0000	-SN BR	3200	5540	0	0	0
2019/05/18 19:29:00	BASE	23.00	82	27.42	73	-3.1	97	-3.5	1	0	968.9	NA	0.0000	-SN BR	3200	5710	0	0	0
2019/05/18 19:30:00	BASE	23.60	83	27.57	82	-3.1	97	-3.5	1	0	968.8	NA	0.0000	-SN BR	3100	5480	6170	0	0
2019/05/18 19:31:00	BASE	23.47	83	27.57	82	-3.1	97	-3.5	1	0	968.9	NA	0.0000	-SN BR	3000	5380	6460	8040	0
2019/05/18 19:32:00	BASE	22.66	80	27.57	82	-3.1	97	-3.5	1	0	968.9	NA	0.0000	-SN BR	2900	5610	6430	8300	0
2019/05/18 19:33:00	BASE	24.05	82	28.45	84	-3.1	97	-3.5	1	0	968.9	NA	0.0000	-SN BR	2900	5680	6430	8370	0
2019/05/18 19:34:00	BASE	23.85	84	28.45	84	-3.1	97	-3.5	1	0	968.9	NA	0.0000	-SN BR	2900	5610	6400	0	0
2019/05/18 19:35:00	BASE	23.57	85	29.07	90	-3.1	97	-3.6	1	0	968.9	NA	0.0000	-SN BR	2900	5510	6400	0	0
2019/05/18 19:36:00	BASE	25.07	84	29.07	90	-3.1	96	-3.6	0	0	968.8	NA	0.0000	-SN BR	2900	5510	0	0	0
2019/05/18 19:37:00	BASE	25.12	84	29.07	90	-3.1	96	-3.6	0	0	968.9	NA	0.0000	-SN BR	3100	5450	0	0	0
2019/05/18 19:38:00	BASE	23.96	84	29.07	90	-3.1	96	-3.6	0	0	968.9	NA	0.0000	-SN BR	3300	5220	0	0	0
2019/05/18 19:39:00	BASE	22.81	83	29.07	90	-3.1	96	-3.6	0	0	969.0	NA	0.0000	-SN BR	3300	5320	6170	0	0
2019/05/18 19:40:00	BASE	22.39	84	29.07	90	-3.1	96	-3.6	0	0	969.0	NA	0.0000	-SN BR	3300	5510	6200	0	0
2019/05/18 19:41:00	BASE	23.84	83	29.07	90	-3.1	96	-3.6	0	0	968.9	NA	0.0000	-SN BR	3300	5480	0	0	0
2019/05/18 19:42:00	BASE	24.52	84	29.07	90	-3.1	96	-3.7	0	0	969.0	NA	0.0000	-SN BR	3200	5580	0	0	0
2019/05/18 19:43:00	BASE	23.30	85	29.07	90	-3.0	95	-3.7	0	0	969.0	NA	0.0000	-SN BR	3200	5380	0	0	0
2019/05/18 19:44:00	BASE	22.28	85	29.07	90	-3.0	95	-3.7	0	0	969.1	NA	0.0000	-SN BR	3200	5090	0	0	0
2019/05/18 19:45:00	BASE	21.96	86	28.04	87	-3.0	95	-3.7	0	0	969.1	NA	0.0000	-SN BR	3200	5350	0	0	0
2019/05/18 19:46:00	BASE	21.66	84	28.04	87	-3.0	95	-3.7	0	0	969.1	NA	0.0000	-SN BR	3200	5220	0	0	0
2019/05/18 19:47:00	BASE	22.87	84	29.73	86	-3.0	94	-3.8	0	0	969.1	NA	0.0000	-SN BR	3200	5380	0	0	0
2019/05/18 19:48:00	BASE	23.64	87	29.73	86	-3.0	94	-3.8	0	0	969.1	NA	0.0000	BR	3200	5280	0	0	0
2019/05/18 19:49:00	BASE	22.35	88	29.73	86	-3.0	94	-3.9	0	0	969.2	NA	0.0000	-SN BR	3200	5540	0	0	0
2019/05/18 19:50:00	BASE	23.29	88	29.73	86	-3.1	94	-3.9	0	0	969.2	NA	0.0000	-SN BR	3100	5120	6000	0	0
2019/05/18 19:51:00	BASE	23.74	90	29.73	86	-3.1	94	-3.9	0	0	969.2	NA	0.0000	-SN BR	3100	5320	0	0	0
2019/05/18 19:52:00	BASE	23.10	90	29.73	86	-3.1	94	-3.9	0	0	969.2	NA	0.0000	-SN BR	3100	5510	0	0	0
2019/05/18 19:53:00	BASE	22.27	88	29.73	86	-3.1	94	-3.9	0	0	969.2	NA	0.0000	BR	3100	5480	0	0	0
2019/05/18 19:54:00	BASE	21.66	87	29.73	86	-3.1	94	-3.9	0	0	969.3	NA	0.0000	BR	3100	5320	0	0	0
2019/05/18 19:55:00	BASE	20.98	87	29.73	86	-3.1	95	-3.9	0	0	969.3	NA	0.0000	BR	3100	4990	0	0	0
2019/05/18 19:56:00	BASE	22.21	88	29.73	86	-3.1	95	-3.9	0	0	969.3	NA	0.0000	BR	3000	5510	0	0	0
2019/05/18 19:57:00	BASE	25.10	88	31.59	86	-3.1	95	-3.8	0	0	969.3	NA	0.0000	BR	3000	5480	6330	0	0
2019/05/18 19:58:00	BASE	24.10	87	31.59	86	-3.1	95	-3.8	0	0	969.4	NA	0.0000	-SN BR	3100	5220	0	0	0
2019/05/18 19:59:00	BASE	22.84	89	31.59	86	-3.1	95	-3.8	0	0	969.4	NA	0.0000	BR	3100	5220	0	0	0
2019/05/18 20:00:00	BASE	22.76	92	31.59	86	-3.2	95	-3.9	0	0	969.4	NA	0.0000	BR	3100	4920	0	0	0
2019/05/18 20:01:00	BASE	22.52	92	31.59	86	-3.2	95	-3.9	0	0	969.4	NA	0.0000	-SN BR	3100	5510	0	0	0
2019/05/18 20:02:00	BASE	22.41	90	31.59	86	-3.2	95	-3.9	0	0	969.4	NA	0.0000	-SN BR	3000	5740	0	0	0
2019/05/18 20:03:00	BASE	23.70	88	31.59	86	-3.2	96	-3.8	0	0	969.4	NA	0.0000	-SN BR	3000	5840	0	0	0
2019/05/18 20:04:00	BASE	23.91	88	31.59	86	-3.2	96	-3.8	0	0	969.5	NA	0.0000	-SN BR	3000	5680	0	0	0
2019/05/18 20:05:00	BASE	23.25	89	31.59	86	-3.3	96	-3.8	0	0	969.4	NA	0.0000	-SN BR	3000	6140	0	0	0
2019/05/18 20:06:00	BASE	26.37	89	31.69	86	-3.3	96	-3.8	0	0	969.4	NA	0.0000	-SN BR	2600	6040	0	0	0
2019/05/18 20:07:00	BASE	27.32	89	31.69	86	-3.3	96	-3.8	0	0	969.4	NA	0.0000	-SN BR	2400	6000	0	0	0
2019/05/18 20:08:00	BASE	25.82	89	31.69	86	-3.3	96	-3.8	0	0	969.4	NA	0.0000	-SN BR	2600	6070	0	0	0
2019/05/18 20:09:00	BASE	25.12	89	31.69	86	-3.3	96	-3.8	0	0	969.4	NA	0.0000	-SN BR	2600	6100	0	0	0
2019/05/18 20:10:00	BASE	24.46	86	31.69	86	-3.3	97	-3.8	0	0	969.5	NA	0.0000	-SN BR	2600	6070	0	0	0
2019/05/18 20:11:00	BASE	24.65	85	31.69	86	-3.4	97	-3.8	0	0	969.5	NA	0.0000	-SN BR	2700	6140	0	0	0
2019/05/18 20:12:00	BASE	24.79	86	31.69	86	-3.4	97	-3.8	0	0	969.5	NA	0.0000	-SN BR	3000	6140	0	0	0
2019/05/18 20:13:00	BASE	25.19	85	31.69	86	-3.4	97	-3.8	0	0	969.4	NA	0.0000	-SN BR	3600	4790	0	0	0
2019/05/18 20:14:00	BASE	24.68	86	31.69	86	-3.4	97	-3.8	0	0	969.5	NA	0.0000	-SN BR	3500	5710	0	0	0
2019/05/18 20:15:00	BASE	23.51	89	31.69	86	-3.4	97	-3.8	0	0	969.6	NA	0.0000	-SN BR	3500	5640	0	0	0
2019/05/18 20:16:00	BASE	23.27	90	31.12	80	-3.4	97	-3.8	0	0	969.6	NA	0.0000	-SN BR	3400	5680	0	0	0
2019/05/18 20:17:00	BASE	24.11	90	31.12	80	-3.4	97	-3.8	0	0	969.5	NA	0.0000	-SN BR	3400	4860	0	0	0
2019/05/18 20:18:00	BASE	24.39	88	31.12	80	-3.4	97	-3.8	0	0	969.6	NA	0.0000	-SN BR	2900	5350	0	0	0
2019/05/18 20:19:00	BASE	24.53	88	31.12	80	-3.4	97	-3.8	0	0	969.5	NA	0.0000	-SN BR	2400	5220	0	0	0
2019/05/18 20:20:00	BASE	24.16	89	31.12	80	-3.5	97	-3.8	0	0	969.6	NA	0.0000	-SN BR	2700	5250	0	0	0
2019/05/18 20:21:00	BASE	25.66	89	31.69	85	-3.5	97	-3.8	0	0	969.5	NA	0.0000	-SN BR	2400	5410	0	0	0
2019/05/18 20:22:00	BASE	27.58	87	31.69	85	-3.5	98	-3.8	0	0	969.6	NA	0.0000	-SN BR	2200	5870	0	0	0
2019/05/18 20:23:00	BASE	26.20	87	31.69	85	-3.5	98	-3.8	0	0	969.6	NA	0.0000	-SN BR	2600	5840	0	0	0
2019/05/18 20:24:00	BASE	26.03	89	31.69	85	-3.5	98	-3.8	0	0	969.6	NA	0.0000	-SN BR	3000	5710	0	0	0
2019/05/18 20:25:00	BASE	25.50	88	31.69	85	-3.5	98	-3.8	0	0	969.7	NA	0.0000	-SN BR	3300	5640	0	0	0
2019/05/18 20:26:00	BASE	25.04	87	31.69	85	-3.5	98	-3.7	0	0	969.7	NA	0.0000	-SN BR	3300	5540	0	0	0
2019/05/18 20:27:00	BASE	24.95	87	31.69	85	-3.4	98	-3.7	0	0	969.7	NA	0.0000	-SN BR	3200	5540	0	0	0
2019/05/18 20:28:00	BASE	24.90	87	31.69	85	-3.4	98	-3.7	0	0	969.7	NA	0.0000	-SN BR	3200	5250	0	0	0
2019/05/18 20:29:00	BASE	25.68	87	31.69	85	-3.4	98	-3.7	0	0	969.7	NA	0.0000	-SN BR	3200	5120	0	0	0
2019/05/18 20:30:00	BASE	25.33	89	31.69	85	-3.4	98	-3.7	0	0	969.7	NA	0.0000	-SN BR	3200	4490	0	0	0
2019/05/18 20:31:00	BASE	24.51	87	30.87	82	-3.4	98	-3.7	0	0	969.7	NA	0.0000	-SN BR	3100	4860	0	0	0
2019/05/18 20:32:00	BASE	23.35	85	30.35	81	-3.4	98	-3.7	0	0	969.8	NA	0.0000	-SN BR	3100	5510	0	0	0
2019/05/18 20:33:00	BASE	23.60	87	30.35	81	-3.4	97	-3.8	0	0	969.8	NA	0.0000	-SN BR	3300	5540	6100	0	0
2019/05/18 20:34:00	BASE	23.42	91	30.35	81	-3.4	97	-3.8	0	0	969.8	NA	0.0000	-SN BR	3500	5350	7280	0	0
2019/05/18 20:35:00	BASE	23.79	90	30.35	81	-3.4	97	-3.8	0	0	969.8	NA	0.0000	-SN BR	3500	5450	0	0	0
2019/05/18 20:36:00	BASE	24.88	87	29.79	92	-3.4	97	-3.8	0	0	969.8	NA	0.0000	-SN BR	3500	4920	6860	0	0
2019/05/18 20:37:00	BASE	23.66	86	29.79	92	-3.4	97	-3.8	0	0	969.8	NA	0.0000	-SN BR	3400	5120	7120	0	0
2019/05/18 20:38:00	BASE	23.48	86	29.79	92	-3.4	97	-3.8	0	0	969.9	NA	0.0000	-SN BR	3400	5150	0	0	0
2019/05/18 20:39:00	BASE	24.40	86	29.63	87	-3.4	97	-3.8	0	0	969.8	NA	0.0000	-SN BR	3400	4820	6370	0	0
2019/05/18 20:40:00	BASE	24.58	87	29.63	87	-3.4	97	-3.9	0	0	969.8	NA	0.0000	-SN BR	3400	6370	0	0	0
2019/05/18 20:41:00	BASE	24.44	87	29.63	87	-3.5	97	-3.9	0	0	969.8	NA	0.0000	-SN BR	3300	6230	0	0	0
2019/05/18 20:42:00	BASE	23.43	88	29.63	87	-3.5	97	-3.9	0	0	969.9	NA	0.0000	-SN BR	3300	6000	0	0	0
2019/05/18 20:43:00	BASE	23.88	87	29.63	87	-3.5	97	-3.9	0	0	969.9	NA	0.0000	-SN BR	3300	5480	0	0	0
2019/05/18 20:44:00	BASE	25.44	88	29.63	87	-3.5	97	-3.9	0	0	969.9	NA	0.0000	-SN BR	3300	5320	6270	0	0
2019/05/18 20:45:00	BASE	23.90	89	29.07	85	-3.5	97	-3.9	0	0	970.0	NA	0.0000	-SN BR	3300	5610	6330	0	0
2019/05/18 20:46:00	BASE	22.08	85	29.07	85	-3.4	97	-3.8	0	0	970.0	NA	0.0000	-SN BR	3300	5710	0	0	0
2019/05/18 20:47:00	BASE	23.46	86	29.07	85	-3.4	97	-3.8	0	0	970.0	NA	0.0000	-SN BR	3300	5810	0	0	0
2019/05/18 20:48:00	BASE	24.71	87	30.15	87	-3.4	97	-3.8	0	0	969.9	NA	0.0000	-SN BR	3300	5870	6630	0	0
2019/05/18 20:49:00	BASE	24.42	85	30.15	87	-3.4	97	-3.8	0	0	970.0	NA	0.0000	-SN BR	3200	5910	0	0	0
2019/05/18 20:50:00	BASE	25.06	87	30.15	87	-3.4	97	-3.8	0	0	969.9	NA	0.0000	-SN BR	3200	4660	6040	0	0
2019/05/18 20:51:00	BASE	24.41	87	30.15	87	-3.4	97	-3.9	0	0	970.0	NA	0.0000	-SN BR	3200	5540	0	0	0
2019/05/18 20:52:00	BASE	22.97	88	30.15	87	-3.4	96	-3.9	0	0	970.0	NA	0.0000	BR	3200	4630	6230	0	0
2019/05/18 20:53:00	BASE	20.99	93	30.15	87	-3.4	96	-3.9	0	0	970.1	NA	0.0000	BR	3200	4760	6500	0	0
2019/05/18 20:54:00	BASE	20.44	95	30.15	87	-3.4	96	-3.9	0	0	970.1	NA	0.0000	BR	3200	5020	6200	0	0
2019/05/18 20:55:00	BASE	21.10	94	30.15	87	-3.4	96	-3.9	0	0	970.1	NA	0.0000	BR	3200	4560	0	0	0
2019/05/18 20:56:00	BASE	20.13	91	30.15	87	-3.3	96	-3.9	0	0	970.2	NA	0.0000	BR	3100	4530	0	0	0
2019/05/18 20:57:00	BASE	20.31	92	30.15	87	-3.3	96	-3.8	0	0	970.1	NA	0.0000	BR	3100	4530	5580	0	0
2019/05/18 20:58:00	BASE	21.33	92	28.24	74	-3.3	96	-3.8	0	0	970.2	NA	0.0000	BR	3100	4430	5840	0	0
2019/05/18 20:59:00	BASE	22.30	90	27.68	86	-3.3	96	-3.8	0	0	970.2	NA	0.0000	BR	3100	4720	5870	0	0
2019/05/18 21:00:00	BASE	24.21	89	28.91	85	-3.3	96	-3.8	0	0	970.1	NA	0.0000	BR	3100	6070	0	0	0
2019/05/18 21:01:00	BASE	24.75	88	28.91	85	-3.3	96	-3.9	0	0	970.1	NA	0.0000	BR	3100	4720	0	0	0
2019/05/18 21:02:00	BASE	22.88	91	28.91	85	-3.4	96	-3.9	0	0	970.2	NA	0.0000	BR	3100	4590	7910	0	0
2019/05/18 21:03:00	BASE	20.60	93	28.91	85	-3.4	96	-3.9	0	0	970.2	NA	0.0000	BR	3100	4660	0	0	0
2019/05/18 21:04:00	BASE	21.98	93	28.91	85	-3.4	97	-3.9	0	0	970.1	NA	0.0000	BR	3000	5540	0	0	0
2019/05/18 21:05:00	BASE	24.62	90	28.91	85	-3.4	97	-3.8	0	0	970.1	NA	0.0000	BR	3000	7050	0	0	0
2019/05/18 21:06:00	BASE	24.39	87	28.91	85	-3.4	97	-3.8	0	0	970.2	NA	0.0000	BR	3000	6990	0	0	0
2019/05/18 21:07:00	BASE	21.65	88	28.91	85	-3.4	97	-3.8	0	0	970.3	NA	0.0000	-SN BR	3400	6790	0	0	0
2019/05/18 21:08:00	BASE	20.51	89	28.91	85	-3.4	97	-3.8	0	0	970.3	NA	0.0000	-SN BR	4000	6990	0	0	0
2019/05/18 21:09:00	BASE	21.50	92	28.91	85	-3.3	97	-3.7	0	0	970.3	NA	0.0000	-SN BR	4000	7420	0	0	0
2019/05/18 21:10:00	BASE	21.59	96	28.65	87	-3.3	97	-3.7	0	0	970.3	NA	0.0000	-SN BR	4000	7220	0	0	0
2019/05/18 21:11:00	BASE	21.20	95	27.78	89	-3.3	97	-3.7	0	0	970.3	NA	0.0000	-SN BR	4000	7120	0	0	0
2019/05/18 21:12:00	BASE	21.37	93	27.78	89	-3.3	97	-3.7	0	0	970.3	NA	0.0000	-SN BR	3900	6590	0	0	0
2019/05/18 21:13:00	BASE	21.61	90	27.78	89	-3.2	97	-3.7	0	0	970.3	NA	0.0000	-SN BR	3900	7120	0	0	0
2019/05/18 21:14:00	BASE	22.89	93	28.09	99	-3.2	97	-3.7	0	0	970.3	NA	0.0000	-SN BR	3900	8010	0	0	0
2019/05/18 21:15:00	BASE	24.36	94	28.09	99	-3.2	96	-3.7	0	0	970.3	NA	0.0000	-SN BR	3900	5910	0	0	0
2019/05/18 21:16:00	BASE	23.09	93	28.09	99	-3.2	96	-3.7	0	0	970.3	NA	0.0000	-SN BR	3900	5970	6860	0	0
2019/05/18 21:17:00	BASE	22.41	96	28.09	99	-3.2	96	-3.7	0	0	970.3	NA	0.0000	-SN BR	3900	6370	0	0	0
2019/05/18 21:18:00	BASE	22.34	97	28.09	99	-3.2	96	-3.7	0	0	970.4	NA	0.0000	BR	3900	4230	0	0	0
2019/05/18 21:19:00	BASE	23.46	95	28.09	99	-3.2	96	-3.7	0	0	970.3	NA	0.0000	BR	3900	4490	6590	0	0
2019/05/18 21:20:00	BASE	23.69	94	28.09	99	-3.2	96	-3.7	0	0	970.4	NA	0.0000	BR	3900	4720	6370	0	0
2019/05/18 21:21:00	BASE	21.02	93	28.09	99	-3.2	96	-3.7	0	0	970.5	NA	0.0000	BR	3900	5940	0	0	0
2019/05/18 21:22:00	BASE	20.58	96	28.09	99	-3.2	96	-3.7	0	0	970.4	NA	0.0000	BR	3900	5840	0	0	0
2019/05/18 21:23:00	BASE	21.15	96	28.09	99	-3.2	96	-3.7	0	0	970.5	NA	0.0000	BR	3900	5410	6270	0	0
2019/05/18 21:24:00	BASE	22.76	94	28.24	84	-3.2	96	-3.7	0	0	970.4	NA	0.0000	BR	3800	5580	6590	0	0
2019/05/18 21:25:00	BASE	24.29	94	28.24	84	-3.2	96	-3.7	0	0	970.4	NA	0.0000	BR	3800	4330	5540	7380	0
2019/05/18 21:26:00	BASE	22.27	95	28.24	84	-3.1	96	-3.7	0	0	970.5	NA	0.0000	BR	3800	3870	5350	6170	0
2019/05/18 21:27:00	BASE	20.86	95	28.24	84	-3.1	95	-3.7	0	0	970.6	NA	0.0000	BR	3800	4100	5740	7190	0
2019/05/18 21:28:00	BASE	20.61	97	28.24	84	-3.1	95	-3.8	0	0	970.6	NA	0.0000	BR	3800	4070	5180	6140	0
2019/05/18 21:29:00	BASE	19.90	98	28.24	84	-3.1	95	-3.8	0	0	970.7	NA	0.0000	BR	3800	4200	5910	7380	0
2019/05/18 21:30:00	BASE	20.45	98	28.24	84	-3.1	95	-3.8	0	0	970.7	NA	0.0000	BR	3800	4330	5710	0	0
2019/05/18 21:31:00	BASE	21.19	97	28.24	84	-3.1	95	-3.8	0	0	970.7	NA	0.0000	BR	3800	4530	6530	0	0
2019/05/18 21:32:00	BASE	21.20	96	28.24	84	-3.2	95	-3.9	0	0	970.7	NA	0.0000	BR	3800	4490	6630	0	0
2019/05/18 21:33:00	BASE	21.75	94	28.24	84	-3.2	95	-3.9	0	0	970.6	NA	0.0000	BR	3800	5020	6100	0	0
2019/05/18 21:34:00	BASE	21.36	95	25.10	96	-3.2	95	-3.9	0	0	970.7	NA	0.0000	BR	3800	4590	6660	0	0
2019/05/18 21:35:00	BASE	19.74	99	24.54	106	-3.2	95	-3.9	0	0	970.8	NA	0.0000	BR	3800	4920	5970	6890	0
2019/05/18 21:36:00	BASE	18.47	101	24.54	106	-3.2	95	-3.9	0	0	970.9	NA	0.0000	BR	5000	4630	0	0	0
2019/05/18 21:37:00	BASE	18.74	100	24.54	106	-3.2	95	-3.9	0	0	970.8	NA	0.0000	BR	7000	5050	0	0	0
2019/05/18 21:38:00	BASE	19.95	99	24.54	106	-3.2	95	-3.8	0	0	970.8	NA	0.0000	BR	7000	5020	5910	0	0
2019/05/18 21:39:00	BASE	20.55	100	24.54	106	-3.1	95	-3.8	0	0	970.8	NA	0.0000	BR	7000	4590	0	0	0
2019/05/18 21:40:00	BASE	21.39	97	24.54	106	-3.1	95	-3.8	0	0	970.9	NA	0.0000	BR	7000	4630	6170	9380	0
2019/05/18 21:41:01	BASE	20.44	98	24.54	106	-3.1	95	-3.8	0	0	971.0	NA	0.0000	BR	7000	4630	9480	0	0
2019/05/18 21:42:00	BASE	18.75	104	24.54	106	-3.1	95	-3.8	0	0	971.0	NA	0.0000	BR	7000	4590	9480	0	0
2019/05/18 21:43:00	BASE	19.67	106	24.28	96	-3.2	95	-3.8	0	0	970.9	NA	0.0000	BR	7000	4720	0	0	0
2019/05/18 21:44:00	BASE	20.08	105	24.28	96	-3.2	95	-3.8	0	0	971.0	NA	0.0000	BR	7000	4560	0	0	0
2019/05/18 21:45:00	BASE	17.52	108	24.28	96	-3.2	96	-3.8	0	0	971.1	NA	0.0000	BR	7000	5020	0	0	0
2019/05/18 21:46:00	BASE	15.98	112	24.28	96	-3.2	96	-3.7	0	0	971.1	NA	0.0000	BR	6000	4720	5740	9780	0
2019/05/18 21:47:00	BASE	17.01	113	24.28	96	-3.1	96	-3.7	0	0	971.1	NA	0.0000	BR	7000	4760	6100	9810	0
2019/05/18 21:48:00	BASE	18.49	115	24.28	96	-3.1	96	-3.6	0	0	971.0	NA	0.0000	BR	8000	9810	0	0	0
2019/05/18 21:49:00	BASE	18.56	113	24.28	96	-3.0	96	-3.6	0	0	971.1	NA	0.0000	BR	9000	4660	9840	0	0
2019/05/18 21:50:00	BASE	16.76	109	23.05	109	-3.0	96	-3.6	0	0	971.2	NA	0.0000	BR	9000	5150	9840	0	0
2019/05/18 21:51:00	BASE	17.65	110	23.05	109	-2.9	96	-3.5	0	0	971.1	NA	0.0000	BR	9000	9780	0	0	0
2019/05/18 21:52:00	BASE	18.66	111	23.05	109	-2.9	95	-3.5	0	0	971.2	NA	0.0000	BR	9000	9840	0	0	0
2019/05/18 21:53:00	BASE	17.66	106	21.71	98	-2.9	95	-3.6	0	0	971.2	NA	0.0000	BR	9000	9840	0	0	0
2019/05/18 21:54:00	BASE	17.23	103	21.61	113	-2.9	95	-3.7	0	0	971.2	NA	0.0000	BR	9000	9780	0	0	0
2019/05/18 21:55:00	BASE	17.06	101	21.61	113	-2.9	94	-3.7	0	0	971.2	NA	0.0000	BR	9000	9880	0	0	0
2019/05/18 21:56:00	BASE	17.83	99	21.61	113	-3.0	94	-3.8	0	0	971.1	NA	0.0000	BR	9000	9970	0	0	0
2019/05/18 21:57:00	BASE	18.39	102	21.61	113	-3.0	94	-3.8	0	0	971.2	NA	0.0000	BR	8000	9940	0	0	0
2019/05/18 21:58:00	BASE	17.58	102	21.61	113	-3.0	94	-3.9	0	0	971.2	NA	0.0000	BR	8000	9970	0	0	0
2019/05/18 21:59:00	BASE	16.68	99	21.56	110	-3.1	94	-3.9	0	0	971.2	NA	0.0000	BR	8000	5380	9970	0	0
2019/05/18 22:00:00	BASE	17.71	97	21.56	110	-3.1	94	-3.9	0	0	971.2	NA	0.0000	BR	8000	8990	0	0	0
2019/05/18 22:01:00	BASE	19.10	98	21.50	96	-3.1	94	-3.9	0	0	971.2	NA	0.0000	BR	7000	4820	8860	0	0
2019/05/18 22:02:00	BASE	20.17	98	24.23	92	-3.1	95	-3.9	0	0	971.2	NA	0.0000	BR	7000	8890	10010	0	0
2019/05/18 22:03:00	BASE	19.99	98	24.23	92	-3.1	95	-3.8	0	0	971.2	NA	0.0000	BR	6000	4430	9970	0	0
2019/05/18 22:04:00	BASE	19.17	96	24.23	92	-3.1	95	-3.8	0	0	971.1	NA	0.0000	BR	6000	9650	0	0	0
2019/05/18 22:05:00	BASE	20.09	94	24.23	92	-3.1	95	-3.8	0	0	971.1	NA	0.0000	BR	6000	4790	9710	0	0
2019/05/18 22:06:00	BASE	21.43	93	24.69	90	-3.1	95	-3.8	0	0	971.0	NA	0.0000	BR	5000	9710	0	0	0
2019/05/18 22:07:00	BASE	20.53	91	24.69	90	-3.1	95	-3.8	0	0	971.2	NA	0.0000	BR	5000	4920	9680	10140	0
2019/05/18 22:08:00	BASE	19.13	90	24.69	90	-3.1	95	-3.8	0	0	971.2	NA	0.0000	BR	6000	4760	9580	10240	0
2019/05/18 22:09:00	BASE	20.72	87	24.85	88	-3.1	95	-3.8	0	0	971.1	NA	0.0000	BR	5000	4760	9610	10270	0
2019/05/18 22:10:00	BASE	21.64	84	24.85	88	-3.1	95	-3.8	0	0	971.1	NA	0.0000	UP BR	5000	4590	9740	10270	0
2019/05/18 22:11:00	BASE	20.57	84	24.85	88	-3.1	95	-3.8	0	0	971.2	NA	0.0000	UP BR	5000	4560	9710	10300	0
2019/05/18 22:12:00	BASE	18.05	88	24.85	88	-3.1	95	-3.8	0	0	971.2	NA	0.0000	UP BR	5000	4690	9710	0	0
2019/05/18 22:13:00	BASE	16.92	90	24.85	88	-3.0	95	-3.8	0	0	971.3	NA	0.0000	UP BR	5000	4890	0	0	0
2019/05/18 22:14:00	BASE	18.68	90	24.85	88	-3.0	94	-3.8	0	0	971.3	NA	0.0000	UP BR	5000	4230	9810	0	0
2019/05/18 22:15:00	BASE	19.71	88	24.85	88	-3.0	94	-3.8	0	0	971.3	NA	0.0000	UP BR	7000	4820	9740	0	0
2019/05/18 22:16:00	BASE	18.89	89	24.85	88	-3.0	94	-3.9	0	0	971.3	NA	0.0000	UP BR	7000	3510	0	0	0
2019/05/18 22:17:00	BASE	18.87	91	24.85	88	-3.0	93	-3.9	0	0	971.3	NA	0.0000	UP BR	7000	4920	0	0	0
2019/05/18 22:18:00	BASE	20.01	90	25.41	77	-3.0	93	-3.9	0	0	971.3	NA	0.0000	UP BR	7000	4660	0	0	0
2019/05/18 22:19:00	BASE	19.67	89	25.41	77	-3.0	93	-4.0	0	0	971.4	NA	0.0000	UP BR	6000	4790	0	0	0
2019/05/18 22:20:00	BASE	19.38	95	25.41	77	-3.0	92	-4.0	0	0	971.5	NA	0.0000	UP BR	6000	4400	9840	0	0
2019/05/18 22:21:00	BASE	18.29	101	25.41	77	-3.0	92	-4.1	0	0	971.5	NA	0.0000	UP BR	7000	4660	0	0	0
2019/05/18 22:22:00	BASE	16.87	103	25.41	77	-3.0	92	-4.1	0	0	971.5	NA	0.0000	UP BR	8000	4820	0	0	0
2019/05/18 22:23:00	BASE	16.44	101	25.41	77	-3.0	92	-4.1	0	0	971.6	NA	0.0000	UP BR	9000	4790	0	0	0
2019/05/18 22:24:00	BASE	16.99	99	25.41	77	-3.0	92	-4.1	0	0	971.6	NA	0.0000	UP BR	9000	4860	0	0	0
2019/05/18 22:25:00	BASE	17.01	99	25.41	77	-3.0	92	-4.0	0	0	971.6	NA	0.0000	UP BR	9000	4430	0	0	0
2019/05/18 22:26:00	BASE	16.31	102	25.41	77	-3.0	92	-4.1	0	0	971.7	NA	0.0000	UP BR	8000	6590	0	0	0
2019/05/18 22:27:00	BASE	17.40	105	25.41	77	-3.0	93	-4.0	0	0	971.6	NA	0.0000	UP BR	9000	4790	0	0	0
2019/05/18 22:28:00	BASE	18.39	106	21.92	96	-3.0	93	-4.0	0	0	971.6	NA	0.0000	UP BR	9000	6530	0	0	0
2019/05/18 22:29:00	BASE	18.17	111	21.92	96	-3.0	93	-4.0	0	0	971.6	NA	0.0000	BR	9000	6370	0	0	0
2019/05/18 22:30:00	BASE	16.04	110	20.83	109	-3.0	93	-4.0	0	0	971.8	NA	0.0000	BR	9000	3710	0	0	0
2019/05/18 22:31:00	BASE	14.68	109	20.83	109	-2.9	93	-3.9	0	0	971.8	NA	0.0000	BR	9999	3840	0	0	0
2019/05/18 22:32:00	BASE	14.92	106	20.83	109	-2.9	93	-3.9	0	0	971.8	NA	0.0000	BR	9999	6100	0	0	0
2019/05/18 22:33:00	BASE	13.59	106	20.83	109	-2.8	92	-3.9	0	0	971.8	NA	0.0000	BR	9999	3840	0	0	0
2019/05/18 22:34:00	BASE	14.21	107	20.83	109	-2.8	92	-4.0	0	0	971.8	NA	0.0000	BR	9999	5090	0	0	0
2019/05/18 22:35:00	BASE	17.29	107	20.83	109	-2.8	91	-4.0	0	0	971.7	NA	0.0000		9999	4560	0	0	0
2019/05/18 22:36:00	BASE	18.03	104	20.83	109	-2.8	91	-4.0	0	0	971.8	NA	0.0000		9999	4100	0	0	0
2019/05/18 22:37:00	BASE	16.09	102	20.83	109	-2.7	91	-4.1	0	0	971.8	NA	0.0000		9999	4040	0	0	0
2019/05/18 22:38:00	BASE	14.11	100	20.83	109	-2.7	90	-4.1	0	0	971.8	NA	0.0000		9999	6270	0	0	0
2019/05/18 22:39:00	BASE	15.59	96	20.01	94	-2.7	90	-4.1	0	0	971.8	NA	0.0000		9999	5970	0	0	0
2019/05/18 22:40:00	BASE	16.84	95	20.01	94	-2.7	89	-4.2	0	0	971.8	NA	0.0000		9999	3610	0	0	0
2019/05/18 22:41:00	BASE	16.11	94	20.01	94	-2.7	89	-4.3	0	0	971.8	NA	0.0000		9999	4460	0	0	0
2019/05/18 22:42:00	BASE	18.18	92	22.74	88	-2.7	88	-4.4	0	0	971.7	NA	0.0000		9999	4330	0	0	0
2019/05/18 22:43:00	BASE	18.96	94	22.74	88	-2.7	88	-4.4	0	0	971.8	NA	0.0000		9999	4270	0	0	0
2019/05/18 22:44:00	BASE	16.66	99	22.74	88	-2.8	88	-4.4	0	0	971.8	NA	0.0000		9999	4330	0	0	0
2019/05/18 22:45:00	BASE	15.22	102	22.74	88	-2.8	88	-4.4	0	0	971.8	NA	0.0000		9999	4460	0	0	0
2019/05/18 22:46:00	BASE	14.67	101	22.74	88	-2.8	89	-4.4	0	0	971.9	NA	0.0000		9999	4530	0	0	0
2019/05/18 22:47:00	BASE	14.15	105	22.74	88	-2.8	89	-4.3	0	0	971.9	NA	0.0000		9999	3180	0	0	0
2019/05/18 22:48:00	BASE	15.14	107	22.74	88	-2.8	90	-4.2	0	0	971.9	NA	0.0000		9999	3510	0	0	0
2019/05/18 22:49:00	BASE	16.61	100	22.74	88	-2.7	90	-4.2	0	0	971.9	NA	0.0000		9999	3840	0	0	0
2019/05/18 22:50:00	BASE	16.25	95	22.74	88	-2.7	90	-4.2	0	0	971.8	NA	0.0000		9999	3450	4460	5810	0
2019/05/18 22:51:00	BASE	16.25	99	22.74	88	-2.7	89	-4.2	0	0	971.8	NA	0.0000		9999	3050	0	0	0
2019/05/18 22:52:00	BASE	14.75	104	19.75	98	-2.7	89	-4.3	0	0	971.9	NA	0.0000		9999	3410	5320	0	0
2019/05/18 22:53:00	BASE	13.44	106	19.24	97	-2.8	89	-4.3	0	0	971.9	NA	0.0000		9999	3510	5710	6530	0
2019/05/18 22:54:00	BASE	15.42	105	19.24	97	-2.7	89	-4.3	0	0	971.9	NA	0.0000		9999	3900	6400	0	0
2019/05/18 22:55:00	BASE	15.96	101	19.24	97	-2.7	89	-4.3	0	0	972.0	NA	0.0000		9999	3450	6000	0	0
2019/05/18 22:56:00	BASE	16.48	98	20.47	89	-2.7	89	-4.3	0	0	971.9	NA	0.0000		9999	3610	5710	0	0
2019/05/18 22:57:00	BASE	18.19	96	22.58	102	-2.7	89	-4.3	0	0	971.9	NA	0.0000		9999	3510	0	0	0
2019/05/18 22:58:00	BASE	18.41	97	22.58	102	-2.7	88	-4.3	0	0	971.9	NA	0.0000		9999	2720	5050	0	0
2019/05/18 22:59:00	BASE	17.42	101	22.58	102	-2.7	88	-4.4	0	0	971.9	NA	0.0000		9999	2690	3900	0	0
2019/05/18 23:00:00	BASE	16.81	102	22.58	102	-2.7	88	-4.4	0	0	972.0	NA	0.0000		9999	2850	3970	0	0
2019/05/18 23:01:00	BASE	16.02	100	22.58	102	-2.7	88	-4.4	0	0	972.1	NA	0.0000		9999	2820	3900	0	0
2019/05/18 23:02:00	BASE	15.38	99	22.58	102	-2.7	88	-4.4	0	0	972.1	NA	0.0000		9999	3050	0	0	0
2019/05/18 23:03:00	BASE	15.73	102	22.58	102	-2.8	88	-4.4	0	0	972.1	NA	0.0000		9999	3380	0	0	0
2019/05/18 23:04:00	BASE	16.09	105	22.58	102	-2.8	88	-4.5	0	0	972.1	NA	0.0000		9999	2760	0	0	0
2019/05/18 23:05:00	BASE	16.39	106	22.58	102	-2.8	89	-4.4	0	0	972.1	NA	0.0000		9999	2950	0	0	0
2019/05/18 23:06:00	BASE	16.43	106	22.58	102	-2.9	89	-4.4	0	0	972.1	NA	0.0000		9999	2820	0	0	0
2019/05/18 23:07:00	BASE	16.43	105	20.11	95	-2.9	89	-4.4	0	0	972.2	NA	0.0000		9999	3310	4990	0	0
2019/05/18 23:08:00	BASE	16.10	101	18.67	101	-2.9	90	-4.3	0	0	972.2	NA	0.0000		9999	2620	4130	0	0
2019/05/18 23:09:00	BASE	15.92	101	18.67	101	-2.9	90	-4.3	0	0	972.2	NA	0.0000		9999	2820	3870	0	0
2019/05/18 23:10:00	BASE	16.06	97	18.57	113	-2.9	90	-4.3	0	0	972.2	NA	0.0000		9999	3020	4070	0	0
2019/05/18 23:11:00	BASE	16.80	92	19.03	88	-2.9	90	-4.3	0	0	972.2	NA	0.0000		9999	2890	4130	0	0
2019/05/18 23:12:00	BASE	16.96	95	19.03	88	-2.9	91	-4.3	0	0	972.2	NA	0.0000		9999	2990	4130	0	0
2019/05/18 23:13:00	BASE	16.04	96	19.03	88	-3.0	91	-4.2	0	0	972.2	NA	0.0000		9999	2620	0	0	0
2019/05/18 23:14:00	BASE	16.74	92	21.81	92	-3.0	91	-4.2	0	0	972.2	NA	0.0000		9999	4000	0	0	0
2019/05/18 23:15:00	BASE	17.87	92	21.81	92	-3.0	91	-4.2	0	0	972.3	NA	0.0000		9999	2920	0	0	0
2019/05/18 23:16:00	BASE	18.37	90	21.86	88	-2.9	91	-4.2	0	0	972.3	NA	0.0000		9999	4000	0	0	0
2019/05/18 23:17:00	BASE	18.85	87	21.86	88	-2.9	91	-4.2	0	0	972.3	NA	0.0000		9999	3870	0	0	0
2019/05/18 23:18:00	BASE	19.72	84	22.33	77	-2.9	91	-4.2	0	0	972.3	NA	0.0000		9999	7780	0	0	0
2019/05/18 23:19:00	BASE	19.06	85	22.33	77	-2.8	90	-4.2	0	0	972.3	NA	0.0000		9999	8170	0	0	0
2019/05/18 23:20:00	BASE	18.07	86	22.33	77	-2.8	90	-4.2	0	0	972.4	NA	0.0000		9999	8170	0	0	0
2019/05/18 23:21:00	BASE	18.23	85	22.33	77	-2.8	89	-4.3	0	0	972.4	NA	0.0000		9999	3050	0	0	0
2019/05/18 23:22:00	BASE	18.43	84	22.33	77	-2.7	89	-4.3	0	0	972.4	NA	0.0000		9999	3410	0	0	0
2019/05/18 23:23:00	BASE	18.82	86	22.33	77	-2.7	88	-4.3	0	0	972.4	NA	0.0000		9999	5580	0	0	0
2019/05/18 23:24:00	BASE	17.76	87	22.33	77	-2.6	88	-4.4	0	0	972.4	NA	0.0000		9999	4660	0	0	0
2019/05/18 23:25:00	BASE	17.55	86	22.33	77	-2.6	87	-4.4	0	0	972.4	NA	0.0000		9999	8560	0	0	0
2019/05/18 23:26:00	BASE	18.00	85	22.33	77	-2.6	87	-4.5	0	0	972.5	NA	0.0000		9999	8240	0	0	0
2019/05/18 23:27:00	BASE	16.74	85	22.33	77	-2.6	86	-4.6	0	0	972.5	NA	0.0000		9999	4170	0	0	0
2019/05/18 23:28:00	BASE	16.44	85	21.35	86	-2.6	86	-4.7	0	0	972.5	NA	0.0000		9999	3940	0	0	0
2019/05/18 23:29:00	BASE	17.93	82	21.35	86	-2.6	85	-4.8	0	0	972.5	NA	0.0000		9999	4100	0	0	0
2019/05/18 23:30:00	BASE	18.64	79	23.51	81	-2.6	85	-4.8	0	0	972.5	NA	0.0000		9999	4200	0	0	0
2019/05/18 23:31:00	BASE	18.62	81	23.51	81	-2.6	85	-4.9	0	0	972.5	NA	0.0000		9999	8530	0	0	0
2019/05/18 23:32:00	BASE	19.33	84	23.51	81	-2.6	84	-4.9	0	0	972.6	NA	0.0000		9999	2430	0	0	0
2019/05/18 23:33:00	BASE	19.77	83	23.51	81	-2.6	84	-4.9	0	0	972.6	NA	0.0000		9999	4100	0	0	0
2019/05/18 23:34:00	BASE	19.37	81	23.51	81	-2.6	84	-4.9	0	0	972.7	NA	0.0000		9999	3450	0	0	0
2019/05/18 23:35:00	BASE	19.27	81	23.51	81	-2.6	84	-5.0	0	0	972.7	NA	0.0000		9999	2690	0	0	0
2019/05/18 23:36:00	BASE	19.09	83	23.51	81	-2.6	84	-4.9	0	0	972.7	NA	0.0000		9999	4920	0	0	0
2019/05/18 23:37:00	BASE	18.43	84	23.51	81	-2.6	84	-4.9	0	0	972.8	NA	0.0000		9999	3900	0	0	0
2019/05/18 23:38:00	BASE	17.71	82	23.51	81	-2.7	85	-4.9	0	0	972.7	NA	0.0000		9999	4070	0	0	0
2019/05/18 23:39:00	BASE	17.80	82	23.51	81	-2.7	85	-4.9	0	0	972.7	NA	0.0000		9999	3250	0	0	0
2019/05/18 23:40:00	BASE	19.39	87	22.33	83	-2.6	85	-4.8	0	0	972.7	NA	0.0000		9999	3770	0	0	0
2019/05/18 23:41:00	BASE	20.20	87	22.33	83	-2.6	85	-4.8	0	0	972.7	NA	0.0000		9999	3670	0	0	0
2019/05/18 23:42:00	BASE	18.05	86	22.33	83	-2.6	85	-4.8	0	0	972.7	NA	0.0000		9999	3710	5220	0	0
2019/05/18 23:43:00	BASE	16.68	87	22.33	83	-2.6	85	-4.8	0	0	972.7	NA	0.0000		9999	4070	0	0	0
2019/05/18 23:44:00	BASE	17.36	84	22.33	83	-2.5	84	-4.8	0	0	972.7	NA	0.0000		9999	3940	0	0	0
2019/05/18 23:45:00	BASE	18.34	80	22.33	83	-2.5	84	-4.8	0	0	972.7	NA	0.0000		9999	3770	4790	0	0
2019/05/18 23:46:00	BASE	19.09	82	22.33	83	-2.6	84	-4.9	0	0	972.7	NA	0.0000		9999	2620	4760	5740	0
2019/05/18 23:47:00	BASE	18.24	87	22.33	83	-2.5	84	-4.9	0	0	972.7	NA	0.0000		9999	3640	4990	0	0
2019/05/18 23:48:00	BASE	16.95	90	22.33	83	-2.5	84	-4.9	0	0	972.7	NA	0.0000		9999	3740	0	0	0
2019/05/18 23:49:00	BASE	16.64	89	22.33	83	-2.5	84	-4.9	0	0	972.8	NA	0.0000		9999	3870	5350	0	0
2019/05/18 23:50:00	BASE	16.84	85	21.97	73	-2.5	83	-4.9	0	0	972.8	NA	0.0000		9999	2620	5090	0	0
2019/05/18 23:51:00	BASE	16.46	85	21.97	73	-2.5	83	-5.0	0	0	972.8	NA	0.0000		9999	3050	5050	0	0
2019/05/18 23:52:00	BASE	17.28	85	21.97	73	-2.5	83	-5.1	0	0	972.8	NA	0.0000		9999	4070	0	0	0
2019/05/18 23:53:00	BASE	19.32	84	21.97	73	-2.6	83	-5.1	0	0	972.7	NA	0.0000		9999	3280	4890	0	0
2019/05/18 23:54:00	BASE	19.55	86	21.97	73	-2.6	83	-5.2	0	0	972.7	NA	0.0000		9999	3350	0	0	0
2019/05/18 23:55:00	BASE	19.56	87	22.22	97	-2.6	83	-5.2	0	0	972.8	NA	0.0000		9999	3670	5380	0	0
2019/05/18 23:56:00	BASE	18.89	86	22.22	97	-2.6	83	-5.1	0	0	972.8	NA	0.0000		9999	4530	0	0	0
2019/05/18 23:57:00	BASE	19.14	82	23.10	71	-2.6	83	-5.1	0	0	972.8	NA	0.0000		9999	3380	4560	0	0
2019/05/18 23:58:00	BASE	20.63	77	23.66	76	-2.6	83	-5.1	0	0	972.8	NA	0.0000		9999	3540	0	0	0
2019/05/18 23:59:00	BASE	20.41	81	23.66	76	-2.7	83	-5.1	0	0	972.8	NA	0.0000		9999	3610	0	0	0